Wetterdaten: Freitag, 08.04.2016
Datum Zeit Temp. A. Feuchte A. Luftdruck Regen Wind Richtung Richtung Sonnenschein ET UV Solar Taupunkt Windchill Windben Empfang
08.04.2016 00:00 9,9 C 85 % 1010,7 hPa 0,0 l/m 8,2 km/h (2 Bft) W-NW 296 0 min 0,000 mm 0,0 UV-I 0 W/m 7,5 C 8,6 C 14,5 km/h (3 Bft) 95,83 %
08.04.2016 00:02 9,8 C 85 % 1010,6 hPa 0,0 l/m 3,0 km/h (1 Bft) W-SW 257 0 min 0,000 mm 0,0 UV-I 0 W/m 7,4 C 9,8 C 6,4 km/h (2 Bft) 92,86 %
08.04.2016 00:03 9,8 C 85 % 1010,6 hPa 0,0 l/m 3,0 km/h (1 Bft) W 262 0 min 0,000 mm 0,0 UV-I 0 W/m 7,4 C 9,8 C 4,8 km/h (1 Bft) 100,00 %
08.04.2016 00:04 9,8 C 85 % 1010,7 hPa 0,0 l/m 4,8 km/h (1 Bft) W 265 0 min 0,000 mm 0,0 UV-I 0 W/m 7,4 C 9,8 C 9,7 km/h (2 Bft) 100,00 %
08.04.2016 00:05 9,8 C 85 % 1010,7 hPa 0,0 l/m 4,6 km/h (1 Bft) W-SW 251 0 min 0,000 mm 0,0 UV-I 0 W/m 7,4 C 9,8 C 6,4 km/h (2 Bft) 100,00 %
08.04.2016 00:06 9,8 C 85 % 1010,7 hPa 0,0 l/m 6,6 km/h (2 Bft) W 262 0 min 0,000 mm 0,0 UV-I 0 W/m 7,4 C 9,7 C 9,7 km/h (2 Bft) 93,33 %
08.04.2016 00:07 9,8 C 86 % 1010,8 hPa 0,0 l/m 4,4 km/h (1 Bft) W 269 0 min 0,000 mm 0,0 UV-I 0 W/m 7,6 C 9,8 C 6,4 km/h (2 Bft) 100,00 %
08.04.2016 00:08 9,8 C 86 % 1010,7 hPa 0,0 l/m 7,2 km/h (2 Bft) W-SW 250 0 min 0,000 mm 0,0 UV-I 0 W/m 7,6 C 9,2 C 12,9 km/h (3 Bft) 100,00 %
08.04.2016 00:09 9,8 C 86 % 1010,7 hPa 0,0 l/m 5,4 km/h (1 Bft) W-NW 284 0 min 0,000 mm 0,0 UV-I 0 W/m 7,6 C 9,8 C 12,9 km/h (3 Bft) 96,15 %
08.04.2016 00:10 9,7 C 86 % 1010,7 hPa 0,0 l/m 5,1 km/h (1 Bft) W 267 0 min 0,000 mm 0,0 UV-I 0 W/m 7,5 C 9,7 C 9,7 km/h (2 Bft) 100,00 %
08.04.2016 00:11 9,7 C 86 % 1010,7 hPa 0,0 l/m 3,0 km/h (1 Bft) W-SW 248 0 min 0,000 mm 0,0 UV-I 0 W/m 7,5 C 9,7 C 6,4 km/h (2 Bft) 95,65 %
08.04.2016 00:12 9,7 C 86 % 1010,7 hPa 0,0 l/m 4,7 km/h (1 Bft) W 265 0 min 0,000 mm 0,0 UV-I 0 W/m 7,5 C 9,7 C 6,4 km/h (2 Bft) 100,00 %
08.04.2016 00:13 9,7 C 86 % 1010,7 hPa 0,0 l/m 5,2 km/h (1 Bft) W 263 0 min 0,000 mm 0,0 UV-I 0 W/m 7,5 C 9,7 C 12,9 km/h (3 Bft) 97,86 %
08.04.2016 00:14 9,7 C 86 % 1010,7 hPa 0,0 l/m 7,6 km/h (2 Bft) W 259 0 min 0,000 mm 0,0 UV-I 0 W/m 7,5 C 8,8 C 12,9 km/h (3 Bft) 97,56 %
08.04.2016 00:15 9,7 C 86 % 1010,7 hPa 0,0 l/m 7,2 km/h (2 Bft) W 264 0 min 0,000 mm 0,0 UV-I 0 W/m 7,5 C 9,1 C 11,3 km/h (2 Bft) 100,00 %
08.04.2016 00:16 9,7 C 86 % 1010,7 hPa 0,0 l/m 5,8 km/h (2 Bft) W-NW 287 0 min 0,000 mm 0,0 UV-I 0 W/m 7,5 C 9,7 C 14,5 km/h (3 Bft) 100,00 %
08.04.2016 00:17 9,7 C 86 % 1010,7 hPa 0,0 l/m 7,3 km/h (2 Bft) W 278 0 min 0,000 mm 0,0 UV-I 0 W/m 7,5 C 9,0 C 12,9 km/h (3 Bft) 100,00 %
08.04.2016 00:18 9,7 C 86 % 1010,7 hPa 0,0 l/m 5,3 km/h (1 Bft) W 262 0 min 0,000 mm 0,0 UV-I 0 W/m 7,5 C 9,7 C 6,4 km/h (2 Bft) 100,00 %
08.04.2016 00:19 9,7 C 86 % 1010,6 hPa 0,0 l/m 4,7 km/h (1 Bft) W 262 0 min 0,000 mm 0,0 UV-I 0 W/m 7,5 C 9,7 C 6,4 km/h (2 Bft) 100,00 %
08.04.2016 00:20 9,6 C 87 % 1010,6 hPa 0,0 l/m 6,6 km/h (2 Bft) W 281 0 min 0,000 mm 0,0 UV-I 0 W/m 7,5 C 9,5 C 11,3 km/h (2 Bft) 100,00 %
08.04.2016 00:21 9,6 C 86 % 1010,6 hPa 0,0 l/m 2,7 km/h (1 Bft) W 280 0 min 0,000 mm 0,0 UV-I 0 W/m 7,4 C 9,6 C 4,8 km/h (1 Bft) 100,00 %
08.04.2016 00:22 9,6 C 87 % 1010,6 hPa 0,0 l/m 5,1 km/h (1 Bft) W-SW 258 0 min 0,000 mm 0,0 UV-I 0 W/m 7,5 C 9,6 C 11,3 km/h (2 Bft) 100,00 %
08.04.2016 00:23 9,6 C 87 % 1010,6 hPa 0,0 l/m 5,0 km/h (1 Bft) W 266 0 min 0,000 mm 0,0 UV-I 0 W/m 7,5 C 9,6 C 11,3 km/h (2 Bft) 96,30 %
08.04.2016 00:24 9,6 C 87 % 1010,6 hPa 0,0 l/m 3,4 km/h (1 Bft) W 270 0 min 0,000 mm 0,0 UV-I 0 W/m 7,5 C 9,6 C 4,8 km/h (1 Bft) 100,00 %
08.04.2016 00:25 9,6 C 87 % 1010,6 hPa 0,0 l/m 6,4 km/h (2 Bft) W-SW 255 0 min 0,000 mm 0,0 UV-I 0 W/m 7,5 C 9,6 C 11,3 km/h (2 Bft) 96,30 %
08.04.2016 00:26 9,6 C 87 % 1010,6 hPa 0,0 l/m 4,1 km/h (1 Bft) W 267 0 min 0,000 mm 0,0 UV-I 0 W/m 7,5 C 9,6 C 6,4 km/h (2 Bft) 100,00 %
08.04.2016 00:27 9,6 C 87 % 1010,6 hPa 0,0 l/m 5,0 km/h (1 Bft) W-NW 284 0 min 0,000 mm 0,0 UV-I 0 W/m 7,5 C 9,6 C 9,7 km/h (2 Bft) 100,00 %
08.04.2016 00:28 9,6 C 87 % 1010,6 hPa 0,0 l/m 3,2 km/h (1 Bft) W 273 0 min 0,000 mm 0,0 UV-I 0 W/m 7,5 C 9,6 C 4,8 km/h (1 Bft) 100,00 %
08.04.2016 00:29 9,5 C 87 % 1010,6 hPa 0,0 l/m 2,5 km/h (1 Bft) W 271 0 min 0,000 mm 0,0 UV-I 0 W/m 7,4 C 9,5 C 3,2 km/h (1 Bft) 100,00 %
08.04.2016 00:30 9,5 C 87 % 1010,6 hPa 0,0 l/m 5,2 km/h (1 Bft) W 279 0 min 0,000 mm 0,0 UV-I 0 W/m 7,4 C 9,5 C 9,7 km/h (2 Bft) 95,65 %
08.04.2016 00:31 9,5 C 87 % 1010,6 hPa 0,0 l/m 4,1 km/h (1 Bft) W 260 0 min 0,000 mm 0,0 UV-I 0 W/m 7,4 C 9,5 C 6,4 km/h (2 Bft) 91,67 %
08.04.2016 00:32 9,5 C 87 % 1010,6 hPa 0,0 l/m 5,2 km/h (1 Bft) W 265 0 min 0,000 mm 0,0 UV-I 0 W/m 7,4 C 9,5 C 9,7 km/h (2 Bft) 100,00 %
08.04.2016 00:33 9,5 C 87 % 1010,6 hPa 0,0 l/m 4,5 km/h (1 Bft) W 269 0 min 0,000 mm 0,0 UV-I 0 W/m 7,4 C 9,5 C 6,4 km/h (2 Bft) 100,00 %
08.04.2016 00:34 9,5 C 87 % 1010,6 hPa 0,0 l/m 4,5 km/h (1 Bft) W 267 0 min 0,000 mm 0,0 UV-I 0 W/m 7,4 C 9,5 C 6,4 km/h (2 Bft) 100,00 %
08.04.2016 00:35 9,4 C 87 % 1010,7 hPa 0,0 l/m 2,3 km/h (1 Bft) W 277 0 min 0,000 mm 0,0 UV-I 0 W/m 7,3 C 9,4 C 3,2 km/h (1 Bft) 100,00 %
08.04.2016 00:36 9,5 C 87 % 1010,7 hPa 0,0 l/m 2,3 km/h (1 Bft) W 269 0 min 0,000 mm 0,0 UV-I 0 W/m 7,4 C 9,5 C 4,8 km/h (1 Bft) 100,00 %
08.04.2016 00:37 9,4 C 87 % 1010,7 hPa 0,0 l/m 6,0 km/h (2 Bft) W 269 0 min 0,000 mm 0,0 UV-I 0 W/m 7,3 C 9,4 C 9,7 km/h (2 Bft) 100,00 %
08.04.2016 00:38 9,4 C 87 % 1010,7 hPa 0,0 l/m 2,7 km/h (1 Bft) W 281 0 min 0,000 mm 0,0 UV-I 0 W/m 7,3 C 9,4 C 6,4 km/h (2 Bft) 96,30 %
08.04.2016 00:39 9,5 C 87 % 1010,7 hPa 0,0 l/m 2,3 km/h (1 Bft) W 261 0 min 0,000 mm 0,0 UV-I 0 W/m 7,4 C 9,5 C 3,2 km/h (1 Bft) 100,00 %
08.04.2016 00:40 9,4 C 87 % 1010,8 hPa 0,0 l/m 3,5 km/h (1 Bft) W 273 0 min 0,000 mm 0,0 UV-I 0 W/m 7,3 C 9,4 C 4,8 km/h (1 Bft) 100,00 %
08.04.2016 00:41 9,5 C 87 % 1010,7 hPa 0,0 l/m 3,8 km/h (1 Bft) W 267 0 min 0,000 mm 0,0 UV-I 0 W/m 7,4 C 9,5 C 4,8 km/h (1 Bft) 100,00 %
08.04.2016 00:42 9,5 C 87 % 1010,7 hPa 0,0 l/m 4,6 km/h (1 Bft) W-NW 286 0 min 0,000 mm 0,0 UV-I 0 W/m 7,4 C 9,5 C 8,0 km/h (2 Bft) 100,00 %
08.04.2016 00:43 9,5 C 87 % 1010,7 hPa 0,0 l/m 5,8 km/h (2 Bft) W-NW 287 0 min 0,000 mm 0,0 UV-I 0 W/m 7,4 C 9,5 C 11,3 km/h (2 Bft) 100,00 %
08.04.2016 00:44 9,5 C 87 % 1010,6 hPa 0,0 l/m 3,1 km/h (1 Bft) W 262 0 min 0,000 mm 0,0 UV-I 0 W/m 7,4 C 9,5 C 4,8 km/h (1 Bft) 100,00 %
08.04.2016 00:45 9,4 C 87 % 1010,6 hPa 0,0 l/m 5,0 km/h (1 Bft) W 267 0 min 0,000 mm 0,0 UV-I 0 W/m 7,3 C 9,4 C 9,7 km/h (2 Bft) 100,00 %
08.04.2016 00:46 9,4 C 87 % 1010,7 hPa 0,0 l/m 5,0 km/h (1 Bft) W 268 0 min 0,000 mm 0,0 UV-I 0 W/m 7,3 C 9,4 C 6,4 km/h (2 Bft) 100,00 %
08.04.2016 00:47 9,4 C 87 % 1010,6 hPa 0,0 l/m 7,8 km/h (2 Bft) W 265 0 min 0,000 mm 0,0 UV-I 0 W/m 7,3 C 8,4 C 11,3 km/h (2 Bft) 100,00 %
08.04.2016 00:48 9,4 C 87 % 1010,6 hPa 0,0 l/m 6,5 km/h (2 Bft) W 262 0 min 0,000 mm 0,0 UV-I 0 W/m 7,3 C 9,4 C 11,3 km/h (2 Bft) 100,00 %
08.04.2016 00:49 9,4 C 87 % 1010,7 hPa 0,0 l/m 4,6 km/h (1 Bft) W-SW 248 0 min 0,000 mm 0,0 UV-I 0 W/m 7,3 C 9,4 C 11,3 km/h (2 Bft) 100,00 %
08.04.2016 00:50 9,4 C 87 % 1010,7 hPa 0,0 l/m 5,6 km/h (1 Bft) W 269 0 min 0,000 mm 0,0 UV-I 0 W/m 7,3 C 9,4 C 9,7 km/h (2 Bft) 100,00 %
08.04.2016 00:51 9,4 C 87 % 1010,7 hPa 0,0 l/m 4,9 km/h (1 Bft) W-SW 256 0 min 0,000 mm 0,0 UV-I 0 W/m 7,3 C 9,4 C 6,4 km/h (2 Bft) 100,00 %
08.04.2016 00:52 9,4 C 87 % 1010,7 hPa 0,0 l/m 6,2 km/h (2 Bft) W-SW 248 0 min 0,000 mm 0,0 UV-I 0 W/m 7,3 C 9,4 C 11,3 km/h (2 Bft) 100,00 %
08.04.2016 00:53 9,4 C 87 % 1010,7 hPa 0,0 l/m 7,0 km/h (2 Bft) W 263 0 min 0,000 mm 0,0 UV-I 0 W/m 7,3 C 9,0 C 11,3 km/h (2 Bft) 100,00 %
08.04.2016 00:54 9,4 C 87 % 1010,7 hPa 0,0 l/m 5,7 km/h (1 Bft) W-SW 257 0 min 0,000 mm 0,0 UV-I 0 W/m 7,3 C 9,4 C 6,4 km/h (2 Bft) 100,00 %
08.04.2016 00:55 9,4 C 87 % 1010,7 hPa 0,0 l/m 4,0 km/h (1 Bft) W 275 0 min 0,000 mm 0,0 UV-I 0 W/m 7,3 C 9,4 C 9,7 km/h (2 Bft) 100,00 %
08.04.2016 00:56 9,4 C 87 % 1010,6 hPa 0,0 l/m 4,4 km/h (1 Bft) W 262 0 min 0,000 mm 0,0 UV-I 0 W/m 7,3 C 9,4 C 6,4 km/h (2 Bft) 100,00 %
08.04.2016 00:57 9,4 C 87 % 1010,6 hPa 0,0 l/m 4,1 km/h (1 Bft) W 260 0 min 0,000 mm 0,0 UV-I 0 W/m 7,3 C 9,4 C 6,4 km/h (2 Bft) 100,00 %
08.04.2016 00:58 9,4 C 87 % 1010,6 hPa 0,0 l/m 1,4 km/h (1 Bft) W 260 0 min 0,000 mm 0,0 UV-I 0 W/m 7,3 C 9,4 C 3,2 km/h (1 Bft) 100,00 %
08.04.2016 00:59 9,4 C 88 % 1010,6 hPa 0,0 l/m 2,5 km/h (1 Bft) W 277 0 min 0,000 mm 0,0 UV-I 0 W/m 7,5 C 9,4 C 4,8 km/h (1 Bft) 95,83 %
08.04.2016 01:00 9,4 C 87 % 1010,6 hPa 0,0 l/m 3,8 km/h (1 Bft) W 259 0 min 0,000 mm 0,0 UV-I 0 W/m 7,3 C 9,4 C 4,8 km/h (1 Bft) 100,00 %
08.04.2016 01:01 9,4 C 87 % 1010,6 hPa 0,0 l/m 3,1 km/h (1 Bft) W 263 0 min 0,000 mm 0,0 UV-I 0 W/m 7,3 C 9,4 C 4,8 km/h (1 Bft) 100,00 %
08.04.2016 01:02 9,4 C 87 % 1010,6 hPa 0,0 l/m 3,4 km/h (1 Bft) W 263 0 min 0,000 mm 0,0 UV-I 0 W/m 7,3 C 9,4 C 4,8 km/h (1 Bft) 100,00 %
08.04.2016 01:03 9,4 C 87 % 1010,6 hPa 0,0 l/m 3,6 km/h (1 Bft) W-SW 251 0 min 0,000 mm 0,0 UV-I 0 W/m 7,3 C 9,4 C 4,8 km/h (1 Bft) 95,83 %
08.04.2016 01:04 9,4 C 87 % 1010,7 hPa 0,0 l/m 3,5 km/h (1 Bft) W 259 0 min 0,000 mm 0,0 UV-I 0 W/m 7,3 C 9,4 C 4,8 km/h (1 Bft) 95,65 %
08.04.2016 01:05 9,3 C 87 % 1010,7 hPa 0,0 l/m 6,1 km/h (2 Bft) W-SW 255 0 min 0,000 mm 0,0 UV-I 0 W/m 7,2 C 9,3 C 8,0 km/h (2 Bft) 100,00 %
08.04.2016 01:06 9,3 C 87 % 1010,7 hPa 0,0 l/m 4,1 km/h (1 Bft) W-SW 243 0 min 0,000 mm 0,0 UV-I 0 W/m 7,2 C 9,3 C 4,8 km/h (1 Bft) 100,00 %
08.04.2016 01:07 9,3 C 88 % 1010,7 hPa 0,0 l/m 3,7 km/h (1 Bft) W-SW 243 0 min 0,000 mm 0,0 UV-I 0 W/m 7,4 C 9,3 C 4,8 km/h (1 Bft) 100,00 %
08.04.2016 01:08 9,3 C 88 % 1010,8 hPa 0,0 l/m 4,7 km/h (1 Bft) W-SW 241 0 min 0,000 mm 0,0 UV-I 0 W/m 7,4 C 9,3 C 6,4 km/h (2 Bft) 100,00 %
08.04.2016 01:09 9,3 C 88 % 1010,8 hPa 0,0 l/m 4,3 km/h (1 Bft) W-SW 239 0 min 0,000 mm 0,0 UV-I 0 W/m 7,4 C 9,3 C 4,8 km/h (1 Bft) 100,00 %
08.04.2016 01:10 9,3 C 88 % 1010,8 hPa 0,0 l/m 4,6 km/h (1 Bft) W-SW 246 0 min 0,000 mm 0,0 UV-I 0 W/m 7,4 C 9,3 C 6,4 km/h (2 Bft) 100,00 %
08.04.2016 01:11 9,3 C 88 % 1010,8 hPa 0,0 l/m 5,0 km/h (1 Bft) W 261 0 min 0,000 mm 0,0 UV-I 0 W/m 7,4 C 9,3 C 6,4 km/h (2 Bft) 100,00 %
08.04.2016 01:12 9,3 C 88 % 1010,8 hPa 0,0 l/m 5,3 km/h (1 Bft) W-SW 240 0 min 0,000 mm 0,0 UV-I 0 W/m 7,4 C 9,3 C 6,4 km/h (2 Bft) 100,00 %
08.04.2016 01:13 9,3 C 88 % 1010,8 hPa 0,0 l/m 6,6 km/h (2 Bft) W-SW 256 0 min 0,000 mm 0,0 UV-I 0 W/m 7,4 C 9,2 C 9,7 km/h (2 Bft) 100,00 %
08.04.2016 01:14 9,3 C 88 % 1010,8 hPa 0,0 l/m 5,5 km/h (1 Bft) SW 223 0 min 0,000 mm 0,0 UV-I 0 W/m 7,4 C 9,3 C 6,4 km/h (2 Bft) 100,00 %
08.04.2016 01:15 9,3 C 88 % 1010,8 hPa 0,0 l/m 5,9 km/h (2 Bft) W 267 0 min 0,000 mm 0,0 UV-I 0 W/m 7,4 C 9,3 C 6,4 km/h (2 Bft) 100,00 %
08.04.2016 01:16 9,2 C 88 % 1010,7 hPa 0,0 l/m 5,5 km/h (1 Bft) W-SW 257 0 min 0,000 mm 0,0 UV-I 0 W/m 7,3 C 9,2 C 6,4 km/h (2 Bft) 100,00 %
08.04.2016 01:17 9,2 C 88 % 1010,7 hPa 0,0 l/m 4,9 km/h (1 Bft) W 259 0 min 0,000 mm 0,0 UV-I 0 W/m 7,3 C 9,2 C 6,4 km/h (2 Bft) 100,00 %
08.04.2016 01:18 9,2 C 88 % 1010,7 hPa 0,0 l/m 5,4 km/h (1 Bft) W-SW 258 0 min 0,000 mm 0,0 UV-I 0 W/m 7,3 C 9,2 C 8,0 km/h (2 Bft) 100,00 %
08.04.2016 01:19 9,2 C 88 % 1010,7 hPa 0,0 l/m 5,7 km/h (1 Bft) W-SW 252 0 min 0,000 mm 0,0 UV-I 0 W/m 7,3 C 9,2 C 6,4 km/h (2 Bft) 100,00 %
08.04.2016 01:20 9,2 C 88 % 1010,7 hPa 0,0 l/m 3,8 km/h (1 Bft) W-SW 252 0 min 0,000 mm 0,0 UV-I 0 W/m 7,3 C 9,2 C 4,8 km/h (1 Bft) 100,00 %
08.04.2016 01:21 9,2 C 89 % 1010,8 hPa 0,0 l/m 4,6 km/h (1 Bft) W-SW 252 0 min 0,000 mm 0,0 UV-I 0 W/m 7,5 C 9,2 C 4,8 km/h (1 Bft) 100,00 %
08.04.2016 01:22 9,2 C 89 % 1010,8 hPa 0,0 l/m 4,7 km/h (1 Bft) SW 234 0 min 0,000 mm 0,0 UV-I 0 W/m 7,5 C 9,2 C 9,7 km/h (2 Bft) 100,00 %
08.04.2016 01:23 9,2 C 89 % 1010,8 hPa 0,0 l/m 3,5 km/h (1 Bft) SW 234 0 min 0,000 mm 0,0 UV-I 0 W/m 7,5 C 9,2 C 4,8 km/h (1 Bft) 94,12 %
08.04.2016 01:24 9,2 C 89 % 1010,8 hPa 0,0 l/m 4,9 km/h (1 Bft) SW 223 0 min 0,000 mm 0,0 UV-I 0 W/m 7,5 C 9,2 C 6,4 km/h (2 Bft) 100,00 %
08.04.2016 01:25 9,2 C 89 % 1010,8 hPa 0,0 l/m 4,2 km/h (1 Bft) SW 229 0 min 0,000 mm 0,0 UV-I 0 W/m 7,5 C 9,2 C 6,4 km/h (2 Bft) 100,00 %
08.04.2016 01:26 9,2 C 89 % 1010,8 hPa 0,0 l/m 3,8 km/h (1 Bft) W-SW 242 0 min 0,000 mm 0,0 UV-I 0 W/m 7,5 C 9,2 C 6,4 km/h (2 Bft) 100,00 %
08.04.2016 01:27 9,2 C 89 % 1010,8 hPa 0,0 l/m 5,6 km/h (1 Bft) SW 232 0 min 0,000 mm 0,0 UV-I 0 W/m 7,5 C 9,2 C 6,4 km/h (2 Bft) 100,00 %
08.04.2016 01:28 9,2 C 89 % 1010,8 hPa 0,0 l/m 4,4 km/h (1 Bft) W-SW 242 0 min 0,000 mm 0,0 UV-I 0 W/m 7,5 C 9,2 C 6,4 km/h (2 Bft) 95,83 %
08.04.2016 01:29 9,2 C 89 % 1010,8 hPa 0,0 l/m 3,8 km/h (1 Bft) SW 236 0 min 0,000 mm 0,0 UV-I 0 W/m 7,5 C 9,2 C 4,8 km/h (1 Bft) 100,00 %
08.04.2016 01:30 9,2 C 89 % 1010,8 hPa 0,0 l/m 3,2 km/h (1 Bft) SW 236 0 min 0,000 mm 0,0 UV-I 0 W/m 7,5 C 9,2 C 4,8 km/h (1 Bft) 100,00 %
08.04.2016 01:31 9,2 C 89 % 1010,8 hPa 0,0 l/m 4,7 km/h (1 Bft) W-SW 251 0 min 0,000 mm 0,0 UV-I 0 W/m 7,5 C 9,2 C 6,4 km/h (2 Bft) 100,00 %
08.04.2016 01:32 9,1 C 89 % 1010,8 hPa 0,0 l/m 3,6 km/h (1 Bft) W-SW 248 0 min 0,000 mm 0,0 UV-I 0 W/m 7,4 C 9,1 C 4,8 km/h (1 Bft) 100,00 %
08.04.2016 01:33 9,2 C 89 % 1010,8 hPa 0,0 l/m 2,3 km/h (1 Bft) W 270 0 min 0,000 mm 0,0 UV-I 0 W/m 7,5 C 9,2 C 4,8 km/h (1 Bft) 100,00 %
08.04.2016 01:34 9,2 C 89 % 1010,8 hPa 0,0 l/m 4,7 km/h (1 Bft) W-SW 247 0 min 0,000 mm 0,0 UV-I 0 W/m 7,5 C 9,2 C 6,4 km/h (2 Bft) 92,86 %
08.04.2016 01:35 9,2 C 89 % 1010,9 hPa 0,0 l/m 8,4 km/h (2 Bft) W 267 0 min 0,000 mm 0,0 UV-I 0 W/m 7,5 C 7,7 C 11,3 km/h (2 Bft) 100,00 %
08.04.2016 01:36 9,1 C 89 % 1010,8 hPa 0,0 l/m 7,5 km/h (2 Bft) W-SW 254 0 min 0,000 mm 0,0 UV-I 0 W/m 7,4 C 8,3 C 9,7 km/h (2 Bft) 96,55 %
08.04.2016 01:37 9,2 C 89 % 1010,8 hPa 0,0 l/m 4,7 km/h (1 Bft) W 261 0 min 0,000 mm 0,0 UV-I 0 W/m 7,5 C 9,2 C 6,4 km/h (2 Bft) 100,00 %
08.04.2016 01:38 9,2 C 89 % 1010,8 hPa 0,0 l/m 5,1 km/h (1 Bft) W-SW 256 0 min 0,000 mm 0,0 UV-I 0 W/m 7,5 C 9,2 C 6,4 km/h (2 Bft) 96,15 %
08.04.2016 01:39 9,2 C 89 % 1010,8 hPa 0,0 l/m 5,4 km/h (1 Bft) W-SW 252 0 min 0,000 mm 0,0 UV-I 0 W/m 7,5 C 9,2 C 6,4 km/h (2 Bft) 95,24 %
08.04.2016 01:40 9,2 C 89 % 1010,8 hPa 0,0 l/m 4,3 km/h (1 Bft) W 261 0 min 0,000 mm 0,0 UV-I 0 W/m 7,5 C 9,2 C 4,8 km/h (1 Bft) 100,00 %
08.04.2016 01:41 9,1 C 89 % 1010,8 hPa 0,0 l/m 3,6 km/h (1 Bft) W-SW 256 0 min 0,000 mm 0,0 UV-I 0 W/m 7,4 C 9,1 C 6,4 km/h (2 Bft) 91,67 %
08.04.2016 01:42 9,1 C 89 % 1010,8 hPa 0,0 l/m 5,6 km/h (1 Bft) W 265 0 min 0,000 mm 0,0 UV-I 0 W/m 7,4 C 9,1 C 9,7 km/h (2 Bft) 100,00 %
08.04.2016 01:43 9,1 C 89 % 1010,8 hPa 0,0 l/m 5,4 km/h (1 Bft) W 261 0 min 0,000 mm 0,0 UV-I 0 W/m 7,4 C 9,1 C 6,4 km/h (2 Bft) 95,83 %
08.04.2016 01:44 9,1 C 89 % 1010,8 hPa 0,0 l/m 5,1 km/h (1 Bft) W 265 0 min 0,000 mm 0,0 UV-I 0 W/m 7,4 C 9,1 C 6,4 km/h (2 Bft) 96,15 %
08.04.2016 01:45 9,1 C 90 % 1010,9 hPa 0,0 l/m 6,1 km/h (2 Bft) W-SW 238 0 min 0,000 mm 0,0 UV-I 0 W/m 7,5 C 9,1 C 8,0 km/h (2 Bft) 100,00 %
08.04.2016 01:46 9,1 C 90 % 1010,8 hPa 0,0 l/m 7,3 km/h (2 Bft) W-SW 257 0 min 0,000 mm 0,0 UV-I 0 W/m 7,5 C 8,4 C 11,3 km/h (2 Bft) 96,67 %
08.04.2016 01:47 9,1 C 90 % 1010,8 hPa 0,0 l/m 7,0 km/h (2 Bft) W-SW 257 0 min 0,000 mm 0,0 UV-I 0 W/m 7,5 C 8,7 C 9,7 km/h (2 Bft) 96,15 %
08.04.2016 01:48 9,1 C 90 % 1010,8 hPa 0,0 l/m 6,4 km/h (2 Bft) W 275 0 min 0,000 mm 0,0 UV-I 0 W/m 7,5 C 9,1 C 9,7 km/h (2 Bft) 93,10 %
08.04.2016 01:49 9,1 C 90 % 1010,8 hPa 0,0 l/m 7,3 km/h (2 Bft) W 266 0 min 0,000 mm 0,0 UV-I 0 W/m 7,5 C 8,4 C 11,3 km/h (2 Bft) 100,00 %
08.04.2016 01:50 9,1 C 90 % 1010,8 hPa 0,0 l/m 5,7 km/h (1 Bft) W 266 0 min 0,000 mm 0,0 UV-I 0 W/m 7,5 C 9,1 C 9,7 km/h (2 Bft) 96,30 %
08.04.2016 01:51 9,1 C 90 % 1010,8 hPa 0,0 l/m 6,3 km/h (2 Bft) W 262 0 min 0,000 mm 0,0 UV-I 0 W/m 7,5 C 9,1 C 9,7 km/h (2 Bft) 96,15 %
08.04.2016 01:52 9,1 C 90 % 1010,8 hPa 0,0 l/m 8,0 km/h (2 Bft) W-SW 238 0 min 0,000 mm 0,0 UV-I 0 W/m 7,5 C 7,9 C 11,3 km/h (2 Bft) 100,00 %
08.04.2016 01:53 9,1 C 90 % 1010,8 hPa 0,0 l/m 6,1 km/h (2 Bft) W-SW 252 0 min 0,000 mm 0,0 UV-I 0 W/m 7,5 C 9,1 C 8,0 km/h (2 Bft) 93,33 %
08.04.2016 01:54 9,1 C 90 % 1010,7 hPa 0,0 l/m 7,7 km/h (2 Bft) W-SW 248 0 min 0,000 mm 0,0 UV-I 0 W/m 7,5 C 8,1 C 12,9 km/h (3 Bft) 100,00 %
08.04.2016 01:55 9,1 C 90 % 1010,7 hPa 0,0 l/m 7,2 km/h (2 Bft) W 261 0 min 0,000 mm 0,0 UV-I 0 W/m 7,5 C 8,5 C 9,7 km/h (2 Bft) 94,12 %
08.04.2016 01:56 9,1 C 90 % 1010,7 hPa 0,0 l/m 8,0 km/h (2 Bft) W-SW 256 0 min 0,000 mm 0,0 UV-I 0 W/m 7,5 C 7,9 C 11,3 km/h (2 Bft) 100,00 %
08.04.2016 01:57 9,1 C 90 % 1010,7 hPa 0,0 l/m 9,2 km/h (2 Bft) W-SW 254 0 min 0,000 mm 0,0 UV-I 0 W/m 7,5 C 7,1 C 11,3 km/h (2 Bft) 95,65 %
08.04.2016 01:58 9,1 C 90 % 1010,7 hPa 0,0 l/m 8,7 km/h (2 Bft) W 261 0 min 0,000 mm 0,0 UV-I 0 W/m 7,5 C 7,4 C 11,3 km/h (2 Bft) 100,00 %
08.04.2016 01:59 9,1 C 90 % 1010,7 hPa 0,0 l/m 6,8 km/h (2 Bft) W 273 0 min 0,000 mm 0,0 UV-I 0 W/m 7,5 C 8,8 C 11,3 km/h (2 Bft) 100,00 %
08.04.2016 02:00 9,1 C 90 % 1010,7 hPa 0,0 l/m 7,4 km/h (2 Bft) W-NW 282 0 min 0,000 mm 0,0 UV-I 0 W/m 7,5 C 8,3 C 11,3 km/h (2 Bft) 96,30 %
08.04.2016 02:01 9,1 C 90 % 1010,7 hPa 0,0 l/m 5,8 km/h (2 Bft) W-SW 250 0 min 0,000 mm 0,0 UV-I 0 W/m 7,5 C 9,1 C 8,0 km/h (2 Bft) 100,00 %
08.04.2016 02:02 9,1 C 90 % 1010,7 hPa 0,0 l/m 5,9 km/h (2 Bft) W 265 0 min 0,000 mm 0,0 UV-I 0 W/m 7,5 C 9,1 C 8,0 km/h (2 Bft) 100,00 %
08.04.2016 02:03 9,1 C 90 % 1010,7 hPa 0,0 l/m 7,7 km/h (2 Bft) W 259 0 min 0,000 mm 0,0 UV-I 0 W/m 7,5 C 8,1 C 12,9 km/h (3 Bft) 96,55 %
08.04.2016 02:04 9,1 C 90 % 1010,7 hPa 0,0 l/m 9,3 km/h (2 Bft) W 260 0 min 0,000 mm 0,0 UV-I 0 W/m 7,5 C 7,0 C 11,3 km/h (2 Bft) 88,89 %
08.04.2016 02:05 9,1 C 90 % 1010,7 hPa 0,0 l/m 7,5 km/h (2 Bft) W 259 0 min 0,000 mm 0,0 UV-I 0 W/m 7,5 C 8,3 C 11,3 km/h (2 Bft) 100,00 %
08.04.2016 02:06 9,1 C 90 % 1010,7 hPa 0,0 l/m 7,5 km/h (2 Bft) W-SW 249 0 min 0,000 mm 0,0 UV-I 0 W/m 7,5 C 8,3 C 9,7 km/h (2 Bft) 96,30 %
08.04.2016 02:07 9,1 C 90 % 1010,6 hPa 0,0 l/m 6,0 km/h (2 Bft) W 269 0 min 0,000 mm 0,0 UV-I 0 W/m 7,5 C 9,1 C 8,0 km/h (2 Bft) 100,00 %
08.04.2016 02:08 9,1 C 90 % 1010,6 hPa 0,0 l/m 5,9 km/h (2 Bft) W-SW 250 0 min 0,000 mm 0,0 UV-I 0 W/m 7,5 C 9,1 C 11,3 km/h (2 Bft) 92,86 %
08.04.2016 02:09 9,1 C 90 % 1010,6 hPa 0,0 l/m 10,6 km/h (2 Bft) W-SW 250 0 min 0,000 mm 0,0 UV-I 0 W/m 7,5 C 6,2 C 14,5 km/h (3 Bft) 100,00 %
08.04.2016 02:10 9,1 C 90 % 1010,7 hPa 0,0 l/m 6,9 km/h (2 Bft) W 262 0 min 0,000 mm 0,0 UV-I 0 W/m 7,5 C 8,7 C 9,7 km/h (2 Bft) 100,00 %
08.04.2016 02:11 9,1 C 90 % 1010,7 hPa 0,0 l/m 7,1 km/h (2 Bft) W 271 0 min 0,000 mm 0,0 UV-I 0 W/m 7,5 C 8,6 C 11,3 km/h (2 Bft) 100,00 %
08.04.2016 02:12 9,1 C 90 % 1010,7 hPa 0,0 l/m 6,4 km/h (2 Bft) W 265 0 min 0,000 mm 0,0 UV-I 0 W/m 7,5 C 9,1 C 9,7 km/h (2 Bft) 100,00 %
08.04.2016 02:13 9,1 C 90 % 1010,6 hPa 0,0 l/m 5,7 km/h (1 Bft) W 264 0 min 0,000 mm 0,0 UV-I 0 W/m 7,5 C 9,1 C 9,7 km/h (2 Bft) 96,30 %
08.04.2016 02:14 9,1 C 90 % 1010,6 hPa 0,0 l/m 5,4 km/h (1 Bft) W 278 0 min 0,000 mm 0,0 UV-I 0 W/m 7,5 C 9,1 C 9,7 km/h (2 Bft) 100,00 %
08.04.2016 02:15 9,1 C 90 % 1010,6 hPa 0,0 l/m 3,1 km/h (1 Bft) W-NW 297 0 min 0,000 mm 0,0 UV-I 0 W/m 7,5 C 9,1 C 4,8 km/h (1 Bft) 95,83 %
08.04.2016 02:16 9,1 C 90 % 1010,6 hPa 0,0 l/m 3,4 km/h (1 Bft) W 277 0 min 0,000 mm 0,0 UV-I 0 W/m 7,5 C 9,1 C 6,4 km/h (2 Bft) 100,00 %
08.04.2016 02:17 9,1 C 90 % 1010,7 hPa 0,0 l/m 2,7 km/h (1 Bft) W 279 0 min 0,000 mm 0,0 UV-I 0 W/m 7,5 C 9,1 C 4,8 km/h (1 Bft) 100,00 %
08.04.2016 02:18 9,0 C 90 % 1010,7 hPa 0,0 l/m 2,3 km/h (1 Bft) W 279 0 min 0,000 mm 0,0 UV-I 0 W/m 7,4 C 9,0 C 3,2 km/h (1 Bft) 100,00 %
08.04.2016 02:19 9,0 C 91 % 1010,7 hPa 0,0 l/m 1,4 km/h (1 Bft) W 279 0 min 0,000 mm 0,0 UV-I 0 W/m 7,6 C 9,0 C 3,2 km/h (1 Bft) 100,00 %
08.04.2016 02:20 9,0 C 91 % 1010,6 hPa 0,0 l/m 1,6 km/h (1 Bft) W 279 0 min 0,000 mm 0,0 UV-I 0 W/m 7,6 C 9,0 C 3,2 km/h (1 Bft) 100,00 %
08.04.2016 02:21 9,0 C 91 % 1010,7 hPa 0,0 l/m 2,1 km/h (1 Bft) W 279 0 min 0,000 mm 0,0 UV-I 0 W/m 7,6 C 9,0 C 3,2 km/h (1 Bft) 100,00 %
08.04.2016 02:22 9,0 C 91 % 1010,7 hPa 0,0 l/m 1,3 km/h (1 Bft) W 279 0 min 0,000 mm 0,0 UV-I 0 W/m 7,6 C 9,0 C 3,2 km/h (1 Bft) 100,00 %
08.04.2016 02:23 9,0 C 91 % 1010,7 hPa 0,0 l/m 5,0 km/h (1 Bft) W 268 0 min 0,000 mm 0,0 UV-I 0 W/m 7,6 C 9,0 C 9,7 km/h (2 Bft) 100,00 %
08.04.2016 02:24 8,9 C 91 % 1010,7 hPa 0,0 l/m 2,8 km/h (1 Bft) W 276 0 min 0,000 mm 0,0 UV-I 0 W/m 7,5 C 8,9 C 4,8 km/h (1 Bft) 100,00 %
08.04.2016 02:25 8,9 C 91 % 1010,7 hPa 0,0 l/m 6,6 km/h (2 Bft) W 262 0 min 0,000 mm 0,0 UV-I 0 W/m 7,5 C 8,8 C 9,7 km/h (2 Bft) 100,00 %
08.04.2016 02:26 8,9 C 91 % 1010,6 hPa 0,0 l/m 4,2 km/h (1 Bft) W 269 0 min 0,000 mm 0,0 UV-I 0 W/m 7,5 C 8,9 C 6,4 km/h (2 Bft) 100,00 %
08.04.2016 02:27 8,9 C 91 % 1010,7 hPa 0,0 l/m 3,4 km/h (1 Bft) W-SW 258 0 min 0,000 mm 0,0 UV-I 0 W/m 7,5 C 8,9 C 4,8 km/h (1 Bft) 100,00 %
08.04.2016 02:28 8,9 C 91 % 1010,7 hPa 0,0 l/m 5,6 km/h (1 Bft) W-NW 285 0 min 0,000 mm 0,0 UV-I 0 W/m 7,5 C 8,9 C 9,7 km/h (2 Bft) 100,00 %
08.04.2016 02:29 8,9 C 91 % 1010,7 hPa 0,0 l/m 4,8 km/h (1 Bft) W 268 0 min 0,000 mm 0,0 UV-I 0 W/m 7,5 C 8,9 C 6,4 km/h (2 Bft) 100,00 %
08.04.2016 02:30 8,8 C 92 % 1010,7 hPa 0,0 l/m 5,5 km/h (1 Bft) W 268 0 min 0,000 mm 0,0 UV-I 0 W/m 7,6 C 8,8 C 11,3 km/h (2 Bft) 100,00 %
08.04.2016 02:31 8,8 C 92 % 1010,7 hPa 0,0 l/m 5,8 km/h (2 Bft) W-SW 254 0 min 0,000 mm 0,0 UV-I 0 W/m 7,6 C 8,8 C 9,7 km/h (2 Bft) 100,00 %
08.04.2016 02:32 8,8 C 92 % 1010,7 hPa 0,0 l/m 6,4 km/h (2 Bft) W-SW 252 0 min 0,000 mm 0,0 UV-I 0 W/m 7,6 C 8,8 C 9,7 km/h (2 Bft) 100,00 %
08.04.2016 02:33 8,8 C 92 % 1010,7 hPa 0,0 l/m 5,0 km/h (1 Bft) W-SW 258 0 min 0,000 mm 0,0 UV-I 0 W/m 7,6 C 8,8 C 6,4 km/h (2 Bft) 100,00 %
08.04.2016 02:34 8,8 C 92 % 1010,6 hPa 0,2 l/m 8,4 km/h (2 Bft) NW 325 0 min 0,000 mm 0,0 UV-I 0 W/m 7,6 C 7,3 C 12,9 km/h (3 Bft) 100,00 %
08.04.2016 02:35 8,8 C 92 % 1010,7 hPa 0,0 l/m 4,5 km/h (1 Bft) W-SW 244 0 min 0,000 mm 0,0 UV-I 0 W/m 7,6 C 8,8 C 8,0 km/h (2 Bft) 100,00 %
08.04.2016 02:36 8,7 C 92 % 1010,6 hPa 0,0 l/m 3,1 km/h (1 Bft) W 265 0 min 0,000 mm 0,0 UV-I 0 W/m 7,5 C 8,7 C 4,8 km/h (1 Bft) 96,30 %
08.04.2016 02:37 8,7 C 92 % 1010,6 hPa 0,0 l/m 2,7 km/h (1 Bft) W 265 0 min 0,000 mm 0,0 UV-I 0 W/m 7,5 C 8,7 C 4,8 km/h (1 Bft) 100,00 %
08.04.2016 02:38 8,7 C 92 % 1010,6 hPa 0,0 l/m 6,5 km/h (2 Bft) W 267 0 min 0,000 mm 0,0 UV-I 0 W/m 7,5 C 8,6 C 11,3 km/h (2 Bft) 100,00 %
08.04.2016 02:39 8,7 C 92 % 1010,6 hPa 0,0 l/m 4,4 km/h (1 Bft) W 265 0 min 0,000 mm 0,0 UV-I 0 W/m 7,5 C 8,7 C 6,4 km/h (2 Bft) 100,00 %
08.04.2016 02:40 8,7 C 93 % 1010,7 hPa 0,0 l/m 3,1 km/h (1 Bft) W 271 0 min 0,000 mm 0,0 UV-I 0 W/m 7,6 C 8,7 C 4,8 km/h (1 Bft) 96,30 %
08.04.2016 02:41 8,7 C 93 % 1010,6 hPa 0,0 l/m 5,0 km/h (1 Bft) W 264 0 min 0,000 mm 0,0 UV-I 0 W/m 7,6 C 8,7 C 6,4 km/h (2 Bft) 100,00 %
08.04.2016 02:42 8,7 C 93 % 1010,6 hPa 0,0 l/m 3,8 km/h (1 Bft) W 263 0 min 0,000 mm 0,0 UV-I 0 W/m 7,6 C 8,7 C 6,4 km/h (2 Bft) 100,00 %
08.04.2016 02:43 8,7 C 93 % 1010,6 hPa 0,2 l/m 3,8 km/h (1 Bft) W 265 0 min 0,000 mm 0,0 UV-I 0 W/m 7,6 C 8,7 C 6,4 km/h (2 Bft) 100,00 %
08.04.2016 02:44 8,6 C 93 % 1010,6 hPa 0,0 l/m 4,7 km/h (1 Bft) W 276 0 min 0,000 mm 0,0 UV-I 0 W/m 7,5 C 8,6 C 6,4 km/h (2 Bft) 100,00 %
08.04.2016 02:45 8,6 C 93 % 1010,6 hPa 0,0 l/m 4,4 km/h (1 Bft) W 274 0 min 0,000 mm 0,0 UV-I 0 W/m 7,5 C 8,6 C 4,8 km/h (1 Bft) 100,00 %
08.04.2016 02:46 8,6 C 93 % 1010,6 hPa 0,0 l/m 5,2 km/h (1 Bft) W 273 0 min 0,000 mm 0,0 UV-I 0 W/m 7,5 C 8,6 C 9,7 km/h (2 Bft) 100,00 %
08.04.2016 02:47 8,6 C 93 % 1010,6 hPa 0,0 l/m 6,6 km/h (2 Bft) W 269 0 min 0,000 mm 0,0 UV-I 0 W/m 7,5 C 8,5 C 12,9 km/h (3 Bft) 100,00 %
08.04.2016 02:48 8,6 C 93 % 1010,6 hPa 0,2 l/m 5,2 km/h (1 Bft) W 273 0 min 0,000 mm 0,0 UV-I 0 W/m 7,5 C 8,6 C 9,7 km/h (2 Bft) 100,00 %
08.04.2016 02:49 8,6 C 93 % 1010,6 hPa 0,0 l/m 6,7 km/h (2 Bft) W 261 0 min 0,000 mm 0,0 UV-I 0 W/m 7,5 C 8,4 C 12,9 km/h (3 Bft) 96,30 %
08.04.2016 02:50 8,6 C 93 % 1010,6 hPa 0,0 l/m 5,7 km/h (1 Bft) W-SW 239 0 min 0,000 mm 0,0 UV-I 0 W/m 7,5 C 8,6 C 9,7 km/h (2 Bft) 100,00 %
08.04.2016 02:51 8,6 C 93 % 1010,6 hPa 0,0 l/m 4,9 km/h (1 Bft) W 265 0 min 0,000 mm 0,0 UV-I 0 W/m 7,5 C 8,6 C 6,4 km/h (2 Bft) 100,00 %
08.04.2016 02:52 8,5 C 93 % 1010,6 hPa 0,2 l/m 5,3 km/h (1 Bft) W 261 0 min 0,000 mm 0,0 UV-I 0 W/m 7,4 C 8,5 C 6,4 km/h (2 Bft) 93,33 %
08.04.2016 02:53 8,5 C 93 % 1010,6 hPa 0,0 l/m 5,1 km/h (1 Bft) W 276 0 min 0,000 mm 0,0 UV-I 0 W/m 7,4 C 8,5 C 9,7 km/h (2 Bft) 100,00 %
08.04.2016 02:54 8,5 C 93 % 1010,6 hPa 0,0 l/m 5,8 km/h (2 Bft) W 266 0 min 0,000 mm 0,0 UV-I 0 W/m 7,4 C 8,5 C 9,7 km/h (2 Bft) 100,00 %
08.04.2016 02:55 8,4 C 94 % 1010,7 hPa 0,0 l/m 7,6 km/h (2 Bft) W-SW 256 0 min 0,000 mm 0,0 UV-I 0 W/m 7,5 C 7,5 C 11,3 km/h (2 Bft) 100,00 %
08.04.2016 02:56 8,4 C 94 % 1010,7 hPa 0,0 l/m 7,7 km/h (2 Bft) W-SW 257 0 min 0,000 mm 0,0 UV-I 0 W/m 7,5 C 7,4 C 12,9 km/h (3 Bft) 100,00 %
08.04.2016 02:57 8,4 C 94 % 1010,7 hPa 0,0 l/m 4,6 km/h (1 Bft) W 265 0 min 0,000 mm 0,0 UV-I 0 W/m 7,5 C 8,4 C 6,4 km/h (2 Bft) 100,00 %
08.04.2016 02:58 8,4 C 94 % 1010,7 hPa 0,0 l/m 5,2 km/h (1 Bft) W 274 0 min 0,000 mm 0,0 UV-I 0 W/m 7,5 C 8,4 C 6,4 km/h (2 Bft) 95,65 %
08.04.2016 02:59 8,4 C 94 % 1010,7 hPa 0,0 l/m 5,2 km/h (1 Bft) W 264 0 min 0,000 mm 0,0 UV-I 0 W/m 7,5 C 8,4 C 6,4 km/h (2 Bft) 100,00 %
08.04.2016 03:00 8,4 C 94 % 1010,7 hPa 0,2 l/m 3,6 km/h (1 Bft) W 279 0 min 0,000 mm 0,0 UV-I 0 W/m 7,5 C 8,4 C 6,4 km/h (2 Bft) 100,00 %
08.04.2016 03:01 8,4 C 94 % 1010,7 hPa 0,0 l/m 3,5 km/h (1 Bft) W-NW 285 0 min 0,000 mm 0,0 UV-I 0 W/m 7,5 C 8,4 C 6,4 km/h (2 Bft) 100,00 %
08.04.2016 03:02 8,4 C 94 % 1010,7 hPa 0,0 l/m 3,4 km/h (1 Bft) W 263 0 min 0,000 mm 0,0 UV-I 0 W/m 7,5 C 8,4 C 6,4 km/h (2 Bft) 100,00 %
08.04.2016 03:03 8,3 C 94 % 1010,7 hPa 0,0 l/m 3,8 km/h (1 Bft) W 263 0 min 0,000 mm 0,0 UV-I 0 W/m 7,4 C 8,3 C 4,8 km/h (1 Bft) 100,00 %
08.04.2016 03:04 8,3 C 94 % 1010,7 hPa 0,0 l/m 3,5 km/h (1 Bft) W 263 0 min 0,000 mm 0,0 UV-I 0 W/m 7,4 C 8,3 C 4,8 km/h (1 Bft) 100,00 %
08.04.2016 03:05 8,3 C 94 % 1010,7 hPa 0,2 l/m 3,6 km/h (1 Bft) W-NW 285 0 min 0,000 mm 0,0 UV-I 0 W/m 7,4 C 8,3 C 4,8 km/h (1 Bft) 96,30 %
08.04.2016 03:06 8,3 C 94 % 1010,6 hPa 0,0 l/m 3,4 km/h (1 Bft) W 268 0 min 0,000 mm 0,0 UV-I 0 W/m 7,4 C 8,3 C 4,8 km/h (1 Bft) 95,65 %
08.04.2016 03:07 8,3 C 94 % 1010,6 hPa 0,0 l/m 5,3 km/h (1 Bft) W-SW 258 0 min 0,000 mm 0,0 UV-I 0 W/m 7,4 C 8,3 C 9,7 km/h (2 Bft) 100,00 %
08.04.2016 03:08 8,3 C 94 % 1010,6 hPa 0,0 l/m 4,0 km/h (1 Bft) W-NW 294 0 min 0,000 mm 0,0 UV-I 0 W/m 7,4 C 8,3 C 6,4 km/h (2 Bft) 100,00 %
08.04.2016 03:09 8,3 C 95 % 1010,6 hPa 0,2 l/m 1,5 km/h (1 Bft) W-NW 294 0 min 0,000 mm 0,0 UV-I 0 W/m 7,5 C 8,3 C 3,2 km/h (1 Bft) 100,00 %
08.04.2016 03:10 8,3 C 95 % 1010,6 hPa 0,0 l/m 1,0 km/h (0 Bft) W-NW 294 0 min 0,000 mm 0,0 UV-I 0 W/m 7,5 C 8,3 C 3,2 km/h (1 Bft) 100,00 %
08.04.2016 03:11 8,3 C 95 % 1010,6 hPa 0,0 l/m 4,6 km/h (1 Bft) W 265 0 min 0,000 mm 0,0 UV-I 0 W/m 7,5 C 8,3 C 9,7 km/h (2 Bft) 100,00 %
08.04.2016 03:12 8,3 C 95 % 1010,6 hPa 0,0 l/m 6,6 km/h (2 Bft) W 263 0 min 0,000 mm 0,0 UV-I 0 W/m 7,5 C 8,2 C 11,3 km/h (2 Bft) 100,00 %
08.04.2016 03:13 8,3 C 95 % 1010,6 hPa 0,0 l/m 6,8 km/h (2 Bft) W 278 0 min 0,000 mm 0,0 UV-I 0 W/m 7,5 C 8,0 C 11,3 km/h (2 Bft) 100,00 %
08.04.2016 03:14 8,3 C 95 % 1010,6 hPa 0,0 l/m 3,1 km/h (1 Bft) W 263 0 min 0,000 mm 0,0 UV-I 0 W/m 7,5 C 8,3 C 4,8 km/h (1 Bft) 100,00 %
08.04.2016 03:15 8,3 C 95 % 1010,6 hPa 0,2 l/m 4,5 km/h (1 Bft) W 260 0 min 0,000 mm 0,0 UV-I 0 W/m 7,5 C 8,3 C 8,0 km/h (2 Bft) 100,00 %
08.04.2016 03:16 8,2 C 95 % 1010,6 hPa 0,0 l/m 4,2 km/h (1 Bft) W-NW 301 0 min 0,000 mm 0,0 UV-I 0 W/m 7,4 C 8,2 C 6,4 km/h (2 Bft) 91,67 %
08.04.2016 03:17 8,2 C 95 % 1010,6 hPa 0,0 l/m 4,2 km/h (1 Bft) W-NW 283 0 min 0,000 mm 0,0 UV-I 0 W/m 7,4 C 8,2 C 9,7 km/h (2 Bft) 100,00 %
08.04.2016 03:18 8,2 C 95 % 1010,7 hPa 0,0 l/m 1,7 km/h (1 Bft) W 280 0 min 0,000 mm 0,0 UV-I 0 W/m 7,4 C 8,2 C 3,2 km/h (1 Bft) 100,00 %
08.04.2016 03:19 8,2 C 95 % 1010,7 hPa 0,0 l/m 3,6 km/h (1 Bft) W-NW 294 0 min 0,000 mm 0,0 UV-I 0 W/m 7,4 C 8,2 C 4,8 km/h (1 Bft) 91,30 %
08.04.2016 03:20 8,2 C 95 % 1010,7 hPa 0,0 l/m 6,0 km/h (2 Bft) W-NW 290 0 min 0,000 mm 0,0 UV-I 0 W/m 7,4 C 8,2 C 11,3 km/h (2 Bft) 96,30 %
08.04.2016 03:21 8,2 C 95 % 1010,7 hPa 0,0 l/m 4,8 km/h (1 Bft) W-NW 290 0 min 0,000 mm 0,0 UV-I 0 W/m 7,4 C 8,2 C 6,4 km/h (2 Bft) 100,00 %
08.04.2016 03:22 8,2 C 95 % 1010,7 hPa 0,0 l/m 5,0 km/h (1 Bft) W-SW 257 0 min 0,000 mm 0,0 UV-I 0 W/m 7,4 C 8,2 C 6,4 km/h (2 Bft) 96,30 %
08.04.2016 03:23 8,2 C 95 % 1010,8 hPa 0,0 l/m 4,4 km/h (1 Bft) W 264 0 min 0,000 mm 0,0 UV-I 0 W/m 7,4 C 8,2 C 6,4 km/h (2 Bft) 100,00 %
08.04.2016 03:24 8,1 C 95 % 1010,7 hPa 0,0 l/m 5,9 km/h (2 Bft) W-NW 291 0 min 0,000 mm 0,0 UV-I 0 W/m 7,3 C 8,1 C 9,7 km/h (2 Bft) 92,59 %
08.04.2016 03:25 8,1 C 95 % 1010,7 hPa 0,0 l/m 2,7 km/h (1 Bft) W-NW 291 0 min 0,000 mm 0,0 UV-I 0 W/m 7,3 C 8,1 C 4,8 km/h (1 Bft) 100,00 %
08.04.2016 03:26 8,1 C 95 % 1010,7 hPa 0,0 l/m 4,2 km/h (1 Bft) W 271 0 min 0,000 mm 0,0 UV-I 0 W/m 7,3 C 8,1 C 4,8 km/h (1 Bft) 100,00 %
08.04.2016 03:27 8,1 C 95 % 1010,7 hPa 0,0 l/m 6,2 km/h (2 Bft) W-SW 244 0 min 0,000 mm 0,0 UV-I 0 W/m 7,3 C 8,1 C 11,3 km/h (2 Bft) 100,00 %
08.04.2016 03:28 8,1 C 95 % 1010,7 hPa 0,0 l/m 5,4 km/h (1 Bft) W 265 0 min 0,000 mm 0,0 UV-I 0 W/m 7,3 C 8,1 C 6,4 km/h (2 Bft) 100,00 %
08.04.2016 03:29 8,1 C 95 % 1010,7 hPa 0,0 l/m 4,5 km/h (1 Bft) W 267 0 min 0,000 mm 0,0 UV-I 0 W/m 7,3 C 8,1 C 6,4 km/h (2 Bft) 100,00 %
08.04.2016 03:30 8,1 C 95 % 1010,7 hPa 0,0 l/m 7,0 km/h (2 Bft) W-NW 282 0 min 0,000 mm 0,0 UV-I 0 W/m 7,3 C 7,6 C 11,3 km/h (2 Bft) 100,00 %
08.04.2016 03:31 8,1 C 95 % 1010,7 hPa 0,0 l/m 5,2 km/h (1 Bft) W 267 0 min 0,000 mm 0,0 UV-I 0 W/m 7,3 C 8,1 C 11,3 km/h (2 Bft) 100,00 %
08.04.2016 03:32 8,1 C 95 % 1010,7 hPa 0,0 l/m 6,6 km/h (2 Bft) W 266 0 min 0,000 mm 0,0 UV-I 0 W/m 7,3 C 8,0 C 9,7 km/h (2 Bft) 100,00 %
08.04.2016 03:33 8,1 C 95 % 1010,7 hPa 0,0 l/m 4,9 km/h (1 Bft) W-SW 243 0 min 0,000 mm 0,0 UV-I 0 W/m 7,3 C 8,1 C 8,0 km/h (2 Bft) 100,00 %
08.04.2016 03:34 8,1 C 94 % 1010,8 hPa 0,0 l/m 4,0 km/h (1 Bft) W-SW 249 0 min 0,000 mm 0,0 UV-I 0 W/m 7,2 C 8,1 C 4,8 km/h (1 Bft) 95,65 %
08.04.2016 03:35 8,1 C 95 % 1010,8 hPa 0,0 l/m 2,9 km/h (1 Bft) NW 324 0 min 0,000 mm 0,0 UV-I 0 W/m 7,3 C 8,1 C 4,8 km/h (1 Bft) 100,00 %
08.04.2016 03:36 8,1 C 95 % 1010,8 hPa 0,0 l/m 6,8 km/h (2 Bft) W 263 0 min 0,000 mm 0,0 UV-I 0 W/m 7,3 C 7,8 C 11,3 km/h (2 Bft) 92,31 %
08.04.2016 03:37 8,0 C 94 % 1010,8 hPa 0,0 l/m 4,5 km/h (1 Bft) W 261 0 min 0,000 mm 0,0 UV-I 0 W/m 7,1 C 8,0 C 6,4 km/h (2 Bft) 100,00 %
08.04.2016 03:38 8,0 C 94 % 1010,8 hPa 0,0 l/m 4,3 km/h (1 Bft) W-SW 246 0 min 0,000 mm 0,0 UV-I 0 W/m 7,1 C 8,0 C 6,4 km/h (2 Bft) 96,15 %
08.04.2016 03:39 8,0 C 94 % 1010,8 hPa 0,0 l/m 3,8 km/h (1 Bft) W-SW 250 0 min 0,000 mm 0,0 UV-I 0 W/m 7,1 C 8,0 C 4,8 km/h (1 Bft) 95,83 %
08.04.2016 03:40 8,0 C 95 % 1010,8 hPa 0,0 l/m 2,1 km/h (1 Bft) W-SW 250 0 min 0,000 mm 0,0 UV-I 0 W/m 7,2 C 8,0 C 4,8 km/h (1 Bft) 100,00 %
08.04.2016 03:41 8,0 C 95 % 1010,8 hPa 0,0 l/m 3,9 km/h (1 Bft) W 277 0 min 0,000 mm 0,0 UV-I 0 W/m 7,2 C 8,0 C 6,4 km/h (2 Bft) 93,33 %
08.04.2016 03:42 8,0 C 95 % 1010,8 hPa 0,0 l/m 2,3 km/h (1 Bft) W 279 0 min 0,000 mm 0,0 UV-I 0 W/m 7,2 C 8,0 C 3,2 km/h (1 Bft) 97,37 %
08.04.2016 03:43 8,0 C 95 % 1010,7 hPa 0,0 l/m 5,0 km/h (1 Bft) W-SW 257 0 min 0,000 mm 0,0 UV-I 0 W/m 7,2 C 8,0 C 6,4 km/h (2 Bft) 95,83 %
08.04.2016 03:44 8,0 C 95 % 1010,7 hPa 0,0 l/m 4,2 km/h (1 Bft) W 260 0 min 0,000 mm 0,0 UV-I 0 W/m 7,2 C 8,0 C 4,8 km/h (1 Bft) 95,65 %
08.04.2016 03:45 8,0 C 95 % 1010,7 hPa 0,0 l/m 3,0 km/h (1 Bft) W 260 0 min 0,000 mm 0,0 UV-I 0 W/m 7,2 C 8,0 C 4,8 km/h (1 Bft) 100,00 %
08.04.2016 03:46 8,0 C 95 % 1010,7 hPa 0,0 l/m 2,9 km/h (1 Bft) W 260 0 min 0,000 mm 0,0 UV-I 0 W/m 7,2 C 8,0 C 4,8 km/h (1 Bft) 95,83 %
08.04.2016 03:47 8,0 C 95 % 1010,6 hPa 0,0 l/m 2,5 km/h (1 Bft) W 260 0 min 0,000 mm 0,0 UV-I 0 W/m 7,2 C 8,0 C 3,2 km/h (1 Bft) 100,00 %
08.04.2016 03:48 7,9 C 95 % 1010,6 hPa 0,0 l/m 1,6 km/h (1 Bft) W 260 0 min 0,000 mm 0,0 UV-I 0 W/m 7,1 C 7,9 C 3,2 km/h (1 Bft) 95,83 %
08.04.2016 03:49 7,9 C 95 % 1010,6 hPa 0,0 l/m 0,6 km/h (0 Bft) W 260 0 min 0,000 mm 0,0 UV-I 0 W/m 7,1 C 7,9 C 1,6 km/h (1 Bft) 100,00 %
08.04.2016 03:50 7,9 C 95 % 1010,5 hPa 0,0 l/m 3,5 km/h (1 Bft) W 269 0 min 0,000 mm 0,0 UV-I 0 W/m 7,1 C 7,9 C 6,4 km/h (2 Bft) 88,89 %
08.04.2016 03:51 7,9 C 95 % 1010,6 hPa 0,0 l/m 5,0 km/h (1 Bft) W-SW 247 0 min 0,000 mm 0,0 UV-I 0 W/m 7,1 C 7,9 C 6,4 km/h (2 Bft) 98,70 %
08.04.2016 03:52 7,9 C 95 % 1010,5 hPa 0,0 l/m 4,8 km/h (1 Bft) W 267 0 min 0,000 mm 0,0 UV-I 0 W/m 7,1 C 7,9 C 8,0 km/h (2 Bft) 97,73 %
08.04.2016 03:53 7,9 C 95 % 1010,5 hPa 0,0 l/m 3,9 km/h (1 Bft) W 278 0 min 0,000 mm 0,0 UV-I 0 W/m 7,1 C 7,9 C 6,4 km/h (2 Bft) 96,15 %
08.04.2016 03:54 7,9 C 95 % 1010,5 hPa 0,0 l/m 5,2 km/h (1 Bft) W 263 0 min 0,000 mm 0,0 UV-I 0 W/m 7,1 C 7,9 C 6,4 km/h (2 Bft) 100,00 %
08.04.2016 03:55 7,9 C 95 % 1010,5 hPa 0,0 l/m 6,8 km/h (2 Bft) W 277 0 min 0,000 mm 0,0 UV-I 0 W/m 7,1 C 7,6 C 11,3 km/h (2 Bft) 92,86 %
08.04.2016 03:56 7,9 C 95 % 1010,5 hPa 0,0 l/m 4,7 km/h (1 Bft) W 274 0 min 0,000 mm 0,0 UV-I 0 W/m 7,1 C 7,9 C 9,7 km/h (2 Bft) 100,00 %
08.04.2016 03:57 7,9 C 95 % 1010,5 hPa 0,0 l/m 5,9 km/h (2 Bft) W 277 0 min 0,000 mm 0,0 UV-I 0 W/m 7,1 C 7,9 C 6,4 km/h (2 Bft) 95,65 %
08.04.2016 03:58 7,8 C 95 % 1010,5 hPa 0,0 l/m 6,1 km/h (2 Bft) W 273 0 min 0,000 mm 0,0 UV-I 0 W/m 7,0 C 7,8 C 9,7 km/h (2 Bft) 100,00 %
08.04.2016 03:59 7,9 C 95 % 1010,5 hPa 0,0 l/m 6,6 km/h (2 Bft) SW 221 0 min 0,000 mm 0,0 UV-I 0 W/m 7,1 C 7,8 C 9,7 km/h (2 Bft) 95,65 %
08.04.2016 04:00 7,8 C 95 % 1010,5 hPa 0,0 l/m 7,9 km/h (2 Bft) W-SW 248 0 min 0,000 mm 0,0 UV-I 0 W/m 7,0 C 6,6 C 11,3 km/h (2 Bft) 100,00 %
08.04.2016 04:01 7,8 C 95 % 1010,5 hPa 0,0 l/m 6,6 km/h (2 Bft) W-SW 252 0 min 0,000 mm 0,0 UV-I 0 W/m 7,0 C 7,7 C 8,0 km/h (2 Bft) 100,00 %
08.04.2016 04:02 7,8 C 95 % 1010,5 hPa 0,0 l/m 6,3 km/h (2 Bft) SW 214 0 min 0,000 mm 0,0 UV-I 0 W/m 7,0 C 7,8 C 8,0 km/h (2 Bft) 100,00 %
08.04.2016 04:03 7,9 C 95 % 1010,6 hPa 0,0 l/m 5,4 km/h (1 Bft) W-SW 250 0 min 0,000 mm 0,0 UV-I 0 W/m 7,1 C 7,9 C 9,7 km/h (2 Bft) 96,15 %
08.04.2016 04:04 7,9 C 95 % 1010,6 hPa 0,0 l/m 4,5 km/h (1 Bft) SW 227 0 min 0,000 mm 0,0 UV-I 0 W/m 7,1 C 7,9 C 6,4 km/h (2 Bft) 91,67 %
08.04.2016 04:05 7,9 C 95 % 1010,5 hPa 0,0 l/m 4,2 km/h (1 Bft) W 263 0 min 0,000 mm 0,0 UV-I 0 W/m 7,1 C 7,9 C 6,4 km/h (2 Bft) 100,00 %
08.04.2016 04:06 7,9 C 95 % 1010,5 hPa 0,0 l/m 3,8 km/h (1 Bft) W-SW 246 0 min 0,000 mm 0,0 UV-I 0 W/m 7,1 C 7,9 C 4,8 km/h (1 Bft) 95,65 %
08.04.2016 04:07 7,9 C 95 % 1010,5 hPa 0,0 l/m 4,6 km/h (1 Bft) SW 229 0 min 0,000 mm 0,0 UV-I 0 W/m 7,1 C 7,9 C 9,7 km/h (2 Bft) 96,30 %
08.04.2016 04:08 7,9 C 95 % 1010,5 hPa 0,0 l/m 6,7 km/h (2 Bft) W-SW 254 0 min 0,000 mm 0,0 UV-I 0 W/m 7,1 C 7,7 C 11,3 km/h (2 Bft) 92,86 %
08.04.2016 04:09 7,9 C 95 % 1010,5 hPa 0,0 l/m 6,1 km/h (2 Bft) W 261 0 min 0,000 mm 0,0 UV-I 0 W/m 7,1 C 7,9 C 8,0 km/h (2 Bft) 96,67 %
08.04.2016 04:10 7,9 C 95 % 1010,5 hPa 0,0 l/m 7,7 km/h (2 Bft) W 267 0 min 0,000 mm 0,0 UV-I 0 W/m 7,1 C 6,9 C 9,7 km/h (2 Bft) 100,00 %
08.04.2016 04:11 7,9 C 95 % 1010,5 hPa 0,0 l/m 5,0 km/h (1 Bft) W 259 0 min 0,000 mm 0,0 UV-I 0 W/m 7,1 C 7,9 C 6,4 km/h (2 Bft) 95,83 %
08.04.2016 04:12 7,8 C 95 % 1010,5 hPa 0,0 l/m 5,0 km/h (1 Bft) W 259 0 min 0,000 mm 0,0 UV-I 0 W/m 7,0 C 7,8 C 6,4 km/h (2 Bft) 100,00 %
08.04.2016 04:13 7,9 C 95 % 1010,5 hPa 0,0 l/m 3,4 km/h (1 Bft) W 259 0 min 0,000 mm 0,0 UV-I 0 W/m 7,1 C 7,9 C 4,8 km/h (1 Bft) 95,83 %
08.04.2016 04:14 7,8 C 95 % 1010,5 hPa 0,0 l/m 4,4 km/h (1 Bft) W 263 0 min 0,000 mm 0,0 UV-I 0 W/m 7,0 C 7,8 C 6,4 km/h (2 Bft) 91,30 %
08.04.2016 04:15 7,9 C 95 % 1010,5 hPa 0,0 l/m 6,0 km/h (2 Bft) W 264 0 min 0,000 mm 0,0 UV-I 0 W/m 7,1 C 7,9 C 11,3 km/h (2 Bft) 100,00 %
08.04.2016 04:16 7,8 C 95 % 1010,5 hPa 0,0 l/m 4,7 km/h (1 Bft) W-SW 252 0 min 0,000 mm 0,0 UV-I 0 W/m 7,0 C 7,8 C 6,4 km/h (2 Bft) 100,00 %
08.04.2016 04:17 7,9 C 95 % 1010,5 hPa 0,0 l/m 7,3 km/h (2 Bft) W 261 0 min 0,000 mm 0,0 UV-I 0 W/m 7,1 C 7,2 C 11,3 km/h (2 Bft) 93,33 %
08.04.2016 04:18 7,8 C 95 % 1010,4 hPa 0,0 l/m 6,8 km/h (2 Bft) W 263 0 min 0,000 mm 0,0 UV-I 0 W/m 7,0 C 7,5 C 11,3 km/h (2 Bft) 100,00 %
08.04.2016 04:19 7,8 C 95 % 1010,4 hPa 0,0 l/m 4,5 km/h (1 Bft) W-SW 253 0 min 0,000 mm 0,0 UV-I 0 W/m 7,0 C 7,8 C 8,0 km/h (2 Bft) 100,00 %
08.04.2016 04:20 7,8 C 95 % 1010,4 hPa 0,0 l/m 4,5 km/h (1 Bft) W 259 0 min 0,000 mm 0,0 UV-I 0 W/m 7,0 C 7,8 C 6,4 km/h (2 Bft) 91,30 %
08.04.2016 04:21 7,8 C 95 % 1010,4 hPa 0,0 l/m 5,9 km/h (2 Bft) W-NW 283 0 min 0,000 mm 0,0 UV-I 0 W/m 7,0 C 7,8 C 9,7 km/h (2 Bft) 100,00 %
08.04.2016 04:22 7,8 C 95 % 1010,4 hPa 0,0 l/m 7,3 km/h (2 Bft) W-SW 253 0 min 0,000 mm 0,0 UV-I 0 W/m 7,0 C 7,1 C 11,3 km/h (2 Bft) 100,00 %
08.04.2016 04:23 7,8 C 95 % 1010,4 hPa 0,0 l/m 6,4 km/h (2 Bft) W-SW 250 0 min 0,000 mm 0,0 UV-I 0 W/m 7,0 C 7,8 C 9,7 km/h (2 Bft) 100,00 %
08.04.2016 04:24 7,8 C 95 % 1010,4 hPa 0,0 l/m 5,7 km/h (1 Bft) W 259 0 min 0,000 mm 0,0 UV-I 0 W/m 7,0 C 7,8 C 9,7 km/h (2 Bft) 100,00 %
08.04.2016 04:25 7,8 C 95 % 1010,4 hPa 0,0 l/m 5,6 km/h (1 Bft) W-SW 247 0 min 0,000 mm 0,0 UV-I 0 W/m 7,0 C 7,8 C 8,0 km/h (2 Bft) 100,00 %
08.04.2016 04:26 7,8 C 95 % 1010,4 hPa 0,0 l/m 7,5 km/h (2 Bft) W-NW 300 0 min 0,000 mm 0,0 UV-I 0 W/m 7,0 C 6,9 C 12,9 km/h (3 Bft) 100,00 %
08.04.2016 04:27 7,8 C 95 % 1010,3 hPa 0,0 l/m 3,4 km/h (1 Bft) W 262 0 min 0,000 mm 0,0 UV-I 0 W/m 7,0 C 7,8 C 6,4 km/h (2 Bft) 100,00 %
08.04.2016 04:28 7,8 C 95 % 1010,4 hPa 0,0 l/m 5,3 km/h (1 Bft) W-SW 254 0 min 0,000 mm 0,0 UV-I 0 W/m 7,0 C 7,8 C 6,4 km/h (2 Bft) 100,00 %
08.04.2016 04:29 7,8 C 95 % 1010,4 hPa 0,0 l/m 5,2 km/h (1 Bft) W 271 0 min 0,000 mm 0,0 UV-I 0 W/m 7,0 C 7,8 C 8,0 km/h (2 Bft) 100,00 %
08.04.2016 04:30 7,8 C 95 % 1010,4 hPa 0,0 l/m 4,2 km/h (1 Bft) W 271 0 min 0,000 mm 0,0 UV-I 0 W/m 7,0 C 7,8 C 6,4 km/h (2 Bft) 100,00 %
08.04.2016 04:31 7,8 C 95 % 1010,4 hPa 0,0 l/m 6,4 km/h (2 Bft) W-NW 286 0 min 0,000 mm 0,0 UV-I 0 W/m 7,0 C 7,8 C 12,9 km/h (3 Bft) 95,65 %
08.04.2016 04:32 7,8 C 95 % 1010,4 hPa 0,0 l/m 6,2 km/h (2 Bft) W-SW 258 0 min 0,000 mm 0,0 UV-I 0 W/m 7,0 C 7,8 C 12,9 km/h (3 Bft) 100,00 %
08.04.2016 04:33 7,8 C 95 % 1010,4 hPa 0,0 l/m 4,8 km/h (1 Bft) W 265 0 min 0,000 mm 0,0 UV-I 0 W/m 7,0 C 7,8 C 6,4 km/h (2 Bft) 100,00 %
08.04.2016 04:34 7,8 C 95 % 1010,5 hPa 0,0 l/m 4,2 km/h (1 Bft) W 272 0 min 0,000 mm 0,0 UV-I 0 W/m 7,0 C 7,8 C 6,4 km/h (2 Bft) 100,00 %
08.04.2016 04:35 7,8 C 95 % 1010,4 hPa 0,0 l/m 8,1 km/h (2 Bft) W 259 0 min 0,000 mm 0,0 UV-I 0 W/m 7,0 C 6,5 C 11,3 km/h (2 Bft) 100,00 %
08.04.2016 04:36 7,7 C 95 % 1010,4 hPa 0,0 l/m 5,7 km/h (1 Bft) W 281 0 min 0,000 mm 0,0 UV-I 0 W/m 7,0 C 7,7 C 6,4 km/h (2 Bft) 100,00 %
08.04.2016 04:37 7,7 C 95 % 1010,4 hPa 0,0 l/m 5,1 km/h (1 Bft) W-SW 254 0 min 0,000 mm 0,0 UV-I 0 W/m 7,0 C 7,7 C 6,4 km/h (2 Bft) 100,00 %
08.04.2016 04:38 7,7 C 95 % 1010,4 hPa 0,0 l/m 4,6 km/h (1 Bft) W 274 0 min 0,000 mm 0,0 UV-I 0 W/m 7,0 C 7,7 C 6,4 km/h (2 Bft) 96,30 %
08.04.2016 04:39 7,7 C 95 % 1010,4 hPa 0,0 l/m 5,3 km/h (1 Bft) W-SW 244 0 min 0,000 mm 0,0 UV-I 0 W/m 7,0 C 7,7 C 6,4 km/h (2 Bft) 100,00 %
08.04.2016 04:40 7,7 C 95 % 1010,3 hPa 0,0 l/m 6,8 km/h (2 Bft) W-SW 241 0 min 0,000 mm 0,0 UV-I 0 W/m 7,0 C 7,4 C 12,9 km/h (3 Bft) 100,00 %
08.04.2016 04:41 7,7 C 95 % 1010,4 hPa 0,0 l/m 7,3 km/h (2 Bft) W 261 0 min 0,000 mm 0,0 UV-I 0 W/m 7,0 C 7,0 C 11,3 km/h (2 Bft) 100,00 %
08.04.2016 04:42 7,7 C 95 % 1010,3 hPa 0,0 l/m 4,6 km/h (1 Bft) W 266 0 min 0,000 mm 0,0 UV-I 0 W/m 7,0 C 7,7 C 9,7 km/h (2 Bft) 100,00 %
08.04.2016 04:43 7,7 C 95 % 1010,4 hPa 0,0 l/m 4,3 km/h (1 Bft) W 264 0 min 0,000 mm 0,0 UV-I 0 W/m 7,0 C 7,7 C 6,4 km/h (2 Bft) 100,00 %
08.04.2016 04:44 7,7 C 95 % 1010,4 hPa 0,0 l/m 5,1 km/h (1 Bft) W 267 0 min 0,000 mm 0,0 UV-I 0 W/m 7,0 C 7,7 C 9,7 km/h (2 Bft) 100,00 %
08.04.2016 04:45 7,7 C 95 % 1010,4 hPa 0,0 l/m 7,5 km/h (2 Bft) W 265 0 min 0,000 mm 0,0 UV-I 0 W/m 7,0 C 6,8 C 11,3 km/h (2 Bft) 100,00 %
08.04.2016 04:46 7,7 C 95 % 1010,4 hPa 0,0 l/m 6,7 km/h (2 Bft) W 273 0 min 0,000 mm 0,0 UV-I 0 W/m 7,0 C 7,5 C 9,7 km/h (2 Bft) 100,00 %
08.04.2016 04:47 7,7 C 95 % 1010,4 hPa 0,0 l/m 5,1 km/h (1 Bft) W 261 0 min 0,000 mm 0,0 UV-I 0 W/m 7,0 C 7,7 C 9,7 km/h (2 Bft) 100,00 %
08.04.2016 04:48 7,7 C 95 % 1010,4 hPa 0,0 l/m 5,6 km/h (1 Bft) W 270 0 min 0,000 mm 0,0 UV-I 0 W/m 7,0 C 7,7 C 6,4 km/h (2 Bft) 100,00 %
08.04.2016 04:49 7,7 C 95 % 1010,4 hPa 0,0 l/m 4,9 km/h (1 Bft) W-SW 250 0 min 0,000 mm 0,0 UV-I 0 W/m 7,0 C 7,7 C 8,0 km/h (2 Bft) 100,00 %
08.04.2016 04:50 7,7 C 95 % 1010,4 hPa 0,0 l/m 5,3 km/h (1 Bft) W-SW 257 0 min 0,000 mm 0,0 UV-I 0 W/m 7,0 C 7,7 C 11,3 km/h (2 Bft) 100,00 %
08.04.2016 04:51 7,7 C 95 % 1010,4 hPa 0,0 l/m 6,0 km/h (2 Bft) W-SW 257 0 min 0,000 mm 0,0 UV-I 0 W/m 7,0 C 7,7 C 8,0 km/h (2 Bft) 100,00 %
08.04.2016 04:52 7,7 C 95 % 1010,4 hPa 0,0 l/m 7,2 km/h (2 Bft) W-SW 238 0 min 0,000 mm 0,0 UV-I 0 W/m 7,0 C 7,1 C 9,7 km/h (2 Bft) 100,00 %
08.04.2016 04:53 7,7 C 95 % 1010,4 hPa 0,0 l/m 6,9 km/h (2 Bft) W 275 0 min 0,000 mm 0,0 UV-I 0 W/m 7,0 C 7,3 C 11,3 km/h (2 Bft) 100,00 %
08.04.2016 04:54 7,7 C 95 % 1010,3 hPa 0,0 l/m 8,1 km/h (2 Bft) SW 217 0 min 0,000 mm 0,0 UV-I 0 W/m 7,0 C 6,4 C 11,3 km/h (2 Bft) 100,00 %
08.04.2016 04:55 7,7 C 95 % 1010,4 hPa 0,0 l/m 6,1 km/h (2 Bft) W-SW 254 0 min 0,000 mm 0,0 UV-I 0 W/m 7,0 C 7,7 C 9,7 km/h (2 Bft) 100,00 %
08.04.2016 04:56 7,7 C 95 % 1010,4 hPa 0,0 l/m 5,0 km/h (1 Bft) W 265 0 min 0,000 mm 0,0 UV-I 0 W/m 7,0 C 7,7 C 9,7 km/h (2 Bft) 100,00 %
08.04.2016 04:57 7,7 C 95 % 1010,4 hPa 0,0 l/m 6,2 km/h (2 Bft) W 262 0 min 0,000 mm 0,0 UV-I 0 W/m 7,0 C 7,7 C 9,7 km/h (2 Bft) 100,00 %
08.04.2016 04:58 7,7 C 95 % 1010,3 hPa 0,0 l/m 4,4 km/h (1 Bft) W-NW 282 0 min 0,000 mm 0,0 UV-I 0 W/m 7,0 C 7,7 C 6,4 km/h (2 Bft) 95,65 %
08.04.2016 04:59 7,7 C 95 % 1010,4 hPa 0,0 l/m 5,0 km/h (1 Bft) W 265 0 min 0,000 mm 0,0 UV-I 0 W/m 7,0 C 7,7 C 6,4 km/h (2 Bft) 100,00 %
08.04.2016 05:00 7,6 C 95 % 1010,4 hPa 0,0 l/m 6,9 km/h (2 Bft) W 272 0 min 0,000 mm 0,0 UV-I 0 W/m 6,9 C 7,2 C 11,3 km/h (2 Bft) 100,00 %
08.04.2016 05:01 7,6 C 95 % 1010,3 hPa 0,0 l/m 6,8 km/h (2 Bft) W 264 0 min 0,000 mm 0,0 UV-I 0 W/m 6,9 C 7,3 C 9,7 km/h (2 Bft) 100,00 %
08.04.2016 05:02 7,6 C 95 % 1010,3 hPa 0,0 l/m 6,4 km/h (2 Bft) W 259 0 min 0,000 mm 0,0 UV-I 0 W/m 6,9 C 7,6 C 9,7 km/h (2 Bft) 100,00 %
08.04.2016 05:03 7,6 C 95 % 1010,4 hPa 0,0 l/m 6,6 km/h (2 Bft) W-SW 257 0 min 0,000 mm 0,0 UV-I 0 W/m 6,9 C 7,5 C 9,7 km/h (2 Bft) 100,00 %
08.04.2016 05:04 7,6 C 95 % 1010,4 hPa 0,0 l/m 5,3 km/h (1 Bft) W-SW 242 0 min 0,000 mm 0,0 UV-I 0 W/m 6,9 C 7,6 C 9,7 km/h (2 Bft) 100,00 %
08.04.2016 05:05 7,6 C 95 % 1010,4 hPa 0,0 l/m 5,3 km/h (1 Bft) W-SW 250 0 min 0,000 mm 0,0 UV-I 0 W/m 6,9 C 7,6 C 6,4 km/h (2 Bft) 96,55 %
08.04.2016 05:06 7,6 C 95 % 1010,4 hPa 0,0 l/m 4,5 km/h (1 Bft) W-SW 250 0 min 0,000 mm 0,0 UV-I 0 W/m 6,9 C 7,6 C 6,4 km/h (2 Bft) 100,00 %
08.04.2016 05:07 7,6 C 95 % 1010,4 hPa 0,0 l/m 4,1 km/h (1 Bft) W-SW 256 0 min 0,000 mm 0,0 UV-I 0 W/m 6,9 C 7,6 C 4,8 km/h (1 Bft) 100,00 %
08.04.2016 05:08 7,6 C 95 % 1010,4 hPa 0,0 l/m 6,7 km/h (2 Bft) W-SW 249 0 min 0,000 mm 0,0 UV-I 0 W/m 6,9 C 7,4 C 12,9 km/h (3 Bft) 100,00 %
08.04.2016 05:09 7,6 C 95 % 1010,4 hPa 0,0 l/m 5,4 km/h (1 Bft) W-SW 243 0 min 0,000 mm 0,0 UV-I 0 W/m 6,9 C 7,6 C 8,0 km/h (2 Bft) 100,00 %
08.04.2016 05:10 7,6 C 95 % 1010,4 hPa 0,0 l/m 3,0 km/h (1 Bft) W-SW 243 0 min 0,000 mm 0,0 UV-I 0 W/m 6,9 C 7,6 C 4,8 km/h (1 Bft) 100,00 %
08.04.2016 05:11 7,6 C 95 % 1010,5 hPa 0,0 l/m 1,5 km/h (1 Bft) W-SW 243 0 min 0,000 mm 0,0 UV-I 0 W/m 6,9 C 7,6 C 3,2 km/h (1 Bft) 95,65 %
08.04.2016 05:12 7,6 C 95 % 1010,5 hPa 0,0 l/m 2,8 km/h (1 Bft) W-SW 248 0 min 0,000 mm 0,0 UV-I 0 W/m 6,9 C 7,6 C 4,8 km/h (1 Bft) 100,00 %
08.04.2016 05:13 7,6 C 95 % 1010,4 hPa 0,0 l/m 4,1 km/h (1 Bft) SW 215 0 min 0,000 mm 0,0 UV-I 0 W/m 6,9 C 7,6 C 4,8 km/h (1 Bft) 100,00 %
08.04.2016 05:14 7,6 C 95 % 1010,4 hPa 0,0 l/m 5,9 km/h (2 Bft) SW 234 0 min 0,000 mm 0,0 UV-I 0 W/m 6,9 C 7,6 C 8,0 km/h (2 Bft) 100,00 %
08.04.2016 05:15 7,6 C 95 % 1010,4 hPa 0,0 l/m 6,6 km/h (2 Bft) W-SW 241 0 min 0,000 mm 0,0 UV-I 0 W/m 6,9 C 7,5 C 8,0 km/h (2 Bft) 100,00 %
08.04.2016 05:16 7,6 C 95 % 1010,4 hPa 0,0 l/m 5,9 km/h (2 Bft) SW 234 0 min 0,000 mm 0,0 UV-I 0 W/m 6,9 C 7,6 C 6,4 km/h (2 Bft) 100,00 %
08.04.2016 05:17 7,6 C 95 % 1010,4 hPa 0,0 l/m 6,2 km/h (2 Bft) W-SW 238 0 min 0,000 mm 0,0 UV-I 0 W/m 6,9 C 7,6 C 9,7 km/h (2 Bft) 100,00 %
08.04.2016 05:18 7,6 C 95 % 1010,5 hPa 0,0 l/m 6,4 km/h (2 Bft) W-SW 244 0 min 0,000 mm 0,0 UV-I 0 W/m 6,9 C 7,6 C 8,0 km/h (2 Bft) 100,00 %
08.04.2016 05:19 7,6 C 95 % 1010,5 hPa 0,0 l/m 6,3 km/h (2 Bft) W-SW 247 0 min 0,000 mm 0,0 UV-I 0 W/m 6,9 C 7,6 C 8,0 km/h (2 Bft) 100,00 %
08.04.2016 05:20 7,6 C 95 % 1010,4 hPa 0,0 l/m 6,0 km/h (2 Bft) W 273 0 min 0,000 mm 0,0 UV-I 0 W/m 6,9 C 7,6 C 8,0 km/h (2 Bft) 100,00 %
08.04.2016 05:21 7,6 C 95 % 1010,4 hPa 0,0 l/m 6,4 km/h (2 Bft) SW 229 0 min 0,000 mm 0,0 UV-I 0 W/m 6,9 C 7,6 C 9,7 km/h (2 Bft) 96,15 %
08.04.2016 05:22 7,6 C 95 % 1010,4 hPa 0,0 l/m 6,9 km/h (2 Bft) SW 223 0 min 0,000 mm 0,0 UV-I 0 W/m 6,9 C 7,2 C 9,7 km/h (2 Bft) 96,30 %
08.04.2016 05:23 7,6 C 95 % 1010,4 hPa 0,0 l/m 8,1 km/h (2 Bft) SW 219 0 min 0,000 mm 0,0 UV-I 0 W/m 6,9 C 6,3 C 11,3 km/h (2 Bft) 100,00 %
08.04.2016 05:24 7,6 C 95 % 1010,4 hPa 0,0 l/m 6,9 km/h (2 Bft) W-SW 253 0 min 0,000 mm 0,0 UV-I 0 W/m 6,9 C 7,2 C 9,7 km/h (2 Bft) 95,83 %
08.04.2016 05:25 7,6 C 95 % 1010,4 hPa 0,0 l/m 6,9 km/h (2 Bft) W-SW 238 0 min 0,000 mm 0,0 UV-I 0 W/m 6,9 C 7,2 C 11,3 km/h (2 Bft) 100,00 %
08.04.2016 05:26 7,6 C 95 % 1010,4 hPa 0,0 l/m 5,2 km/h (1 Bft) W 265 0 min 0,000 mm 0,0 UV-I 0 W/m 6,9 C 7,6 C 6,4 km/h (2 Bft) 100,00 %
08.04.2016 05:27 7,6 C 95 % 1010,4 hPa 0,0 l/m 5,2 km/h (1 Bft) W 269 0 min 0,000 mm 0,0 UV-I 0 W/m 6,9 C 7,6 C 6,4 km/h (2 Bft) 100,00 %
08.04.2016 05:28 7,6 C 95 % 1010,4 hPa 0,0 l/m 5,2 km/h (1 Bft) W 260 0 min 0,000 mm 0,0 UV-I 0 W/m 6,9 C 7,6 C 6,4 km/h (2 Bft) 100,00 %
08.04.2016 05:29 7,6 C 95 % 1010,4 hPa 0,0 l/m 4,8 km/h (1 Bft) W 260 0 min 0,000 mm 0,0 UV-I 0 W/m 6,9 C 7,6 C 9,7 km/h (2 Bft) 100,00 %
08.04.2016 05:30 7,5 C 95 % 1010,4 hPa 0,0 l/m 5,0 km/h (1 Bft) SW 233 0 min 0,000 mm 0,0 UV-I 0 W/m 6,8 C 7,5 C 6,4 km/h (2 Bft) 100,00 %
08.04.2016 05:31 7,5 C 95 % 1010,4 hPa 0,0 l/m 4,2 km/h (1 Bft) W-SW 252 0 min 0,000 mm 0,0 UV-I 0 W/m 6,8 C 7,5 C 6,4 km/h (2 Bft) 100,00 %
08.04.2016 05:32 7,5 C 95 % 1010,4 hPa 0,0 l/m 3,3 km/h (1 Bft) W-SW 252 0 min 0,000 mm 0,0 UV-I 0 W/m 6,8 C 7,5 C 4,8 km/h (1 Bft) 100,00 %
08.04.2016 05:33 7,5 C 95 % 1010,4 hPa 0,0 l/m 2,3 km/h (1 Bft) W-SW 252 0 min 0,000 mm 0,0 UV-I 0 W/m 6,8 C 7,5 C 4,8 km/h (1 Bft) 100,00 %
08.04.2016 05:34 7,5 C 95 % 1010,4 hPa 0,0 l/m 4,4 km/h (1 Bft) SW 227 0 min 0,000 mm 0,0 UV-I 0 W/m 6,8 C 7,5 C 6,4 km/h (2 Bft) 92,86 %
08.04.2016 05:35 7,4 C 95 % 1010,4 hPa 0,0 l/m 5,5 km/h (1 Bft) SW 236 0 min 0,000 mm 0,0 UV-I 0 W/m 6,7 C 7,4 C 6,4 km/h (2 Bft) 96,30 %
08.04.2016 05:36 7,4 C 95 % 1010,4 hPa 0,0 l/m 7,1 km/h (2 Bft) SW 232 0 min 0,000 mm 0,0 UV-I 0 W/m 6,7 C 6,8 C 11,3 km/h (2 Bft) 100,00 %
08.04.2016 05:37 7,4 C 95 % 1010,4 hPa 0,0 l/m 4,9 km/h (1 Bft) W-SW 244 0 min 0,000 mm 0,0 UV-I 0 W/m 6,7 C 7,4 C 6,4 km/h (2 Bft) 95,83 %
08.04.2016 05:38 7,4 C 95 % 1010,5 hPa 0,0 l/m 5,9 km/h (2 Bft) W-SW 239 0 min 0,000 mm 0,0 UV-I 0 W/m 6,7 C 7,4 C 11,3 km/h (2 Bft) 100,00 %
08.04.2016 05:39 7,4 C 95 % 1010,3 hPa 0,0 l/m 5,7 km/h (1 Bft) W-SW 254 0 min 0,000 mm 0,0 UV-I 0 W/m 6,7 C 7,4 C 9,7 km/h (2 Bft) 98,91 %
08.04.2016 05:40 7,4 C 95 % 1010,3 hPa 0,0 l/m 6,2 km/h (2 Bft) W-SW 238 0 min 0,000 mm 0,0 UV-I 0 W/m 6,7 C 7,4 C 9,7 km/h (2 Bft) 93,18 %
08.04.2016 05:41 7,4 C 95 % 1010,3 hPa 0,0 l/m 6,3 km/h (2 Bft) W-SW 245 0 min 0,000 mm 0,0 UV-I 0 W/m 6,7 C 7,4 C 9,7 km/h (2 Bft) 95,83 %
08.04.2016 05:42 7,4 C 95 % 1010,3 hPa 0,0 l/m 5,2 km/h (1 Bft) SW 225 0 min 0,000 mm 0,0 UV-I 0 W/m 6,7 C 7,4 C 8,0 km/h (2 Bft) 100,00 %
08.04.2016 05:43 7,4 C 95 % 1010,3 hPa 0,0 l/m 6,7 km/h (2 Bft) SW 224 0 min 0,000 mm 0,0 UV-I 0 W/m 6,7 C 7,2 C 9,7 km/h (2 Bft) 95,83 %
08.04.2016 05:44 7,4 C 95 % 1010,3 hPa 0,0 l/m 4,9 km/h (1 Bft) SW 235 0 min 0,000 mm 0,0 UV-I 0 W/m 6,7 C 7,4 C 8,0 km/h (2 Bft) 100,00 %
08.04.2016 05:45 7,4 C 95 % 1010,4 hPa 0,0 l/m 7,8 km/h (2 Bft) W-SW 238 0 min 0,000 mm 0,0 UV-I 0 W/m 6,7 C 6,3 C 9,7 km/h (2 Bft) 91,67 %
08.04.2016 05:46 7,4 C 95 % 1010,3 hPa 0,0 l/m 5,6 km/h (1 Bft) SW 227 0 min 0,000 mm 0,0 UV-I 0 W/m 6,7 C 7,4 C 8,0 km/h (2 Bft) 100,00 %
08.04.2016 05:47 7,4 C 95 % 1010,3 hPa 0,0 l/m 5,0 km/h (1 Bft) SW 236 0 min 0,000 mm 0,0 UV-I 0 W/m 6,7 C 7,4 C 6,4 km/h (2 Bft) 96,15 %
08.04.2016 05:48 7,4 C 95 % 1010,4 hPa 0,0 l/m 6,1 km/h (2 Bft) W-SW 240 0 min 0,000 mm 0,0 UV-I 0 W/m 6,7 C 7,4 C 8,0 km/h (2 Bft) 96,30 %
08.04.2016 05:49 7,3 C 95 % 1010,4 hPa 0,0 l/m 4,4 km/h (1 Bft) SW 227 0 min 0,000 mm 0,0 UV-I 0 W/m 6,6 C 7,3 C 6,4 km/h (2 Bft) 100,00 %
08.04.2016 05:50 7,4 C 95 % 1010,4 hPa 0,0 l/m 5,4 km/h (1 Bft) SW 222 0 min 0,000 mm 0,0 UV-I 0 W/m 6,7 C 7,4 C 9,7 km/h (2 Bft) 95,83 %
08.04.2016 05:51 7,3 C 95 % 1010,4 hPa 0,0 l/m 6,3 km/h (2 Bft) W-SW 242 0 min 0,000 mm 0,0 UV-I 0 W/m 6,6 C 7,3 C 11,3 km/h (2 Bft) 100,00 %
08.04.2016 05:52 7,3 C 95 % 1010,3 hPa 0,0 l/m 6,4 km/h (2 Bft) W-SW 242 0 min 0,000 mm 0,0 UV-I 0 W/m 6,6 C 7,3 C 12,9 km/h (3 Bft) 96,30 %
08.04.2016 05:53 7,3 C 95 % 1010,3 hPa 0,0 l/m 7,6 km/h (2 Bft) W-SW 248 0 min 0,000 mm 0,0 UV-I 0 W/m 6,6 C 6,3 C 12,9 km/h (3 Bft) 100,00 %
08.04.2016 05:54 7,3 C 95 % 1010,3 hPa 0,0 l/m 7,7 km/h (2 Bft) SW 221 0 min 0,000 mm 0,0 UV-I 0 W/m 6,6 C 6,2 C 14,5 km/h (3 Bft) 95,83 %
08.04.2016 05:55 7,3 C 95 % 1010,3 hPa 0,0 l/m 7,2 km/h (2 Bft) SW 234 0 min 0,000 mm 0,0 UV-I 0 W/m 6,6 C 6,7 C 11,3 km/h (2 Bft) 95,65 %
08.04.2016 05:56 7,3 C 95 % 1010,2 hPa 0,0 l/m 7,3 km/h (2 Bft) SW 223 0 min 0,000 mm 0,0 UV-I 0 W/m 6,6 C 6,6 C 12,9 km/h (3 Bft) 95,83 %
08.04.2016 05:57 7,3 C 95 % 1010,3 hPa 0,0 l/m 5,8 km/h (2 Bft) W-SW 257 0 min 0,000 mm 0,0 UV-I 0 W/m 6,6 C 7,3 C 6,4 km/h (2 Bft) 95,65 %
08.04.2016 05:58 7,3 C 95 % 1010,3 hPa 0,0 l/m 7,1 km/h (2 Bft) W-SW 246 0 min 0,000 mm 0,0 UV-I 0 W/m 6,6 C 6,7 C 11,3 km/h (2 Bft) 100,00 %
08.04.2016 05:59 7,3 C 95 % 1010,3 hPa 0,0 l/m 5,1 km/h (1 Bft) W-SW 254 0 min 0,000 mm 0,0 UV-I 0 W/m 6,6 C 7,3 C 6,4 km/h (2 Bft) 96,15 %
08.04.2016 06:00 7,3 C 95 % 1010,3 hPa 0,0 l/m 5,5 km/h (1 Bft) W-SW 252 0 min 0,000 mm 0,0 UV-I 0 W/m 6,6 C 7,3 C 6,4 km/h (2 Bft) 100,00 %
08.04.2016 06:01 7,3 C 95 % 1010,3 hPa 0,0 l/m 6,9 km/h (2 Bft) W-SW 244 0 min 0,000 mm 0,0 UV-I 0 W/m 6,6 C 6,9 C 9,7 km/h (2 Bft) 96,55 %
08.04.2016 06:02 7,3 C 95 % 1010,3 hPa 0,0 l/m 8,4 km/h (2 Bft) W-SW 254 0 min 0,000 mm 0,0 UV-I 0 W/m 6,6 C 5,7 C 12,9 km/h (3 Bft) 100,00 %
08.04.2016 06:03 7,3 C 95 % 1010,3 hPa 0,0 l/m 8,2 km/h (2 Bft) W 265 0 min 0,000 mm 0,0 UV-I 0 W/m 6,6 C 5,9 C 11,3 km/h (2 Bft) 96,15 %
08.04.2016 06:04 7,3 C 95 % 1010,3 hPa 0,0 l/m 10,3 km/h (2 Bft) W-SW 252 0 min 0,000 mm 0,0 UV-I 0 W/m 6,6 C 4,4 C 12,9 km/h (3 Bft) 95,83 %
08.04.2016 06:05 7,3 C 95 % 1010,3 hPa 0,0 l/m 7,4 km/h (2 Bft) W-SW 247 0 min 0,000 mm 0,0 UV-I 0 W/m 6,6 C 6,5 C 11,3 km/h (2 Bft) 100,00 %
08.04.2016 06:06 7,3 C 95 % 1010,3 hPa 0,0 l/m 6,7 km/h (2 Bft) W-SW 254 0 min 0,000 mm 0,0 UV-I 0 W/m 6,6 C 7,1 C 12,9 km/h (3 Bft) 93,33 %
08.04.2016 06:07 7,3 C 95 % 1010,3 hPa 0,0 l/m 5,3 km/h (1 Bft) W 278 0 min 0,000 mm 0,0 UV-I 0 W/m 6,6 C 7,3 C 9,7 km/h (2 Bft) 100,00 %
08.04.2016 06:08 7,3 C 95 % 1010,3 hPa 0,0 l/m 7,2 km/h (2 Bft) W-SW 253 0 min 0,000 mm 0,0 UV-I 0 W/m 6,6 C 6,7 C 9,7 km/h (2 Bft) 95,65 %
08.04.2016 06:09 7,3 C 95 % 1010,3 hPa 0,0 l/m 7,9 km/h (2 Bft) W-NW 284 0 min 0,000 mm 0,0 UV-I 0 W/m 6,6 C 6,1 C 12,9 km/h (3 Bft) 100,00 %
08.04.2016 06:10 7,3 C 95 % 1010,3 hPa 0,0 l/m 3,6 km/h (1 Bft) W-NW 282 0 min 0,000 mm 0,0 UV-I 0 W/m 6,6 C 7,3 C 6,4 km/h (2 Bft) 95,65 %
08.04.2016 06:11 7,3 C 95 % 1010,3 hPa 0,0 l/m 4,1 km/h (1 Bft) W 273 0 min 0,000 mm 0,0 UV-I 0 W/m 6,6 C 7,3 C 4,8 km/h (1 Bft) 100,00 %
08.04.2016 06:12 7,3 C 95 % 1010,3 hPa 0,0 l/m 8,7 km/h (2 Bft) W-SW 253 0 min 0,000 mm 0,0 UV-I 0 W/m 6,6 C 5,5 C 12,9 km/h (3 Bft) 100,00 %
08.04.2016 06:13 7,3 C 96 % 1010,3 hPa 0,0 l/m 5,9 km/h (2 Bft) W 275 0 min 0,000 mm 0,0 UV-I 0 W/m 6,7 C 7,3 C 9,7 km/h (2 Bft) 100,00 %
08.04.2016 06:14 7,3 C 96 % 1010,3 hPa 0,0 l/m 7,9 km/h (2 Bft) W-SW 238 0 min 0,000 mm 0,0 UV-I 0 W/m 6,7 C 6,1 C 12,9 km/h (3 Bft) 100,00 %
08.04.2016 06:15 7,3 C 95 % 1010,3 hPa 0,0 l/m 9,3 km/h (2 Bft) SW 225 0 min 0,000 mm 0,0 UV-I 0 W/m 6,6 C 5,1 C 16,1 km/h (3 Bft) 100,00 %
08.04.2016 06:16 7,3 C 96 % 1010,3 hPa 0,0 l/m 9,4 km/h (2 Bft) W-SW 251 0 min 0,000 mm 0,0 UV-I 0 W/m 6,7 C 5,0 C 12,9 km/h (3 Bft) 100,00 %
08.04.2016 06:17 7,3 C 96 % 1010,3 hPa 0,0 l/m 12,2 km/h (2 Bft) W-SW 254 0 min 0,000 mm 0,0 UV-I 0 W/m 6,7 C 3,3 C 14,5 km/h (3 Bft) 92,59 %
08.04.2016 06:18 7,3 C 96 % 1010,3 hPa 0,0 l/m 9,4 km/h (2 Bft) W 263 0 min 0,000 mm 0,0 UV-I 0 W/m 6,7 C 5,0 C 12,9 km/h (3 Bft) 100,00 %
08.04.2016 06:19 7,3 C 96 % 1010,3 hPa 0,0 l/m 8,7 km/h (2 Bft) W-SW 248 0 min 0,000 mm 0,0 UV-I 0 W/m 6,7 C 5,5 C 12,9 km/h (3 Bft) 100,00 %
08.04.2016 06:20 7,2 C 95 % 1010,3 hPa 0,0 l/m 6,0 km/h (2 Bft) W-SW 244 0 min 0,000 mm 0,0 UV-I 0 W/m 6,5 C 7,2 C 11,3 km/h (2 Bft) 100,00 %
08.04.2016 06:21 7,3 C 96 % 1010,3 hPa 0,0 l/m 8,9 km/h (2 Bft) W 264 0 min 0,000 mm 0,0 UV-I 0 W/m 6,7 C 5,4 C 12,9 km/h (3 Bft) 100,00 %
08.04.2016 06:22 7,2 C 96 % 1010,3 hPa 0,0 l/m 13,5 km/h (3 Bft) SW 231 0 min 0,000 mm 0,0 UV-I 0 W/m 6,6 C 2,5 C 16,1 km/h (3 Bft) 100,00 %
08.04.2016 06:23 7,2 C 96 % 1010,4 hPa 0,0 l/m 11,6 km/h (2 Bft) W-SW 254 0 min 0,000 mm 0,0 UV-I 0 W/m 6,6 C 3,5 C 14,5 km/h (3 Bft) 100,00 %
08.04.2016 06:24 7,2 C 96 % 1010,3 hPa 0,0 l/m 10,0 km/h (2 Bft) W 274 0 min 0,000 mm 0,0 UV-I 0 W/m 6,6 C 4,5 C 14,5 km/h (3 Bft) 100,00 %
08.04.2016 06:25 7,2 C 96 % 1010,4 hPa 0,0 l/m 6,4 km/h (2 Bft) W-SW 257 0 min 0,000 mm 0,0 UV-I 0 W/m 6,6 C 7,2 C 11,3 km/h (2 Bft) 100,00 %
08.04.2016 06:26 7,2 C 96 % 1010,4 hPa 0,0 l/m 6,8 km/h (2 Bft) W-SW 255 0 min 0,000 mm 0,0 UV-I 0 W/m 6,6 C 6,9 C 11,3 km/h (2 Bft) 100,00 %
08.04.2016 06:27 7,2 C 96 % 1010,3 hPa 0,0 l/m 11,1 km/h (2 Bft) W-SW 247 0 min 0,000 mm 0,0 UV-I 0 W/m 6,6 C 3,8 C 16,1 km/h (3 Bft) 98,59 %
08.04.2016 06:28 7,2 C 96 % 1010,3 hPa 0,0 l/m 9,8 km/h (2 Bft) W-SW 254 0 min 0,000 mm 0,0 UV-I 0 W/m 6,6 C 4,6 C 11,3 km/h (2 Bft) 100,00 %
08.04.2016 06:29 7,2 C 96 % 1010,3 hPa 0,0 l/m 8,0 km/h (2 Bft) W-NW 285 0 min 0,000 mm 0,0 UV-I 0 W/m 6,6 C 5,9 C 11,3 km/h (2 Bft) 96,15 %
08.04.2016 06:30 7,2 C 96 % 1010,3 hPa 0,0 l/m 9,7 km/h (2 Bft) W 262 0 min 0,000 mm 0,0 UV-I 0 W/m 6,6 C 4,7 C 14,5 km/h (3 Bft) 100,00 %
08.04.2016 06:31 7,2 C 96 % 1010,3 hPa 0,0 l/m 5,6 km/h (1 Bft) W 262 0 min 0,000 mm 0,0 UV-I 0 W/m 6,6 C 7,2 C 9,7 km/h (2 Bft) 100,00 %
08.04.2016 06:32 7,2 C 96 % 1010,4 hPa 0,0 l/m 10,3 km/h (2 Bft) W 263 0 min 0,000 mm 0,0 UV-I 0 W/m 6,6 C 4,3 C 17,7 km/h (3 Bft) 100,00 %
08.04.2016 06:33 7,2 C 96 % 1010,4 hPa 0,0 l/m 12,3 km/h (3 Bft) W-SW 249 0 min 0,000 mm 0,0 UV-I 0 W/m 6,6 C 3,1 C 16,1 km/h (3 Bft) 100,00 %
08.04.2016 06:34 7,2 C 95 % 1010,4 hPa 0,0 l/m 9,8 km/h (2 Bft) W 263 0 min 0,000 mm 0,0 UV-I 0 W/m 6,5 C 4,6 C 12,9 km/h (3 Bft) 100,00 %
08.04.2016 06:35 7,2 C 95 % 1010,4 hPa 0,0 l/m 8,1 km/h (2 Bft) W 281 0 min 0,000 mm 0,0 UV-I 0 W/m 6,5 C 5,8 C 12,9 km/h (3 Bft) 100,00 %
08.04.2016 06:36 7,1 C 95 % 1010,4 hPa 0,0 l/m 6,2 km/h (2 Bft) SW 236 0 min 0,000 mm 0,0 UV-I 0 W/m 6,4 C 7,1 C 11,3 km/h (2 Bft) 100,00 %
08.04.2016 06:37 7,1 C 95 % 1010,4 hPa 0,0 l/m 11,8 km/h (2 Bft) W 276 0 min 0,000 mm 0,0 UV-I 0 W/m 6,4 C 3,3 C 14,5 km/h (3 Bft) 100,00 %
08.04.2016 06:38 7,1 C 95 % 1010,4 hPa 0,0 l/m 13,7 km/h (3 Bft) W-SW 246 0 min 0,000 mm 0,0 UV-I 0 W/m 6,4 C 2,3 C 19,3 km/h (3 Bft) 100,00 %
08.04.2016 06:39 7,1 C 95 % 1010,4 hPa 0,0 l/m 8,9 km/h (2 Bft) W 267 0 min 0,000 mm 0,0 UV-I 0 W/m 6,4 C 5,1 C 12,9 km/h (3 Bft) 100,00 %
08.04.2016 06:40 7,1 C 95 % 1010,4 hPa 0,0 l/m 12,6 km/h (3 Bft) W 273 0 min 0,000 mm 0,0 UV-I 0 W/m 6,4 C 2,8 C 16,1 km/h (3 Bft) 100,00 %
08.04.2016 06:41 7,1 C 95 % 1010,4 hPa 0,0 l/m 11,2 km/h (2 Bft) SW 232 0 min 0,000 mm 0,0 UV-I 0 W/m 6,4 C 3,6 C 16,1 km/h (3 Bft) 100,00 %
08.04.2016 06:42 7,1 C 95 % 1010,4 hPa 0,0 l/m 11,4 km/h (2 Bft) W 263 0 min 0,000 mm 0,0 UV-I 0 W/m 6,4 C 3,5 C 14,5 km/h (3 Bft) 92,31 %
08.04.2016 06:43 7,0 C 95 % 1010,4 hPa 0,0 l/m 6,3 km/h (2 Bft) W-SW 244 0 min 0,000 mm 0,0 UV-I 0 W/m 6,3 C 7,0 C 9,7 km/h (2 Bft) 100,00 %
08.04.2016 06:44 7,0 C 95 % 1010,4 hPa 0,2 l/m 7,1 km/h (2 Bft) W-SW 257 0 min 0,000 mm 0,0 UV-I 0 W/m 6,3 C 6,4 C 12,9 km/h (3 Bft) 100,00 %
08.04.2016 06:45 7,0 C 95 % 1010,4 hPa 0,0 l/m 12,5 km/h (3 Bft) W 259 0 min 0,000 mm 0,0 UV-I 0 W/m 6,3 C 2,8 C 19,3 km/h (3 Bft) 92,31 %
08.04.2016 06:46 6,9 C 95 % 1010,4 hPa 0,0 l/m 13,3 km/h (3 Bft) W 259 0 min 0,000 mm 0,0 UV-I 0 W/m 6,2 C 2,2 C 16,1 km/h (3 Bft) 100,00 %
08.04.2016 06:47 6,9 C 95 % 1010,4 hPa 0,0 l/m 10,7 km/h (2 Bft) W 267 0 min 0,000 mm 0,0 UV-I 0 W/m 6,2 C 3,7 C 14,5 km/h (3 Bft) 100,00 %
08.04.2016 06:48 6,9 C 95 % 1010,4 hPa 0,0 l/m 13,6 km/h (3 Bft) W 259 0 min 0,000 mm 0,0 UV-I 0 W/m 6,2 C 2,1 C 16,1 km/h (3 Bft) 96,88 %
08.04.2016 06:49 6,9 C 95 % 1010,4 hPa 0,0 l/m 13,4 km/h (3 Bft) W-SW 256 0 min 0,000 mm 0,0 UV-I 0 W/m 6,2 C 2,2 C 19,3 km/h (3 Bft) 100,00 %
08.04.2016 06:50 6,9 C 95 % 1010,3 hPa 0,0 l/m 13,9 km/h (3 Bft) W-SW 257 0 min 0,000 mm 0,0 UV-I 0 W/m 6,2 C 1,9 C 16,1 km/h (3 Bft) 100,00 %
08.04.2016 06:51 6,9 C 95 % 1010,3 hPa 0,0 l/m 13,5 km/h (3 Bft) W 271 0 min 0,000 mm 0,0 UV-I 0 W/m 6,2 C 2,1 C 19,3 km/h (3 Bft) 100,00 %
08.04.2016 06:52 6,8 C 95 % 1010,3 hPa 0,0 l/m 13,5 km/h (3 Bft) W 278 0 min 0,000 mm 0,0 UV-I 0 W/m 6,1 C 2,0 C 16,1 km/h (3 Bft) 95,00 %
08.04.2016 06:53 6,8 C 95 % 1010,4 hPa 0,0 l/m 11,7 km/h (2 Bft) SW 236 0 min 0,000 mm 0,0 UV-I 0 W/m 6,1 C 3,0 C 16,1 km/h (3 Bft) 100,00 %
08.04.2016 06:54 6,8 C 95 % 1010,4 hPa 0,0 l/m 12,5 km/h (3 Bft) W-SW 254 0 min 0,000 mm 0,0 UV-I 0 W/m 6,1 C 2,5 C 16,1 km/h (3 Bft) 91,67 %
08.04.2016 06:55 6,8 C 95 % 1010,4 hPa 0,0 l/m 11,5 km/h (2 Bft) W-SW 243 0 min 0,000 mm 0,0 UV-I 0 W/m 6,1 C 3,1 C 14,5 km/h (3 Bft) 100,00 %
08.04.2016 06:56 6,8 C 95 % 1010,4 hPa 0,0 l/m 15,4 km/h (3 Bft) W 261 0 min 0,000 mm 0,0 UV-I 0 W/m 6,1 C 1,1 C 19,3 km/h (3 Bft) 96,15 %
08.04.2016 06:57 6,8 C 95 % 1010,5 hPa 0,0 l/m 13,4 km/h (3 Bft) SW 234 0 min 0,000 mm 0,0 UV-I 0 W/m 6,1 C 2,1 C 17,7 km/h (3 Bft) 100,00 %
08.04.2016 06:58 6,8 C 95 % 1010,5 hPa 0,0 l/m 10,1 km/h (2 Bft) W-SW 238 0 min 0,000 mm 0,0 UV-I 0 W/m 6,1 C 4,0 C 14,5 km/h (3 Bft) 95,65 %
08.04.2016 06:59 6,8 C 95 % 1010,5 hPa 0,0 l/m 11,7 km/h (2 Bft) W-SW 249 0 min 0,000 mm 0,0 UV-I 0 W/m 6,1 C 3,0 C 17,7 km/h (3 Bft) 100,00 %
08.04.2016 07:00 6,8 C 96 % 1010,4 hPa 0,0 l/m 12,1 km/h (2 Bft) W 275 0 min 0,000 mm 0,0 UV-I 0 W/m 6,2 C 2,8 C 16,1 km/h (3 Bft) 100,00 %
08.04.2016 07:01 6,8 C 96 % 1010,4 hPa 0,0 l/m 10,8 km/h (2 Bft) W-SW 250 0 min 0,000 mm 0,0 UV-I 0 W/m 6,2 C 3,5 C 14,5 km/h (3 Bft) 100,00 %
08.04.2016 07:02 6,8 C 96 % 1010,5 hPa 0,0 l/m 9,4 km/h (2 Bft) W 269 0 min 0,000 mm 0,0 UV-I 0 W/m 6,2 C 4,5 C 14,5 km/h (3 Bft) 100,00 %
08.04.2016 07:03 6,7 C 96 % 1010,5 hPa 0,0 l/m 8,5 km/h (2 Bft) W-SW 246 0 min 0,000 mm 0,0 UV-I 0 W/m 6,1 C 5,0 C 11,3 km/h (2 Bft) 100,00 %
08.04.2016 07:04 6,7 C 96 % 1010,5 hPa 0,0 l/m 7,2 km/h (2 Bft) W-SW 240 0 min 0,000 mm 0,0 UV-I 0 W/m 6,1 C 6,0 C 11,3 km/h (2 Bft) 100,00 %
08.04.2016 07:05 6,7 C 96 % 1010,5 hPa 0,0 l/m 9,6 km/h (2 Bft) W-SW 246 0 min 0,000 mm 0,0 UV-I 2 W/m 6,1 C 4,2 C 12,9 km/h (3 Bft) 100,00 %
08.04.2016 07:06 6,7 C 96 % 1010,5 hPa 0,0 l/m 9,3 km/h (2 Bft) SW 235 0 min 0,000 mm 0,0 UV-I 5 W/m 6,1 C 4,4 C 12,9 km/h (3 Bft) 100,00 %
08.04.2016 07:07 6,7 C 96 % 1010,5 hPa 0,0 l/m 9,7 km/h (2 Bft) W 261 0 min 0,000 mm 0,0 UV-I 5 W/m 6,1 C 4,2 C 12,9 km/h (3 Bft) 100,00 %
08.04.2016 07:08 6,7 C 96 % 1010,5 hPa 0,0 l/m 10,0 km/h (2 Bft) W-SW 249 0 min 0,000 mm 0,0 UV-I 5 W/m 6,1 C 4,0 C 12,9 km/h (3 Bft) 100,00 %
08.04.2016 07:09 6,7 C 96 % 1010,5 hPa 0,0 l/m 6,9 km/h (2 Bft) W 259 0 min 0,000 mm 0,0 UV-I 5 W/m 6,1 C 6,3 C 11,3 km/h (2 Bft) 93,33 %
08.04.2016 07:10 6,7 C 96 % 1010,5 hPa 0,0 l/m 11,3 km/h (2 Bft) W 274 0 min 0,000 mm 0,0 UV-I 5 W/m 6,1 C 3,1 C 17,7 km/h (3 Bft) 100,00 %
08.04.2016 07:11 6,7 C 96 % 1010,5 hPa 0,0 l/m 11,3 km/h (2 Bft) W-SW 250 0 min 0,000 mm 0,0 UV-I 5 W/m 6,1 C 3,1 C 14,5 km/h (3 Bft) 100,00 %
08.04.2016 07:12 6,7 C 96 % 1010,5 hPa 0,0 l/m 12,8 km/h (3 Bft) W-SW 247 0 min 0,000 mm 0,0 UV-I 5 W/m 6,1 C 2,3 C 16,1 km/h (3 Bft) 95,83 %
08.04.2016 07:13 6,7 C 96 % 1010,5 hPa 0,0 l/m 7,7 km/h (2 Bft) W 263 0 min 0,000 mm 0,0 UV-I 5 W/m 6,1 C 5,6 C 11,3 km/h (2 Bft) 100,00 %
08.04.2016 07:14 6,7 C 96 % 1010,5 hPa 0,0 l/m 6,9 km/h (2 Bft) SW 223 0 min 0,000 mm 0,0 UV-I 7 W/m 6,1 C 6,3 C 8,0 km/h (2 Bft) 100,00 %
08.04.2016 07:15 6,7 C 96 % 1010,5 hPa 0,0 l/m 12,0 km/h (2 Bft) W-SW 248 0 min 0,000 mm 0,0 UV-I 7 W/m 6,1 C 2,7 C 12,9 km/h (3 Bft) 100,00 %
08.04.2016 07:16 6,7 C 96 % 1010,5 hPa 0,0 l/m 9,6 km/h (2 Bft) W-SW 248 0 min 0,000 mm 0,0 UV-I 7 W/m 6,1 C 4,2 C 12,9 km/h (3 Bft) 100,00 %
08.04.2016 07:17 6,7 C 96 % 1010,5 hPa 0,0 l/m 8,0 km/h (2 Bft) W-SW 245 0 min 0,000 mm 0,0 UV-I 7 W/m 6,1 C 5,4 C 11,3 km/h (2 Bft) 100,00 %
08.04.2016 07:18 6,7 C 96 % 1010,5 hPa 0,0 l/m 7,5 km/h (2 Bft) W-SW 250 0 min 0,000 mm 0,0 UV-I 7 W/m 6,1 C 5,8 C 12,9 km/h (3 Bft) 100,00 %
08.04.2016 07:19 6,7 C 96 % 1010,5 hPa 0,0 l/m 7,3 km/h (2 Bft) W 262 0 min 0,000 mm 0,0 UV-I 7 W/m 6,1 C 6,0 C 9,7 km/h (2 Bft) 93,33 %
08.04.2016 07:20 6,7 C 96 % 1010,5 hPa 0,0 l/m 7,8 km/h (2 Bft) W 264 0 min 0,000 mm 0,0 UV-I 7 W/m 6,1 C 5,5 C 12,9 km/h (3 Bft) 100,00 %
08.04.2016 07:21 6,7 C 96 % 1010,5 hPa 0,0 l/m 8,4 km/h (2 Bft) W 265 0 min 0,000 mm 0,0 UV-I 9 W/m 6,1 C 5,1 C 11,3 km/h (2 Bft) 100,00 %
08.04.2016 07:22 6,7 C 96 % 1010,5 hPa 0,0 l/m 6,8 km/h (2 Bft) W-SW 242 0 min 0,000 mm 0,0 UV-I 9 W/m 6,1 C 6,4 C 9,7 km/h (2 Bft) 100,00 %
08.04.2016 07:23 6,7 C 96 % 1010,5 hPa 0,0 l/m 9,2 km/h (2 Bft) W-SW 257 0 min 0,000 mm 0,0 UV-I 9 W/m 6,1 C 4,5 C 11,3 km/h (2 Bft) 100,00 %
08.04.2016 07:24 6,7 C 96 % 1010,5 hPa 0,0 l/m 9,0 km/h (2 Bft) W-SW 247 0 min 0,000 mm 0,0 UV-I 9 W/m 6,1 C 4,6 C 12,9 km/h (3 Bft) 100,00 %
08.04.2016 07:25 6,7 C 96 % 1010,5 hPa 0,0 l/m 8,9 km/h (2 Bft) SW 216 0 min 0,000 mm 0,0 UV-I 9 W/m 6,1 C 4,7 C 12,9 km/h (3 Bft) 100,00 %
08.04.2016 07:26 6,7 C 96 % 1010,5 hPa 0,0 l/m 7,6 km/h (2 Bft) W-SW 248 0 min 0,000 mm 0,0 UV-I 9 W/m 6,1 C 5,7 C 11,3 km/h (2 Bft) 100,00 %
08.04.2016 07:27 6,7 C 96 % 1010,5 hPa 0,0 l/m 10,7 km/h (2 Bft) W-SW 240 0 min 0,000 mm 0,0 UV-I 9 W/m 6,1 C 3,5 C 14,5 km/h (3 Bft) 100,00 %
08.04.2016 07:28 6,7 C 96 % 1010,5 hPa 0,0 l/m 9,5 km/h (2 Bft) SW 215 0 min 0,000 mm 0,0 UV-I 9 W/m 6,1 C 4,3 C 12,9 km/h (3 Bft) 96,15 %
08.04.2016 07:29 6,7 C 96 % 1010,5 hPa 0,0 l/m 8,8 km/h (2 Bft) W-SW 248 0 min 0,000 mm 0,0 UV-I 9 W/m 6,1 C 4,8 C 12,9 km/h (3 Bft) 100,00 %
08.04.2016 07:30 6,7 C 96 % 1010,5 hPa 0,0 l/m 8,6 km/h (2 Bft) W 267 0 min 0,000 mm 0,0 UV-I 9 W/m 6,1 C 4,9 C 11,3 km/h (2 Bft) 96,15 %
08.04.2016 07:31 6,7 C 96 % 1010,5 hPa 0,0 l/m 9,6 km/h (2 Bft) SW 234 0 min 0,000 mm 0,0 UV-I 7 W/m 6,1 C 4,2 C 12,9 km/h (3 Bft) 100,00 %
08.04.2016 07:32 6,7 C 96 % 1010,5 hPa 0,0 l/m 10,2 km/h (2 Bft) W-SW 244 0 min 0,000 mm 0,0 UV-I 7 W/m 6,1 C 3,8 C 14,5 km/h (3 Bft) 100,00 %
08.04.2016 07:33 6,7 C 96 % 1010,5 hPa 0,0 l/m 9,7 km/h (2 Bft) W 267 0 min 0,000 mm 0,0 UV-I 9 W/m 6,1 C 4,2 C 14,5 km/h (3 Bft) 100,00 %
08.04.2016 07:34 6,7 C 96 % 1010,5 hPa 0,0 l/m 7,5 km/h (2 Bft) W-SW 248 0 min 0,000 mm 0,0 UV-I 9 W/m 6,1 C 5,8 C 12,9 km/h (3 Bft) 100,00 %
08.04.2016 07:35 6,7 C 96 % 1010,5 hPa 0,0 l/m 8,2 km/h (2 Bft) SW 227 0 min 0,000 mm 0,0 UV-I 9 W/m 6,1 C 5,2 C 11,3 km/h (2 Bft) 100,00 %
08.04.2016 07:36 6,7 C 96 % 1010,5 hPa 0,0 l/m 10,3 km/h (2 Bft) W-SW 250 0 min 0,000 mm 0,0 UV-I 9 W/m 6,1 C 3,8 C 14,5 km/h (3 Bft) 100,00 %
08.04.2016 07:37 6,7 C 96 % 1010,5 hPa 0,0 l/m 7,3 km/h (2 Bft) W-SW 253 0 min 0,000 mm 0,0 UV-I 9 W/m 6,1 C 6,0 C 11,3 km/h (2 Bft) 100,00 %
08.04.2016 07:38 6,7 C 96 % 1010,5 hPa 0,0 l/m 9,3 km/h (2 Bft) W 273 0 min 0,000 mm 0,0 UV-I 9 W/m 6,1 C 4,4 C 12,9 km/h (3 Bft) 100,00 %
08.04.2016 07:39 6,7 C 96 % 1010,6 hPa 0,0 l/m 10,3 km/h (2 Bft) W-SW 255 0 min 0,000 mm 0,0 UV-I 11 W/m 6,1 C 3,8 C 14,5 km/h (3 Bft) 95,83 %
08.04.2016 07:40 6,7 C 96 % 1010,6 hPa 0,0 l/m 7,9 km/h (2 Bft) W 270 0 min 0,000 mm 0,0 UV-I 11 W/m 6,1 C 5,5 C 11,3 km/h (2 Bft) 100,00 %
08.04.2016 07:41 6,6 C 96 % 1010,5 hPa 0,0 l/m 10,7 km/h (2 Bft) W-SW 246 0 min 0,000 mm 0,0 UV-I 11 W/m 6,0 C 3,4 C 14,5 km/h (3 Bft) 95,83 %
08.04.2016 07:42 6,6 C 96 % 1010,6 hPa 0,0 l/m 8,4 km/h (2 Bft) W-SW 252 0 min 0,000 mm 0,0 UV-I 11 W/m 6,0 C 5,0 C 12,9 km/h (3 Bft) 100,00 %
08.04.2016 07:43 6,6 C 96 % 1010,6 hPa 0,0 l/m 7,0 km/h (2 Bft) W 273 0 min 0,000 mm 0,0 UV-I 11 W/m 6,0 C 6,1 C 11,3 km/h (2 Bft) 95,65 %
08.04.2016 07:44 6,6 C 96 % 1010,6 hPa 0,0 l/m 9,4 km/h (2 Bft) W 271 0 min 0,000 mm 0,0 UV-I 11 W/m 6,0 C 4,2 C 14,5 km/h (3 Bft) 100,00 %
08.04.2016 07:45 6,7 C 96 % 1010,6 hPa 0,0 l/m 9,3 km/h (2 Bft) SW 234 0 min 0,000 mm 0,0 UV-I 11 W/m 6,1 C 4,4 C 12,9 km/h (3 Bft) 92,86 %
08.04.2016 07:46 6,7 C 96 % 1010,6 hPa 0,0 l/m 12,1 km/h (2 Bft) W-SW 238 0 min 0,000 mm 0,0 UV-I 11 W/m 6,1 C 2,7 C 14,5 km/h (3 Bft) 97,37 %
08.04.2016 07:47 6,7 C 96 % 1010,6 hPa 0,0 l/m 10,8 km/h (2 Bft) W-SW 246 0 min 0,000 mm 0,0 UV-I 11 W/m 6,1 C 3,4 C 14,5 km/h (3 Bft) 100,00 %
08.04.2016 07:48 6,7 C 96 % 1010,6 hPa 0,0 l/m 9,2 km/h (2 Bft) W 263 0 min 0,000 mm 0,0 UV-I 12 W/m 6,1 C 4,5 C 12,9 km/h (3 Bft) 100,00 %
08.04.2016 07:49 6,7 C 96 % 1010,6 hPa 0,0 l/m 12,0 km/h (2 Bft) W 276 0 min 0,000 mm 0,0 UV-I 12 W/m 6,1 C 2,7 C 16,1 km/h (3 Bft) 96,15 %
08.04.2016 07:50 6,7 C 96 % 1010,6 hPa 0,0 l/m 13,1 km/h (3 Bft) W-SW 253 0 min 0,000 mm 0,0 UV-I 12 W/m 6,1 C 2,1 C 19,3 km/h (3 Bft) 96,30 %
08.04.2016 07:51 6,6 C 96 % 1010,6 hPa 0,0 l/m 7,1 km/h (2 Bft) W 261 0 min 0,000 mm 0,0 UV-I 12 W/m 6,0 C 6,0 C 11,3 km/h (2 Bft) 100,00 %
08.04.2016 07:52 6,7 C 96 % 1010,6 hPa 0,0 l/m 6,8 km/h (2 Bft) W-SW 250 0 min 0,000 mm 0,0 UV-I 13 W/m 6,1 C 6,4 C 12,9 km/h (3 Bft) 95,83 %
08.04.2016 07:53 6,7 C 96 % 1010,6 hPa 0,0 l/m 5,2 km/h (1 Bft) W 265 0 min 0,000 mm 0,0 UV-I 14 W/m 6,1 C 6,7 C 9,7 km/h (2 Bft) 100,00 %
08.04.2016 07:54 6,6 C 96 % 1010,6 hPa 0,0 l/m 10,2 km/h (2 Bft) W-NW 287 0 min 0,000 mm 0,0 UV-I 14 W/m 6,0 C 3,7 C 19,3 km/h (3 Bft) 95,83 %
08.04.2016 07:55 6,7 C 96 % 1010,6 hPa 0,0 l/m 10,3 km/h (2 Bft) W-SW 248 0 min 0,000 mm 0,0 UV-I 14 W/m 6,1 C 3,8 C 19,3 km/h (3 Bft) 95,65 %
08.04.2016 07:56 6,6 C 96 % 1010,6 hPa 0,0 l/m 12,3 km/h (3 Bft) W-SW 245 0 min 0,000 mm 0,0 UV-I 16 W/m 6,0 C 2,4 C 17,7 km/h (3 Bft) 100,00 %
08.04.2016 07:57 6,7 C 96 % 1010,6 hPa 0,0 l/m 8,7 km/h (2 Bft) W-SW 255 0 min 0,000 mm 0,0 UV-I 16 W/m 6,1 C 4,9 C 12,9 km/h (3 Bft) 92,31 %
08.04.2016 07:58 6,6 C 96 % 1010,6 hPa 0,0 l/m 10,6 km/h (2 Bft) W 259 0 min 0,000 mm 0,0 UV-I 16 W/m 6,0 C 3,4 C 14,5 km/h (3 Bft) 96,30 %
08.04.2016 07:59 6,7 C 96 % 1010,6 hPa 0,0 l/m 6,9 km/h (2 Bft) W-SW 251 0 min 0,000 mm 0,0 UV-I 16 W/m 6,1 C 6,3 C 11,3 km/h (2 Bft) 96,15 %
08.04.2016 08:00 6,7 C 96 % 1010,6 hPa 0,0 l/m 8,6 km/h (2 Bft) W-SW 257 0 min 0,000 mm 0,0 UV-I 17 W/m 6,1 C 4,9 C 12,9 km/h (3 Bft) 96,30 %
08.04.2016 08:01 6,7 C 96 % 1010,6 hPa 0,0 l/m 9,0 km/h (2 Bft) W-SW 253 0 min 0,000 mm 0,0 UV-I 19 W/m 6,1 C 4,6 C 14,5 km/h (3 Bft) 91,67 %
08.04.2016 08:02 6,7 C 96 % 1010,6 hPa 0,0 l/m 9,6 km/h (2 Bft) W 270 0 min 0,000 mm 0,0 UV-I 19 W/m 6,1 C 4,2 C 12,9 km/h (3 Bft) 100,00 %
08.04.2016 08:03 6,7 C 96 % 1010,6 hPa 0,0 l/m 9,3 km/h (2 Bft) W-SW 257 0 min 0,000 mm 0,0 UV-I 19 W/m 6,1 C 4,4 C 14,5 km/h (3 Bft) 92,31 %
08.04.2016 08:04 6,7 C 96 % 1010,6 hPa 0,0 l/m 7,6 km/h (2 Bft) SW 236 0 min 0,000 mm 0,0 UV-I 19 W/m 6,1 C 5,7 C 11,3 km/h (2 Bft) 100,00 %
08.04.2016 08:05 6,7 C 96 % 1010,6 hPa 0,0 l/m 8,9 km/h (2 Bft) W 271 0 min 0,000 mm 0,0 UV-I 21 W/m 6,1 C 4,7 C 12,9 km/h (3 Bft) 96,67 %
08.04.2016 08:06 6,7 C 96 % 1010,6 hPa 0,0 l/m 6,4 km/h (2 Bft) W 275 0 min 0,000 mm 0,0 UV-I 23 W/m 6,1 C 6,7 C 9,7 km/h (2 Bft) 96,15 %
08.04.2016 08:07 6,7 C 96 % 1010,6 hPa 0,0 l/m 10,9 km/h (2 Bft) W-SW 249 0 min 0,000 mm 0,0 UV-I 25 W/m 6,1 C 3,4 C 17,7 km/h (3 Bft) 100,00 %
08.04.2016 08:08 6,7 C 96 % 1010,6 hPa 0,0 l/m 8,6 km/h (2 Bft) W 268 0 min 0,000 mm 0,0 UV-I 25 W/m 6,1 C 4,9 C 16,1 km/h (3 Bft) 92,86 %
08.04.2016 08:09 6,7 C 96 % 1010,6 hPa 0,0 l/m 9,1 km/h (2 Bft) W 259 0 min 0,000 mm 0,0 UV-I 23 W/m 6,1 C 4,6 C 12,9 km/h (3 Bft) 100,00 %
08.04.2016 08:10 6,7 C 96 % 1010,6 hPa 0,0 l/m 8,0 km/h (2 Bft) W-SW 245 0 min 0,000 mm 0,0 UV-I 23 W/m 6,1 C 5,4 C 16,1 km/h (3 Bft) 95,65 %
08.04.2016 08:11 6,7 C 96 % 1010,6 hPa 0,0 l/m 10,1 km/h (2 Bft) W 259 0 min 0,000 mm 0,0 UV-I 23 W/m 6,1 C 3,9 C 14,5 km/h (3 Bft) 100,00 %
08.04.2016 08:12 6,7 C 96 % 1010,6 hPa 0,0 l/m 8,7 km/h (2 Bft) W-SW 258 0 min 0,000 mm 0,0 UV-I 23 W/m 6,1 C 4,9 C 12,9 km/h (3 Bft) 96,15 %
08.04.2016 08:13 6,7 C 96 % 1010,6 hPa 0,0 l/m 11,1 km/h (2 Bft) W 263 0 min 0,000 mm 0,0 UV-I 25 W/m 6,1 C 3,2 C 14,5 km/h (3 Bft) 100,00 %
08.04.2016 08:14 6,7 C 96 % 1010,6 hPa 0,0 l/m 11,6 km/h (2 Bft) W 259 0 min 0,000 mm 0,0 UV-I 26 W/m 6,1 C 2,9 C 16,1 km/h (3 Bft) 96,55 %
08.04.2016 08:15 6,7 C 96 % 1010,6 hPa 0,0 l/m 10,5 km/h (2 Bft) W 262 0 min 0,000 mm 0,0 UV-I 26 W/m 6,1 C 3,6 C 14,5 km/h (3 Bft) 100,00 %
08.04.2016 08:16 6,7 C 95 % 1010,6 hPa 0,0 l/m 10,1 km/h (2 Bft) W 265 0 min 0,000 mm 0,0 UV-I 26 W/m 6,0 C 3,9 C 14,5 km/h (3 Bft) 100,00 %
08.04.2016 08:17 6,7 C 95 % 1010,6 hPa 0,0 l/m 9,5 km/h (2 Bft) W 278 0 min 0,000 mm 0,0 UV-I 25 W/m 6,0 C 4,3 C 12,9 km/h (3 Bft) 96,30 %
08.04.2016 08:18 6,7 C 95 % 1010,6 hPa 0,0 l/m 7,7 km/h (2 Bft) W-NW 292 0 min 0,000 mm 0,0 UV-I 24 W/m 6,0 C 5,6 C 11,3 km/h (2 Bft) 100,00 %
08.04.2016 08:19 6,7 C 95 % 1010,6 hPa 0,0 l/m 6,4 km/h (2 Bft) W-SW 238 0 min 0,000 mm 0,0 UV-I 21 W/m 6,0 C 6,7 C 11,3 km/h (2 Bft) 100,00 %
08.04.2016 08:20 6,7 C 95 % 1010,6 hPa 0,0 l/m 11,5 km/h (2 Bft) W-NW 294 0 min 0,000 mm 0,0 UV-I 23 W/m 6,0 C 3,0 C 17,7 km/h (3 Bft) 100,00 %
08.04.2016 08:21 6,7 C 95 % 1010,6 hPa 0,0 l/m 10,8 km/h (2 Bft) SW 234 0 min 0,000 mm 0,0 UV-I 24 W/m 6,0 C 3,4 C 14,5 km/h (3 Bft) 100,00 %
08.04.2016 08:22 6,7 C 95 % 1010,5 hPa 0,0 l/m 9,7 km/h (2 Bft) W-SW 258 0 min 0,000 mm 0,0 UV-I 25 W/m 6,0 C 4,2 C 14,5 km/h (3 Bft) 100,00 %
08.04.2016 08:23 6,7 C 95 % 1010,5 hPa 0,0 l/m 11,5 km/h (2 Bft) W-SW 253 0 min 0,000 mm 0,0 UV-I 26 W/m 6,0 C 3,0 C 14,5 km/h (3 Bft) 95,83 %
08.04.2016 08:24 6,7 C 95 % 1010,5 hPa 0,0 l/m 8,6 km/h (2 Bft) W 273 0 min 0,000 mm 0,0 UV-I 26 W/m 6,0 C 4,9 C 14,5 km/h (3 Bft) 100,00 %
08.04.2016 08:25 6,7 C 95 % 1010,5 hPa 0,0 l/m 12,0 km/h (2 Bft) W-SW 248 0 min 0,000 mm 0,0 UV-I 25 W/m 6,0 C 2,7 C 17,7 km/h (3 Bft) 100,00 %
08.04.2016 08:26 6,7 C 95 % 1010,5 hPa 0,0 l/m 12,1 km/h (2 Bft) W-SW 243 0 min 0,000 mm 0,0 UV-I 26 W/m 6,0 C 2,7 C 16,1 km/h (3 Bft) 96,67 %
08.04.2016 08:27 6,7 C 95 % 1010,5 hPa 0,0 l/m 9,1 km/h (2 Bft) W-SW 257 0 min 0,000 mm 0,0 UV-I 25 W/m 6,0 C 4,6 C 14,5 km/h (3 Bft) 100,00 %
08.04.2016 08:28 6,6 C 95 % 1010,5 hPa 0,0 l/m 12,4 km/h (3 Bft) W 261 0 min 0,000 mm 0,0 UV-I 22 W/m 5,9 C 2,4 C 16,1 km/h (3 Bft) 98,56 %
08.04.2016 08:29 6,7 C 95 % 1010,5 hPa 0,0 l/m 13,0 km/h (3 Bft) W 276 0 min 0,000 mm 0,0 UV-I 22 W/m 6,0 C 2,2 C 17,7 km/h (3 Bft) 100,00 %
08.04.2016 08:30 6,6 C 95 % 1010,4 hPa 0,0 l/m 8,9 km/h (2 Bft) W-SW 255 0 min 0,000 mm 0,0 UV-I 25 W/m 5,9 C 4,6 C 12,9 km/h (3 Bft) 100,00 %
08.04.2016 08:31 6,6 C 95 % 1010,5 hPa 0,0 l/m 9,9 km/h (2 Bft) W-SW 257 0 min 0,000 mm 0,0 UV-I 26 W/m 5,9 C 3,9 C 12,9 km/h (3 Bft) 92,86 %
08.04.2016 08:32 6,6 C 95 % 1010,5 hPa 0,0 l/m 8,8 km/h (2 Bft) W-SW 253 0 min 0,000 mm 0,0 UV-I 24 W/m 5,9 C 4,7 C 12,9 km/h (3 Bft) 100,00 %
08.04.2016 08:33 6,6 C 95 % 1010,5 hPa 0,0 l/m 12,1 km/h (2 Bft) W-SW 253 0 min 0,000 mm 0,0 UV-I 21 W/m 5,9 C 2,5 C 16,1 km/h (3 Bft) 100,00 %
08.04.2016 08:34 6,6 C 95 % 1010,5 hPa 0,0 l/m 12,0 km/h (2 Bft) W-SW 250 0 min 0,000 mm 0,0 UV-I 19 W/m 5,9 C 2,6 C 14,5 km/h (3 Bft) 100,00 %
08.04.2016 08:35 6,6 C 95 % 1010,5 hPa 0,0 l/m 11,2 km/h (2 Bft) SW 230 0 min 0,000 mm 0,0 UV-I 22 W/m 5,9 C 3,1 C 16,1 km/h (3 Bft) 100,00 %
08.04.2016 08:36 6,6 C 95 % 1010,5 hPa 0,0 l/m 10,6 km/h (2 Bft) W 271 0 min 0,000 mm 0,0 UV-I 23 W/m 5,9 C 3,4 C 14,5 km/h (3 Bft) 100,00 %
08.04.2016 08:37 6,6 C 95 % 1010,5 hPa 0,0 l/m 9,1 km/h (2 Bft) W-SW 252 0 min 0,000 mm 0,0 UV-I 21 W/m 5,9 C 4,5 C 16,1 km/h (3 Bft) 100,00 %
08.04.2016 08:38 6,6 C 95 % 1010,5 hPa 0,0 l/m 9,2 km/h (2 Bft) W-SW 245 0 min 0,000 mm 0,0 UV-I 21 W/m 5,9 C 4,4 C 12,9 km/h (3 Bft) 100,00 %
08.04.2016 08:39 6,5 C 95 % 1010,5 hPa 0,0 l/m 11,3 km/h (2 Bft) W 263 0 min 0,000 mm 0,0 UV-I 21 W/m 5,8 C 2,9 C 16,1 km/h (3 Bft) 100,00 %
08.04.2016 08:40 6,5 C 95 % 1010,5 hPa 0,0 l/m 6,3 km/h (2 Bft) W 267 0 min 0,000 mm 0,0 UV-I 19 W/m 5,8 C 6,5 C 9,7 km/h (2 Bft) 100,00 %
08.04.2016 08:41 6,5 C 95 % 1010,5 hPa 0,0 l/m 10,7 km/h (2 Bft) W 262 0 min 0,000 mm 0,0 UV-I 19 W/m 5,8 C 3,3 C 14,5 km/h (3 Bft) 100,00 %
08.04.2016 08:42 6,5 C 95 % 1010,5 hPa 0,0 l/m 10,2 km/h (2 Bft) W 264 0 min 0,000 mm 0,0 UV-I 19 W/m 5,8 C 3,6 C 14,5 km/h (3 Bft) 100,00 %
08.04.2016 08:43 6,5 C 95 % 1010,5 hPa 0,0 l/m 11,2 km/h (2 Bft) W-SW 252 0 min 0,000 mm 0,0 UV-I 19 W/m 5,8 C 3,0 C 14,5 km/h (3 Bft) 96,30 %
08.04.2016 08:44 6,5 C 95 % 1010,5 hPa 0,0 l/m 9,7 km/h (2 Bft) W 265 0 min 0,000 mm 0,0 UV-I 18 W/m 5,8 C 3,9 C 14,5 km/h (3 Bft) 100,00 %
08.04.2016 08:45 6,5 C 95 % 1010,5 hPa 0,0 l/m 7,2 km/h (2 Bft) W 277 0 min 0,000 mm 0,0 UV-I 18 W/m 5,8 C 5,8 C 11,3 km/h (2 Bft) 100,00 %
08.04.2016 08:46 6,5 C 95 % 1010,5 hPa 0,0 l/m 10,7 km/h (2 Bft) W 267 0 min 0,000 mm 0,0 UV-I 18 W/m 5,8 C 3,3 C 14,5 km/h (3 Bft) 96,15 %
08.04.2016 08:47 6,4 C 95 % 1010,5 hPa 0,0 l/m 11,4 km/h (2 Bft) W-SW 258 0 min 0,000 mm 0,0 UV-I 18 W/m 5,7 C 2,7 C 17,7 km/h (3 Bft) 100,00 %
08.04.2016 08:48 6,4 C 95 % 1010,5 hPa 0,0 l/m 14,5 km/h (3 Bft) W-SW 248 0 min 0,000 mm 0,0 UV-I 19 W/m 5,7 C 1,0 C 17,7 km/h (3 Bft) 100,00 %
08.04.2016 08:49 6,4 C 95 % 1010,5 hPa 0,0 l/m 13,0 km/h (3 Bft) W-SW 257 0 min 0,000 mm 0,0 UV-I 18 W/m 5,7 C 1,8 C 17,7 km/h (3 Bft) 100,00 %
08.04.2016 08:50 6,4 C 95 % 1010,5 hPa 0,0 l/m 11,7 km/h (2 Bft) W-SW 246 0 min 0,000 mm 0,0 UV-I 16 W/m 5,7 C 2,5 C 14,5 km/h (3 Bft) 100,00 %
08.04.2016 08:51 6,4 C 95 % 1010,5 hPa 0,0 l/m 10,6 km/h (2 Bft) W 273 0 min 0,000 mm 0,0 UV-I 17 W/m 5,7 C 3,2 C 14,5 km/h (3 Bft) 100,00 %
08.04.2016 08:52 6,4 C 95 % 1010,4 hPa 0,0 l/m 13,0 km/h (3 Bft) W-SW 252 0 min 0,000 mm 0,0 UV-I 19 W/m 5,7 C 1,8 C 17,7 km/h (3 Bft) 100,00 %
08.04.2016 08:53 6,4 C 95 % 1010,5 hPa 0,0 l/m 13,1 km/h (3 Bft) W 263 0 min 0,000 mm 0,0 UV-I 19 W/m 5,7 C 1,7 C 16,1 km/h (3 Bft) 100,00 %
08.04.2016 08:54 6,3 C 95 % 1010,5 hPa 0,0 l/m 10,9 km/h (2 Bft) W-SW 246 0 min 0,000 mm 0,0 UV-I 25 W/m 5,6 C 2,9 C 14,5 km/h (3 Bft) 96,88 %
08.04.2016 08:55 6,4 C 95 % 1010,4 hPa 0,0 l/m 10,3 km/h (2 Bft) W 272 0 min 0,000 mm 0,0 UV-I 26 W/m 5,7 C 3,4 C 14,5 km/h (3 Bft) 91,67 %
08.04.2016 08:56 6,4 C 95 % 1010,4 hPa 0,0 l/m 12,4 km/h (3 Bft) W-SW 242 0 min 0,000 mm 0,0 UV-I 27 W/m 5,7 C 2,1 C 17,7 km/h (3 Bft) 100,00 %
08.04.2016 08:57 6,3 C 95 % 1010,4 hPa 0,0 l/m 13,4 km/h (3 Bft) W-SW 250 0 min 0,000 mm 0,0 UV-I 28 W/m 5,6 C 1,5 C 17,7 km/h (3 Bft) 100,00 %
08.04.2016 08:58 6,3 C 95 % 1010,4 hPa 0,0 l/m 12,7 km/h (3 Bft) W-SW 240 0 min 0,000 mm 0,0 UV-I 28 W/m 5,6 C 1,9 C 17,7 km/h (3 Bft) 100,00 %
08.04.2016 08:59 6,3 C 95 % 1010,4 hPa 0,0 l/m 11,9 km/h (2 Bft) W-SW 246 0 min 0,000 mm 0,0 UV-I 28 W/m 5,6 C 2,3 C 17,7 km/h (3 Bft) 100,00 %
08.04.2016 09:00 6,3 C 95 % 1010,4 hPa 0,0 l/m 10,8 km/h (2 Bft) W 262 0 min 0,025 mm 0,0 UV-I 26 W/m 5,6 C 3,0 C 16,1 km/h (3 Bft) 100,00 %
08.04.2016 09:02 6,3 C 95 % 1010,5 hPa 0,0 l/m 9,2 km/h (2 Bft) W-SW 245 0 min 0,000 mm 0,0 UV-I 25 W/m 5,6 C 4,1 C 14,5 km/h (3 Bft) 97,73 %
08.04.2016 09:03 6,3 C 95 % 1010,5 hPa 0,0 l/m 9,8 km/h (2 Bft) W-SW 258 0 min 0,000 mm 0,0 UV-I 25 W/m 5,6 C 3,6 C 14,5 km/h (3 Bft) 96,30 %
08.04.2016 09:04 6,3 C 95 % 1010,5 hPa 0,0 l/m 10,7 km/h (2 Bft) W 267 0 min 0,000 mm 0,0 UV-I 26 W/m 5,6 C 3,0 C 14,5 km/h (3 Bft) 100,00 %
08.04.2016 09:05 6,3 C 95 % 1010,5 hPa 0,0 l/m 6,4 km/h (2 Bft) W-SW 249 0 min 0,000 mm 0,0 UV-I 25 W/m 5,6 C 6,3 C 12,9 km/h (3 Bft) 95,65 %
08.04.2016 09:06 6,3 C 95 % 1010,5 hPa 0,0 l/m 9,7 km/h (2 Bft) W 263 0 min 0,000 mm 0,0 UV-I 23 W/m 5,6 C 3,7 C 16,1 km/h (3 Bft) 100,00 %
08.04.2016 09:07 6,3 C 95 % 1010,5 hPa 0,0 l/m 11,9 km/h (2 Bft) W 268 0 min 0,000 mm 0,0 UV-I 20 W/m 5,6 C 2,3 C 14,5 km/h (3 Bft) 100,00 %
08.04.2016 09:08 6,3 C 95 % 1010,5 hPa 0,0 l/m 6,8 km/h (2 Bft) SW 223 0 min 0,000 mm 0,0 UV-I 18 W/m 5,6 C 6,0 C 11,3 km/h (2 Bft) 96,30 %
08.04.2016 09:09 6,3 C 96 % 1010,5 hPa 0,0 l/m 5,8 km/h (2 Bft) W-SW 255 0 min 0,000 mm 0,0 UV-I 18 W/m 5,7 C 6,3 C 8,0 km/h (2 Bft) 100,00 %
08.04.2016 09:10 6,3 C 96 % 1010,5 hPa 0,0 l/m 7,9 km/h (2 Bft) W-SW 239 0 min 0,000 mm 0,0 UV-I 18 W/m 5,7 C 5,0 C 12,9 km/h (3 Bft) 100,00 %
08.04.2016 09:11 6,3 C 96 % 1010,5 hPa 0,0 l/m 7,3 km/h (2 Bft) SW 224 0 min 0,000 mm 0,0 UV-I 21 W/m 5,7 C 5,5 C 12,9 km/h (3 Bft) 100,00 %
08.04.2016 09:12 6,3 C 96 % 1010,5 hPa 0,0 l/m 10,0 km/h (2 Bft) W-SW 243 0 min 0,000 mm 0,0 UV-I 21 W/m 5,7 C 3,5 C 14,5 km/h (3 Bft) 100,00 %
08.04.2016 09:13 6,3 C 96 % 1010,5 hPa 0,0 l/m 13,8 km/h (3 Bft) W-SW 250 0 min 0,000 mm 0,0 UV-I 21 W/m 5,7 C 1,3 C 16,1 km/h (3 Bft) 100,00 %
08.04.2016 09:14 6,2 C 96 % 1010,5 hPa 0,0 l/m 8,0 km/h (2 Bft) W-SW 241 0 min 0,000 mm 0,0 UV-I 20 W/m 5,6 C 4,9 C 12,9 km/h (3 Bft) 100,00 %
08.04.2016 09:15 6,2 C 96 % 1010,5 hPa 0,0 l/m 13,0 km/h (3 Bft) W-SW 248 0 min 0,000 mm 0,0 UV-I 18 W/m 5,6 C 1,6 C 17,7 km/h (3 Bft) 100,00 %
08.04.2016 09:16 6,2 C 96 % 1010,5 hPa 0,0 l/m 16,0 km/h (3 Bft) W-SW 237 0 min 0,000 mm 0,0 UV-I 19 W/m 5,6 C 0,1 C 19,3 km/h (3 Bft) 100,00 %
08.04.2016 09:17 6,2 C 96 % 1010,5 hPa 0,0 l/m 12,4 km/h (3 Bft) W-SW 252 0 min 0,000 mm 0,0 UV-I 21 W/m 5,6 C 1,9 C 16,1 km/h (3 Bft) 100,00 %
08.04.2016 09:18 6,2 C 96 % 1010,5 hPa 0,0 l/m 10,3 km/h (2 Bft) W 263 0 min 0,000 mm 0,0 UV-I 25 W/m 5,6 C 3,2 C 12,9 km/h (3 Bft) 100,00 %
08.04.2016 09:19 6,2 C 96 % 1010,5 hPa 0,0 l/m 13,0 km/h (3 Bft) W-SW 248 0 min 0,000 mm 0,0 UV-I 25 W/m 5,6 C 1,6 C 17,7 km/h (3 Bft) 96,88 %
08.04.2016 09:20 6,2 C 96 % 1010,6 hPa 0,0 l/m 12,1 km/h (2 Bft) SW 215 0 min 0,000 mm 0,0 UV-I 26 W/m 5,6 C 2,1 C 16,1 km/h (3 Bft) 96,30 %
08.04.2016 09:21 6,2 C 96 % 1010,6 hPa 0,0 l/m 11,8 km/h (2 Bft) W-SW 250 0 min 0,000 mm 0,0 UV-I 26 W/m 5,6 C 2,3 C 14,5 km/h (3 Bft) 100,00 %
08.04.2016 09:22 6,2 C 96 % 1010,5 hPa 0,0 l/m 10,9 km/h (2 Bft) W-SW 253 0 min 0,000 mm 0,0 UV-I 26 W/m 5,6 C 2,8 C 14,5 km/h (3 Bft) 100,00 %
08.04.2016 09:23 6,2 C 96 % 1010,5 hPa 0,0 l/m 11,6 km/h (2 Bft) W-SW 252 0 min 0,000 mm 0,0 UV-I 26 W/m 5,6 C 2,4 C 16,1 km/h (3 Bft) 100,00 %
08.04.2016 09:24 6,1 C 96 % 1010,6 hPa 0,0 l/m 12,2 km/h (2 Bft) W-SW 248 0 min 0,000 mm 0,0 UV-I 25 W/m 5,5 C 1,9 C 17,7 km/h (3 Bft) 100,00 %
08.04.2016 09:25 6,1 C 96 % 1010,6 hPa 0,0 l/m 14,2 km/h (3 Bft) SW 219 0 min 0,000 mm 0,0 UV-I 27 W/m 5,5 C 0,8 C 17,7 km/h (3 Bft) 100,00 %
08.04.2016 09:26 6,1 C 96 % 1010,6 hPa 0,0 l/m 11,2 km/h (2 Bft) W-SW 247 0 min 0,000 mm 0,0 UV-I 30 W/m 5,5 C 2,5 C 16,1 km/h (3 Bft) 100,00 %
08.04.2016 09:27 6,1 C 96 % 1010,5 hPa 0,0 l/m 8,7 km/h (2 Bft) W 269 0 min 0,000 mm 0,0 UV-I 29 W/m 5,5 C 4,2 C 17,7 km/h (3 Bft) 100,00 %
08.04.2016 09:28 6,1 C 96 % 1010,6 hPa 0,0 l/m 11,4 km/h (2 Bft) W-SW 253 0 min 0,000 mm 0,0 UV-I 31 W/m 5,5 C 2,4 C 14,5 km/h (3 Bft) 96,15 %
08.04.2016 09:29 6,1 C 96 % 1010,6 hPa 0,0 l/m 8,8 km/h (2 Bft) W-SW 244 0 min 0,000 mm 0,0 UV-I 32 W/m 5,5 C 4,1 C 14,5 km/h (3 Bft) 100,00 %
08.04.2016 09:30 6,1 C 96 % 1010,6 hPa 0,0 l/m 14,2 km/h (3 Bft) W-SW 254 0 min 0,000 mm 0,0 UV-I 34 W/m 5,5 C 0,8 C 17,7 km/h (3 Bft) 100,00 %
08.04.2016 09:31 6,0 C 96 % 1010,6 hPa 0,0 l/m 10,8 km/h (2 Bft) W-SW 242 0 min 0,000 mm 0,0 UV-I 36 W/m 5,4 C 2,6 C 14,5 km/h (3 Bft) 100,00 %
08.04.2016 09:32 6,0 C 96 % 1010,5 hPa 0,0 l/m 10,2 km/h (2 Bft) SW 235 0 min 0,000 mm 0,0 UV-I 37 W/m 5,4 C 3,0 C 16,1 km/h (3 Bft) 100,00 %
08.04.2016 09:33 6,0 C 96 % 1010,6 hPa 0,0 l/m 10,0 km/h (2 Bft) W 263 0 min 0,000 mm 0,0 UV-I 38 W/m 5,4 C 3,2 C 17,7 km/h (3 Bft) 100,00 %
08.04.2016 09:34 6,0 C 96 % 1010,5 hPa 0,0 l/m 10,1 km/h (2 Bft) W 264 0 min 0,000 mm 0,0 UV-I 39 W/m 5,4 C 3,1 C 17,7 km/h (3 Bft) 95,65 %
08.04.2016 09:35 6,0 C 96 % 1010,5 hPa 0,0 l/m 13,9 km/h (3 Bft) W-SW 246 0 min 0,000 mm 0,0 UV-I 37 W/m 5,4 C 0,8 C 19,3 km/h (3 Bft) 100,00 %
08.04.2016 09:36 6,0 C 96 % 1010,5 hPa 0,0 l/m 9,1 km/h (2 Bft) W 265 0 min 0,000 mm 0,0 UV-I 39 W/m 5,4 C 3,8 C 12,9 km/h (3 Bft) 100,00 %
08.04.2016 09:37 6,0 C 96 % 1010,5 hPa 0,0 l/m 12,1 km/h (2 Bft) W 267 0 min 0,000 mm 0,0 UV-I 39 W/m 5,4 C 1,8 C 16,1 km/h (3 Bft) 100,00 %
08.04.2016 09:38 5,9 C 96 % 1010,5 hPa 0,0 l/m 8,3 km/h (2 Bft) W 279 0 min 0,000 mm 0,0 UV-I 39 W/m 5,3 C 4,3 C 12,9 km/h (3 Bft) 100,00 %
08.04.2016 09:39 5,9 C 96 % 1010,5 hPa 0,0 l/m 10,7 km/h (2 Bft) W-SW 246 0 min 0,000 mm 0,0 UV-I 41 W/m 5,3 C 2,6 C 17,7 km/h (3 Bft) 100,00 %
08.04.2016 09:40 6,0 C 96 % 1010,6 hPa 0,0 l/m 11,6 km/h (2 Bft) W 262 0 min 0,000 mm 0,0 UV-I 40 W/m 5,4 C 2,1 C 14,5 km/h (3 Bft) 100,00 %
08.04.2016 09:41 5,9 C 96 % 1010,5 hPa 0,0 l/m 10,9 km/h (2 Bft) W-SW 240 0 min 0,000 mm 0,0 UV-I 40 W/m 5,3 C 2,5 C 17,7 km/h (3 Bft) 96,30 %
08.04.2016 09:42 5,9 C 96 % 1010,5 hPa 0,0 l/m 6,9 km/h (2 Bft) W 275 0 min 0,000 mm 0,0 UV-I 42 W/m 5,3 C 5,5 C 11,3 km/h (2 Bft) 100,00 %
08.04.2016 09:43 5,9 C 96 % 1010,5 hPa 0,0 l/m 10,7 km/h (2 Bft) W-SW 248 0 min 0,000 mm 0,0 UV-I 45 W/m 5,3 C 2,6 C 14,5 km/h (3 Bft) 96,55 %
08.04.2016 09:44 5,9 C 96 % 1010,5 hPa 0,0 l/m 11,0 km/h (2 Bft) W-SW 255 0 min 0,000 mm 0,0 UV-I 47 W/m 5,3 C 2,4 C 14,5 km/h (3 Bft) 100,00 %
08.04.2016 09:45 5,9 C 96 % 1010,5 hPa 0,0 l/m 9,0 km/h (2 Bft) W-SW 251 0 min 0,000 mm 0,0 UV-I 46 W/m 5,3 C 3,8 C 12,9 km/h (3 Bft) 92,86 %
08.04.2016 09:46 5,9 C 96 % 1010,6 hPa 0,0 l/m 10,9 km/h (2 Bft) SW 232 0 min 0,000 mm 0,0 UV-I 46 W/m 5,3 C 2,5 C 12,9 km/h (3 Bft) 100,00 %
08.04.2016 09:47 5,9 C 96 % 1010,6 hPa 0,0 l/m 11,6 km/h (2 Bft) W-SW 242 0 min 0,000 mm 0,0 UV-I 39 W/m 5,3 C 2,0 C 17,7 km/h (3 Bft) 91,30 %
08.04.2016 09:48 5,9 C 96 % 1010,6 hPa 0,2 l/m 11,7 km/h (2 Bft) W-SW 253 0 min 0,000 mm 0,0 UV-I 35 W/m 5,3 C 2,0 C 17,7 km/h (3 Bft) 96,30 %
08.04.2016 09:49 5,9 C 96 % 1010,6 hPa 0,0 l/m 11,2 km/h (2 Bft) SW 217 0 min 0,000 mm 0,0 UV-I 35 W/m 5,3 C 2,3 C 16,1 km/h (3 Bft) 100,00 %
08.04.2016 09:50 5,9 C 96 % 1010,6 hPa 0,0 l/m 10,3 km/h (2 Bft) W-SW 246 0 min 0,000 mm 0,0 UV-I 35 W/m 5,3 C 2,9 C 12,9 km/h (3 Bft) 95,83 %
08.04.2016 09:51 5,9 C 96 % 1010,6 hPa 0,0 l/m 9,9 km/h (2 Bft) SW 228 0 min 0,000 mm 0,0 UV-I 34 W/m 5,3 C 3,1 C 16,1 km/h (3 Bft) 100,00 %
08.04.2016 09:52 5,9 C 96 % 1010,6 hPa 0,0 l/m 10,9 km/h (2 Bft) W-SW 238 0 min 0,000 mm 0,0 UV-I 32 W/m 5,3 C 2,5 C 16,1 km/h (3 Bft) 96,30 %
08.04.2016 09:53 5,9 C 96 % 1010,6 hPa 0,0 l/m 8,5 km/h (2 Bft) W-SW 246 0 min 0,000 mm 0,0 UV-I 32 W/m 5,3 C 4,2 C 12,9 km/h (3 Bft) 100,00 %
08.04.2016 09:54 5,9 C 96 % 1010,6 hPa 0,0 l/m 7,5 km/h (2 Bft) W-SW 254 0 min 0,000 mm 0,0 UV-I 34 W/m 5,3 C 5,0 C 12,9 km/h (3 Bft) 96,30 %
08.04.2016 09:55 5,9 C 96 % 1010,6 hPa 0,0 l/m 7,7 km/h (2 Bft) W-SW 240 0 min 0,000 mm 0,0 UV-I 38 W/m 5,3 C 4,8 C 9,7 km/h (2 Bft) 100,00 %
08.04.2016 09:56 5,9 C 96 % 1010,6 hPa 0,0 l/m 10,0 km/h (2 Bft) W-SW 242 0 min 0,000 mm 0,0 UV-I 40 W/m 5,3 C 3,1 C 16,1 km/h (3 Bft) 97,56 %
08.04.2016 09:57 5,9 C 96 % 1010,6 hPa 0,0 l/m 10,7 km/h (2 Bft) W-SW 248 0 min 0,000 mm 0,0 UV-I 42 W/m 5,3 C 2,6 C 17,7 km/h (3 Bft) 91,30 %
08.04.2016 09:58 5,9 C 96 % 1010,5 hPa 0,0 l/m 10,5 km/h (2 Bft) W-SW 241 0 min 0,000 mm 0,0 UV-I 42 W/m 5,3 C 2,7 C 14,5 km/h (3 Bft) 100,00 %
08.04.2016 09:59 5,9 C 96 % 1010,5 hPa 0,0 l/m 8,4 km/h (2 Bft) SW 218 0 min 0,000 mm 0,0 UV-I 40 W/m 5,3 C 4,2 C 11,3 km/h (2 Bft) 96,30 %
08.04.2016 10:00 5,9 C 96 % 1010,5 hPa 0,0 l/m 8,5 km/h (2 Bft) SW 235 0 min 0,026 mm 0,0 UV-I 40 W/m 5,3 C 4,2 C 11,3 km/h (2 Bft) 96,15 %
08.04.2016 10:01 5,9 C 96 % 1010,5 hPa 0,0 l/m 11,5 km/h (2 Bft) W-SW 252 0 min 0,000 mm 0,0 UV-I 40 W/m 5,3 C 2,1 C 17,7 km/h (3 Bft) 96,15 %
08.04.2016 10:02 5,9 C 96 % 1010,5 hPa 0,0 l/m 12,9 km/h (3 Bft) W 265 0 min 0,000 mm 0,0 UV-I 43 W/m 5,3 C 1,3 C 16,1 km/h (3 Bft) 98,60 %
08.04.2016 10:03 5,9 C 96 % 1010,5 hPa 0,2 l/m 8,9 km/h (2 Bft) W-SW 248 0 min 0,000 mm 0,0 UV-I 44 W/m 5,3 C 3,9 C 12,9 km/h (3 Bft) 95,74 %
08.04.2016 10:04 5,9 C 96 % 1010,5 hPa 0,0 l/m 9,4 km/h (2 Bft) W 259 0 min 0,000 mm 0,0 UV-I 42 W/m 5,3 C 3,5 C 11,3 km/h (2 Bft) 100,00 %
08.04.2016 10:05 5,9 C 96 % 1010,5 hPa 0,0 l/m 8,2 km/h (2 Bft) W 264 0 min 0,000 mm 0,0 UV-I 39 W/m 5,3 C 4,4 C 12,9 km/h (3 Bft) 95,83 %
08.04.2016 10:06 5,9 C 96 % 1010,5 hPa 0,0 l/m 8,9 km/h (2 Bft) W-SW 244 0 min 0,000 mm 0,0 UV-I 39 W/m 5,3 C 3,9 C 16,1 km/h (3 Bft) 95,65 %
08.04.2016 10:07 5,9 C 96 % 1010,5 hPa 0,0 l/m 11,8 km/h (2 Bft) SW 233 0 min 0,000 mm 0,0 UV-I 39 W/m 5,3 C 1,9 C 16,1 km/h (3 Bft) 100,00 %
08.04.2016 10:08 5,9 C 96 % 1010,5 hPa 0,0 l/m 10,6 km/h (2 Bft) W-SW 254 0 min 0,000 mm 0,0 UV-I 42 W/m 5,3 C 2,7 C 14,5 km/h (3 Bft) 92,86 %
08.04.2016 10:09 5,9 C 96 % 1010,4 hPa 0,0 l/m 13,4 km/h (3 Bft) W 267 0 min 0,000 mm 0,0 UV-I 46 W/m 5,3 C 1,0 C 19,3 km/h (3 Bft) 96,67 %
08.04.2016 10:10 5,9 C 96 % 1010,4 hPa 0,0 l/m 13,6 km/h (3 Bft) W-SW 250 0 min 0,000 mm 0,0 UV-I 49 W/m 5,3 C 0,9 C 17,7 km/h (3 Bft) 95,65 %
08.04.2016 10:11 5,9 C 96 % 1010,4 hPa 0,0 l/m 10,1 km/h (2 Bft) W 261 0 min 0,000 mm 0,0 UV-I 49 W/m 5,3 C 3,0 C 12,9 km/h (3 Bft) 100,00 %
08.04.2016 10:12 5,9 C 96 % 1010,4 hPa 0,0 l/m 9,9 km/h (2 Bft) W 261 0 min 0,000 mm 0,0 UV-I 48 W/m 5,3 C 3,1 C 14,5 km/h (3 Bft) 96,15 %
08.04.2016 10:13 5,9 C 96 % 1010,4 hPa 0,0 l/m 9,0 km/h (2 Bft) W-SW 250 0 min 0,000 mm 0,0 UV-I 47 W/m 5,3 C 3,8 C 12,9 km/h (3 Bft) 100,00 %
08.04.2016 10:14 5,9 C 96 % 1010,4 hPa 0,0 l/m 8,4 km/h (2 Bft) W-SW 237 0 min 0,000 mm 0,0 UV-I 47 W/m 5,3 C 4,2 C 12,9 km/h (3 Bft) 92,31 %
08.04.2016 10:15 5,9 C 96 % 1010,4 hPa 0,0 l/m 11,1 km/h (2 Bft) W-SW 248 0 min 0,000 mm 0,0 UV-I 46 W/m 5,3 C 2,3 C 16,1 km/h (3 Bft) 100,00 %
08.04.2016 10:16 5,9 C 96 % 1010,3 hPa 0,0 l/m 8,7 km/h (2 Bft) W-SW 246 0 min 0,000 mm 0,0 UV-I 46 W/m 5,3 C 4,0 C 12,9 km/h (3 Bft) 100,00 %
08.04.2016 10:17 5,9 C 96 % 1010,3 hPa 0,0 l/m 9,8 km/h (2 Bft) W 261 0 min 0,000 mm 0,0 UV-I 47 W/m 5,3 C 3,2 C 16,1 km/h (3 Bft) 100,00 %
08.04.2016 10:18 5,9 C 96 % 1010,3 hPa 0,0 l/m 9,8 km/h (2 Bft) W-SW 242 0 min 0,000 mm 0,0 UV-I 47 W/m 5,3 C 3,2 C 16,1 km/h (3 Bft) 100,00 %
08.04.2016 10:19 5,9 C 96 % 1010,3 hPa 0,0 l/m 11,2 km/h (2 Bft) W-SW 253 0 min 0,000 mm 0,0 UV-I 47 W/m 5,3 C 2,3 C 14,5 km/h (3 Bft) 95,83 %
08.04.2016 10:20 5,9 C 96 % 1010,3 hPa 0,0 l/m 11,9 km/h (2 Bft) W 271 0 min 0,000 mm 0,0 UV-I 46 W/m 5,3 C 1,9 C 17,7 km/h (3 Bft) 100,00 %
08.04.2016 10:21 5,9 C 96 % 1010,3 hPa 0,0 l/m 12,2 km/h (2 Bft) W-SW 257 0 min 0,000 mm 0,0 UV-I 47 W/m 5,3 C 1,7 C 14,5 km/h (3 Bft) 100,00 %
08.04.2016 10:22 5,9 C 96 % 1010,3 hPa 0,0 l/m 8,6 km/h (2 Bft) SW 215 0 min 0,000 mm 0,0 UV-I 46 W/m 5,3 C 4,1 C 12,9 km/h (3 Bft) 100,00 %
08.04.2016 10:23 5,9 C 96 % 1010,3 hPa 0,0 l/m 12,2 km/h (2 Bft) W-SW 242 0 min 0,000 mm 0,0 UV-I 44 W/m 5,3 C 1,7 C 19,3 km/h (3 Bft) 100,00 %
08.04.2016 10:24 5,9 C 96 % 1010,3 hPa 0,0 l/m 14,6 km/h (3 Bft) W-SW 239 0 min 0,000 mm 0,0 UV-I 43 W/m 5,3 C 0,4 C 19,3 km/h (3 Bft) 100,00 %
08.04.2016 10:25 5,9 C 96 % 1010,3 hPa 0,0 l/m 12,2 km/h (2 Bft) W 259 0 min 0,000 mm 0,0 UV-I 44 W/m 5,3 C 1,7 C 14,5 km/h (3 Bft) 100,00 %
08.04.2016 10:26 5,9 C 96 % 1010,3 hPa 0,0 l/m 8,3 km/h (2 Bft) SW 225 0 min 0,000 mm 0,0 UV-I 46 W/m 5,3 C 4,3 C 14,5 km/h (3 Bft) 96,30 %
08.04.2016 10:27 5,9 C 96 % 1010,3 hPa 0,0 l/m 9,9 km/h (2 Bft) W 264 0 min 0,000 mm 0,0 UV-I 43 W/m 5,3 C 3,1 C 12,9 km/h (3 Bft) 96,55 %
08.04.2016 10:28 5,9 C 96 % 1010,3 hPa 0,0 l/m 9,7 km/h (2 Bft) W-SW 238 0 min 0,000 mm 0,0 UV-I 40 W/m 5,3 C 3,3 C 12,9 km/h (3 Bft) 96,30 %
08.04.2016 10:29 5,9 C 96 % 1010,3 hPa 0,0 l/m 7,6 km/h (2 Bft) W-SW 252 0 min 0,000 mm 0,0 UV-I 41 W/m 5,3 C 4,9 C 11,3 km/h (2 Bft) 100,00 %
08.04.2016 10:30 5,9 C 96 % 1010,3 hPa 0,0 l/m 7,1 km/h (2 Bft) SW 223 0 min 0,000 mm 0,0 UV-I 37 W/m 5,3 C 5,3 C 11,3 km/h (2 Bft) 100,00 %
08.04.2016 10:31 5,9 C 96 % 1010,3 hPa 0,0 l/m 6,6 km/h (2 Bft) W-SW 253 0 min 0,000 mm 0,0 UV-I 33 W/m 5,3 C 5,8 C 11,3 km/h (2 Bft) 100,00 %
08.04.2016 10:32 5,9 C 96 % 1010,3 hPa 0,0 l/m 6,4 km/h (2 Bft) W-SW 242 0 min 0,000 mm 0,0 UV-I 37 W/m 5,3 C 5,9 C 8,0 km/h (2 Bft) 100,00 %
08.04.2016 10:33 5,9 C 96 % 1010,3 hPa 0,0 l/m 7,1 km/h (2 Bft) W-SW 251 0 min 0,000 mm 0,0 UV-I 39 W/m 5,3 C 5,3 C 11,3 km/h (2 Bft) 100,00 %
08.04.2016 10:34 5,9 C 96 % 1010,3 hPa 0,0 l/m 9,0 km/h (2 Bft) SW 215 0 min 0,000 mm 0,0 UV-I 38 W/m 5,3 C 3,8 C 14,5 km/h (3 Bft) 100,00 %
08.04.2016 10:35 5,9 C 96 % 1010,2 hPa 0,0 l/m 7,2 km/h (2 Bft) SW 236 0 min 0,000 mm 0,0 UV-I 41 W/m 5,3 C 5,2 C 11,3 km/h (2 Bft) 100,00 %
08.04.2016 10:36 5,9 C 96 % 1010,2 hPa 0,0 l/m 6,7 km/h (2 Bft) W-NW 283 0 min 0,000 mm 0,0 UV-I 43 W/m 5,3 C 5,7 C 9,7 km/h (2 Bft) 100,00 %
08.04.2016 10:37 6,0 C 96 % 1010,2 hPa 0,0 l/m 7,0 km/h (2 Bft) W-SW 251 0 min 0,000 mm 0,0 UV-I 41 W/m 5,4 C 5,5 C 11,3 km/h (2 Bft) 100,00 %
08.04.2016 10:38 6,0 C 96 % 1010,3 hPa 0,0 l/m 8,4 km/h (2 Bft) W 277 0 min 0,000 mm 0,0 UV-I 40 W/m 5,4 C 4,3 C 14,5 km/h (3 Bft) 100,00 %
08.04.2016 10:39 6,0 C 96 % 1010,2 hPa 0,0 l/m 6,7 km/h (2 Bft) W 279 0 min 0,000 mm 0,0 UV-I 40 W/m 5,4 C 5,8 C 11,3 km/h (2 Bft) 100,00 %
08.04.2016 10:40 6,0 C 96 % 1010,2 hPa 0,0 l/m 3,8 km/h (1 Bft) W 263 0 min 0,000 mm 0,0 UV-I 42 W/m 5,4 C 6,0 C 6,4 km/h (2 Bft) 93,33 %
08.04.2016 10:41 6,0 C 96 % 1010,2 hPa 0,0 l/m 5,8 km/h (2 Bft) W 269 0 min 0,000 mm 0,0 UV-I 41 W/m 5,4 C 6,0 C 9,7 km/h (2 Bft) 100,00 %
08.04.2016 10:42 6,0 C 96 % 1010,2 hPa 0,0 l/m 7,3 km/h (2 Bft) W 262 0 min 0,000 mm 0,0 UV-I 41 W/m 5,4 C 5,2 C 12,9 km/h (3 Bft) 96,30 %
08.04.2016 10:43 6,1 C 96 % 1010,2 hPa 0,0 l/m 4,6 km/h (1 Bft) SW 233 0 min 0,000 mm 0,0 UV-I 40 W/m 5,5 C 6,1 C 6,4 km/h (2 Bft) 100,00 %
08.04.2016 10:44 6,1 C 96 % 1010,2 hPa 0,0 l/m 9,1 km/h (2 Bft) W 263 0 min 0,000 mm 0,0 UV-I 37 W/m 5,5 C 3,9 C 16,1 km/h (3 Bft) 100,00 %
08.04.2016 10:45 6,0 C 96 % 1010,2 hPa 0,0 l/m 12,7 km/h (3 Bft) W 262 0 min 0,000 mm 0,0 UV-I 39 W/m 5,4 C 1,5 C 16,1 km/h (3 Bft) 100,00 %
08.04.2016 10:46 6,0 C 96 % 1010,3 hPa 0,0 l/m 11,2 km/h (2 Bft) W-SW 250 0 min 0,000 mm 0,0 UV-I 40 W/m 5,4 C 2,4 C 14,5 km/h (3 Bft) 95,65 %
08.04.2016 10:47 6,0 C 96 % 1010,3 hPa 0,0 l/m 7,8 km/h (2 Bft) W-NW 284 0 min 0,000 mm 0,0 UV-I 45 W/m 5,4 C 4,8 C 12,9 km/h (3 Bft) 100,00 %
08.04.2016 10:48 6,0 C 96 % 1010,3 hPa 0,0 l/m 9,4 km/h (2 Bft) W-SW 256 0 min 0,000 mm 0,0 UV-I 47 W/m 5,4 C 3,6 C 14,5 km/h (3 Bft) 100,00 %
08.04.2016 10:49 6,0 C 96 % 1010,3 hPa 0,0 l/m 9,4 km/h (2 Bft) W-SW 242 0 min 0,000 mm 0,0 UV-I 44 W/m 5,4 C 3,6 C 14,5 km/h (3 Bft) 100,00 %
08.04.2016 10:50 6,0 C 96 % 1010,3 hPa 0,0 l/m 10,6 km/h (2 Bft) W-SW 238 0 min 0,000 mm 0,0 UV-I 40 W/m 5,4 C 2,8 C 14,5 km/h (3 Bft) 100,00 %
08.04.2016 10:51 6,0 C 96 % 1010,3 hPa 0,0 l/m 5,9 km/h (2 Bft) W 275 0 min 0,000 mm 0,0 UV-I 42 W/m 5,4 C 6,0 C 8,0 km/h (2 Bft) 100,00 %
08.04.2016 10:52 6,0 C 96 % 1010,3 hPa 0,0 l/m 4,6 km/h (1 Bft) W-SW 240 0 min 0,000 mm 0,0 UV-I 42 W/m 5,4 C 6,0 C 6,4 km/h (2 Bft) 92,31 %
08.04.2016 10:53 6,1 C 96 % 1010,2 hPa 0,0 l/m 5,1 km/h (1 Bft) W-SW 243 0 min 0,000 mm 0,0 UV-I 41 W/m 5,5 C 6,1 C 8,0 km/h (2 Bft) 100,00 %
08.04.2016 10:54 6,1 C 96 % 1010,2 hPa 0,0 l/m 9,2 km/h (2 Bft) W 276 0 min 0,000 mm 0,0 UV-I 39 W/m 5,5 C 3,8 C 16,1 km/h (3 Bft) 100,00 %
08.04.2016 10:55 6,1 C 96 % 1010,2 hPa 0,0 l/m 8,1 km/h (2 Bft) W-SW 254 0 min 0,000 mm 0,0 UV-I 40 W/m 5,5 C 4,7 C 14,5 km/h (3 Bft) 95,83 %
08.04.2016 10:56 6,1 C 96 % 1010,2 hPa 0,0 l/m 10,2 km/h (2 Bft) W-SW 258 0 min 0,000 mm 0,0 UV-I 39 W/m 5,5 C 3,2 C 14,5 km/h (3 Bft) 100,00 %
08.04.2016 10:57 6,1 C 96 % 1010,2 hPa 0,0 l/m 8,6 km/h (2 Bft) W 267 0 min 0,000 mm 0,0 UV-I 39 W/m 5,5 C 4,3 C 11,3 km/h (2 Bft) 100,00 %
08.04.2016 10:58 6,1 C 96 % 1010,2 hPa 0,0 l/m 7,0 km/h (2 Bft) W-SW 256 0 min 0,000 mm 0,0 UV-I 40 W/m 5,5 C 5,6 C 11,3 km/h (2 Bft) 100,00 %
08.04.2016 10:59 6,1 C 96 % 1010,2 hPa 0,0 l/m 7,7 km/h (2 Bft) W-SW 248 0 min 0,000 mm 0,0 UV-I 40 W/m 5,5 C 5,0 C 11,3 km/h (2 Bft) 100,00 %
08.04.2016 11:00 6,1 C 96 % 1010,2 hPa 0,0 l/m 6,2 km/h (2 Bft) W 263 0 min 0,000 mm 0,0 UV-I 40 W/m 5,5 C 6,1 C 11,3 km/h (2 Bft) 100,00 %
08.04.2016 11:01 6,1 C 96 % 1010,2 hPa 0,0 l/m 7,5 km/h (2 Bft) W 265 0 min 0,025 mm 0,0 UV-I 40 W/m 5,5 C 5,2 C 11,3 km/h (2 Bft) 100,00 %
08.04.2016 11:02 6,1 C 96 % 1010,2 hPa 0,0 l/m 6,8 km/h (2 Bft) W-SW 246 0 min 0,000 mm 0,0 UV-I 40 W/m 5,5 C 5,8 C 11,3 km/h (2 Bft) 100,00 %
08.04.2016 11:03 6,1 C 96 % 1010,2 hPa 0,0 l/m 6,4 km/h (2 Bft) SW 229 0 min 0,000 mm 0,0 UV-I 40 W/m 5,5 C 6,1 C 9,7 km/h (2 Bft) 100,00 %
08.04.2016 11:04 6,1 C 96 % 1010,2 hPa 0,0 l/m 8,3 km/h (2 Bft) W-SW 257 0 min 0,000 mm 0,0 UV-I 38 W/m 5,5 C 4,5 C 12,9 km/h (3 Bft) 100,00 %
08.04.2016 11:05 6,0 C 96 % 1010,2 hPa 0,0 l/m 5,5 km/h (1 Bft) W-SW 256 0 min 0,000 mm 0,0 UV-I 34 W/m 5,4 C 6,0 C 11,3 km/h (2 Bft) 100,00 %
08.04.2016 11:06 6,0 C 96 % 1010,2 hPa 0,0 l/m 8,4 km/h (2 Bft) W 259 0 min 0,000 mm 0,0 UV-I 32 W/m 5,4 C 4,3 C 11,3 km/h (2 Bft) 100,00 %
08.04.2016 11:07 6,0 C 96 % 1010,2 hPa 0,0 l/m 6,5 km/h (2 Bft) W-SW 241 0 min 0,000 mm 0,0 UV-I 32 W/m 5,4 C 5,9 C 8,0 km/h (2 Bft) 100,00 %
08.04.2016 11:08 6,0 C 96 % 1010,2 hPa 0,0 l/m 7,2 km/h (2 Bft) W-SW 254 0 min 0,000 mm 0,0 UV-I 32 W/m 5,4 C 5,3 C 11,3 km/h (2 Bft) 95,83 %
08.04.2016 11:09 6,0 C 96 % 1010,2 hPa 0,0 l/m 5,6 km/h (1 Bft) W-SW 239 0 min 0,000 mm 0,0 UV-I 32 W/m 5,4 C 6,0 C 8,0 km/h (2 Bft) 100,00 %
08.04.2016 11:10 6,0 C 96 % 1010,2 hPa 0,0 l/m 4,3 km/h (1 Bft) W 275 0 min 0,000 mm 0,0 UV-I 32 W/m 5,4 C 6,0 C 4,8 km/h (1 Bft) 100,00 %
08.04.2016 11:11 6,1 C 96 % 1010,1 hPa 0,0 l/m 4,3 km/h (1 Bft) SW 236 0 min 0,000 mm 0,0 UV-I 33 W/m 5,5 C 6,1 C 6,4 km/h (2 Bft) 100,00 %
08.04.2016 11:12 6,1 C 96 % 1010,1 hPa 0,0 l/m 3,5 km/h (1 Bft) W-NW 287 0 min 0,000 mm 0,0 UV-I 36 W/m 5,5 C 6,1 C 4,8 km/h (1 Bft) 100,00 %
08.04.2016 11:13 6,1 C 96 % 1010,1 hPa 0,0 l/m 5,3 km/h (1 Bft) W-SW 245 0 min 0,000 mm 0,0 UV-I 40 W/m 5,5 C 6,1 C 8,0 km/h (2 Bft) 96,15 %
08.04.2016 11:14 6,1 C 96 % 1010,1 hPa 0,0 l/m 6,0 km/h (2 Bft) W-SW 237 0 min 0,000 mm 0,0 UV-I 46 W/m 5,5 C 6,1 C 8,0 km/h (2 Bft) 100,00 %
08.04.2016 11:15 6,1 C 96 % 1010,2 hPa 0,0 l/m 4,8 km/h (1 Bft) SW 231 0 min 0,000 mm 0,0 UV-I 47 W/m 5,5 C 6,1 C 6,4 km/h (2 Bft) 100,00 %
08.04.2016 11:16 6,1 C 96 % 1010,1 hPa 0,0 l/m 8,8 km/h (2 Bft) W-SW 244 0 min 0,000 mm 0,0 UV-I 49 W/m 5,5 C 4,1 C 11,3 km/h (2 Bft) 100,00 %
08.04.2016 11:17 6,1 C 96 % 1010,1 hPa 0,0 l/m 5,5 km/h (1 Bft) W-SW 257 0 min 0,000 mm 0,0 UV-I 45 W/m 5,5 C 6,1 C 6,4 km/h (2 Bft) 100,00 %
08.04.2016 11:18 6,1 C 96 % 1010,1 hPa 0,0 l/m 4,9 km/h (1 Bft) W-NW 282 0 min 0,000 mm 0,0 UV-I 43 W/m 5,5 C 6,1 C 6,4 km/h (2 Bft) 100,00 %
08.04.2016 11:19 6,1 C 96 % 1010,1 hPa 0,0 l/m 4,6 km/h (1 Bft) W 272 0 min 0,000 mm 0,0 UV-I 42 W/m 5,5 C 6,1 C 6,4 km/h (2 Bft) 100,00 %
08.04.2016 11:20 6,1 C 96 % 1010,1 hPa 0,0 l/m 4,0 km/h (1 Bft) W-NW 290 0 min 0,000 mm 0,0 UV-I 44 W/m 5,5 C 6,1 C 4,8 km/h (1 Bft) 96,15 %
08.04.2016 11:21 6,1 C 96 % 1010,2 hPa 0,0 l/m 6,6 km/h (2 Bft) W-SW 257 0 min 0,000 mm 0,0 UV-I 46 W/m 5,5 C 6,0 C 9,7 km/h (2 Bft) 100,00 %
08.04.2016 11:22 6,1 C 96 % 1010,2 hPa 0,0 l/m 7,0 km/h (2 Bft) W-SW 249 0 min 0,000 mm 0,0 UV-I 46 W/m 5,5 C 5,6 C 12,9 km/h (3 Bft) 100,00 %
08.04.2016 11:23 6,1 C 96 % 1010,2 hPa 0,0 l/m 8,0 km/h (2 Bft) SW 232 0 min 0,000 mm 0,0 UV-I 48 W/m 5,5 C 4,8 C 11,3 km/h (2 Bft) 100,00 %
08.04.2016 11:24 6,0 C 96 % 1010,1 hPa 0,0 l/m 7,0 km/h (2 Bft) W-SW 237 0 min 0,000 mm 0,0 UV-I 52 W/m 5,4 C 5,5 C 11,3 km/h (2 Bft) 100,00 %
08.04.2016 11:25 6,0 C 96 % 1010,1 hPa 0,0 l/m 10,6 km/h (2 Bft) SW 233 0 min 0,000 mm 0,0 UV-I 55 W/m 5,4 C 2,8 C 14,5 km/h (3 Bft) 96,67 %
08.04.2016 11:26 6,0 C 96 % 1010,2 hPa 0,0 l/m 8,1 km/h (2 Bft) SW 234 0 min 0,000 mm 0,0 UV-I 53 W/m 5,4 C 4,6 C 11,3 km/h (2 Bft) 100,00 %
08.04.2016 11:27 5,9 C 96 % 1010,2 hPa 0,0 l/m 5,5 km/h (1 Bft) W-NW 285 0 min 0,000 mm 0,0 UV-I 49 W/m 5,3 C 5,9 C 8,0 km/h (2 Bft) 100,00 %
08.04.2016 11:28 6,0 C 96 % 1010,2 hPa 0,0 l/m 3,9 km/h (1 Bft) W-NW 286 0 min 0,000 mm 0,0 UV-I 46 W/m 5,4 C 6,0 C 4,8 km/h (1 Bft) 100,00 %
08.04.2016 11:29 6,0 C 96 % 1010,1 hPa 0,0 l/m 3,0 km/h (1 Bft) W 273 0 min 0,000 mm 0,0 UV-I 42 W/m 5,4 C 6,0 C 4,8 km/h (1 Bft) 100,00 %
08.04.2016 11:30 6,0 C 96 % 1010,2 hPa 0,0 l/m 3,5 km/h (1 Bft) W 266 0 min 0,000 mm 0,0 UV-I 41 W/m 5,4 C 6,0 C 4,8 km/h (1 Bft) 96,55 %
08.04.2016 11:31 6,1 C 96 % 1010,2 hPa 0,0 l/m 3,9 km/h (1 Bft) W 271 0 min 0,000 mm 0,0 UV-I 47 W/m 5,5 C 6,1 C 6,4 km/h (2 Bft) 100,00 %
08.04.2016 11:32 6,1 C 96 % 1010,2 hPa 0,0 l/m 5,0 km/h (1 Bft) W 267 0 min 0,000 mm 0,0 UV-I 49 W/m 5,5 C 6,1 C 6,4 km/h (2 Bft) 100,00 %
08.04.2016 11:33 6,1 C 96 % 1010,2 hPa 0,0 l/m 3,4 km/h (1 Bft) W-NW 285 0 min 0,000 mm 0,0 UV-I 49 W/m 5,5 C 6,1 C 4,8 km/h (1 Bft) 100,00 %
08.04.2016 11:34 6,0 C 96 % 1010,2 hPa 0,0 l/m 2,2 km/h (1 Bft) W-NW 285 0 min 0,000 mm 0,0 UV-I 48 W/m 5,4 C 6,0 C 3,2 km/h (1 Bft) 91,30 %
08.04.2016 11:35 6,0 C 96 % 1010,2 hPa 0,0 l/m 3,5 km/h (1 Bft) W-SW 253 0 min 0,000 mm 0,0 UV-I 46 W/m 5,4 C 6,0 C 4,8 km/h (1 Bft) 100,00 %
08.04.2016 11:36 6,1 C 96 % 1010,1 hPa 0,0 l/m 4,7 km/h (1 Bft) W-SW 248 0 min 0,000 mm 0,0 UV-I 48 W/m 5,5 C 6,1 C 6,4 km/h (2 Bft) 100,00 %
08.04.2016 11:37 6,1 C 96 % 1010,1 hPa 0,0 l/m 4,0 km/h (1 Bft) W-SW 240 0 min 0,000 mm 0,0 UV-I 49 W/m 5,5 C 6,1 C 6,4 km/h (2 Bft) 100,00 %
08.04.2016 11:38 6,1 C 96 % 1010,2 hPa 0,0 l/m 4,6 km/h (1 Bft) S-SW 211 0 min 0,000 mm 0,0 UV-I 49 W/m 5,5 C 6,1 C 6,4 km/h (2 Bft) 98,64 %
08.04.2016 11:39 6,1 C 96 % 1010,1 hPa 0,0 l/m 4,3 km/h (1 Bft) S 187 0 min 0,000 mm 0,0 UV-I 47 W/m 5,5 C 6,1 C 8,0 km/h (2 Bft) 100,00 %
08.04.2016 11:40 6,1 C 96 % 1010,1 hPa 0,0 l/m 6,5 km/h (2 Bft) W-NW 290 0 min 0,000 mm 0,0 UV-I 46 W/m 5,5 C 6,0 C 9,7 km/h (2 Bft) 100,00 %
08.04.2016 11:41 6,1 C 96 % 1010,1 hPa 0,0 l/m 3,7 km/h (1 Bft) W 277 0 min 0,000 mm 0,0 UV-I 47 W/m 5,5 C 6,1 C 4,8 km/h (1 Bft) 100,00 %
08.04.2016 11:42 6,1 C 96 % 1010,1 hPa 0,0 l/m 4,6 km/h (1 Bft) SW 219 0 min 0,000 mm 0,0 UV-I 48 W/m 5,5 C 6,1 C 6,4 km/h (2 Bft) 95,65 %
08.04.2016 11:43 6,0 C 96 % 1010,1 hPa 0,0 l/m 5,6 km/h (1 Bft) W-SW 250 0 min 0,000 mm 0,0 UV-I 47 W/m 5,4 C 6,0 C 8,0 km/h (2 Bft) 95,83 %
08.04.2016 11:44 6,0 C 96 % 1010,1 hPa 0,0 l/m 3,5 km/h (1 Bft) S-SW 196 0 min 0,000 mm 0,0 UV-I 44 W/m 5,4 C 6,0 C 8,0 km/h (2 Bft) 100,00 %
08.04.2016 11:45 6,0 C 96 % 1010,1 hPa 0,0 l/m 7,8 km/h (2 Bft) S-SW 194 0 min 0,000 mm 0,0 UV-I 43 W/m 5,4 C 4,8 C 9,7 km/h (2 Bft) 92,86 %
08.04.2016 11:46 6,0 C 96 % 1010,1 hPa 0,0 l/m 7,2 km/h (2 Bft) S-SW 209 0 min 0,000 mm 0,0 UV-I 41 W/m 5,4 C 5,3 C 9,7 km/h (2 Bft) 100,00 %
08.04.2016 11:47 6,0 C 96 % 1010,1 hPa 0,0 l/m 5,2 km/h (1 Bft) S 190 0 min 0,000 mm 0,0 UV-I 39 W/m 5,4 C 6,0 C 6,4 km/h (2 Bft) 91,30 %
08.04.2016 11:48 5,9 C 96 % 1010,1 hPa 0,0 l/m 3,8 km/h (1 Bft) S-SW 212 0 min 0,000 mm 0,0 UV-I 36 W/m 5,3 C 5,9 C 6,4 km/h (2 Bft) 100,00 %
08.04.2016 11:49 5,9 C 96 % 1010,1 hPa 0,0 l/m 4,8 km/h (1 Bft) SW 234 0 min 0,000 mm 0,0 UV-I 35 W/m 5,3 C 5,9 C 8,0 km/h (2 Bft) 96,15 %
08.04.2016 11:50 5,9 C 96 % 1010,1 hPa 0,0 l/m 6,2 km/h (2 Bft) S-SW 209 0 min 0,000 mm 0,0 UV-I 35 W/m 5,3 C 5,9 C 9,7 km/h (2 Bft) 96,67 %
08.04.2016 11:51 5,9 C 96 % 1010,1 hPa 0,0 l/m 6,3 km/h (2 Bft) SW 224 0 min 0,000 mm 0,0 UV-I 37 W/m 5,3 C 5,9 C 9,7 km/h (2 Bft) 90,91 %
08.04.2016 11:52 6,0 C 96 % 1010,1 hPa 0,0 l/m 6,5 km/h (2 Bft) SW 219 0 min 0,000 mm 0,0 UV-I 39 W/m 5,4 C 5,9 C 9,7 km/h (2 Bft) 96,55 %
08.04.2016 11:53 6,0 C 96 % 1010,1 hPa 0,0 l/m 4,4 km/h (1 Bft) SW 216 0 min 0,000 mm 0,0 UV-I 42 W/m 5,4 C 6,0 C 6,4 km/h (2 Bft) 96,88 %
08.04.2016 11:54 6,0 C 96 % 1010,1 hPa 0,2 l/m 3,0 km/h (1 Bft) W-SW 249 0 min 0,000 mm 0,0 UV-I 44 W/m 5,4 C 6,0 C 6,4 km/h (2 Bft) 91,67 %
08.04.2016 11:55 6,1 C 96 % 1010,1 hPa 0,0 l/m 4,5 km/h (1 Bft) W-SW 239 0 min 0,000 mm 0,0 UV-I 44 W/m 5,5 C 6,1 C 6,4 km/h (2 Bft) 100,00 %
08.04.2016 11:56 6,1 C 96 % 1010,1 hPa 0,0 l/m 3,8 km/h (1 Bft) S-SW 203 0 min 0,000 mm 0,0 UV-I 42 W/m 5,5 C 6,1 C 8,0 km/h (2 Bft) 96,30 %
08.04.2016 11:57 6,1 C 96 % 1010,1 hPa 0,0 l/m 3,4 km/h (1 Bft) W-SW 238 0 min 0,000 mm 0,0 UV-I 44 W/m 5,5 C 6,1 C 6,4 km/h (2 Bft) 96,15 %
08.04.2016 11:58 6,1 C 96 % 1010,0 hPa 0,0 l/m 5,4 km/h (1 Bft) W-SW 248 0 min 0,000 mm 0,0 UV-I 46 W/m 5,5 C 6,1 C 8,0 km/h (2 Bft) 96,30 %
08.04.2016 11:59 6,1 C 96 % 1010,0 hPa 0,0 l/m 8,4 km/h (2 Bft) W-SW 247 0 min 0,000 mm 0,0 UV-I 52 W/m 5,5 C 4,4 C 11,3 km/h (2 Bft) 100,00 %
08.04.2016 12:00 6,1 C 96 % 1010,1 hPa 0,0 l/m 5,7 km/h (1 Bft) W-SW 255 0 min 0,026 mm 0,0 UV-I 56 W/m 5,5 C 6,1 C 11,3 km/h (2 Bft) 96,15 %
08.04.2016 12:01 6,1 C 96 % 1010,1 hPa 0,0 l/m 8,6 km/h (2 Bft) SW 227 0 min 0,000 mm 0,0 UV-I 60 W/m 5,5 C 4,3 C 11,3 km/h (2 Bft) 96,15 %
08.04.2016 12:02 6,1 C 96 % 1010,0 hPa 0,0 l/m 8,0 km/h (2 Bft) W-SW 240 0 min 0,000 mm 0,0 UV-I 62 W/m 5,5 C 4,8 C 11,3 km/h (2 Bft) 100,00 %
08.04.2016 12:03 6,1 C 96 % 1010,0 hPa 0,0 l/m 11,3 km/h (2 Bft) SW 232 0 min 0,000 mm 0,0 UV-I 63 W/m 5,5 C 2,4 C 16,1 km/h (3 Bft) 95,83 %
08.04.2016 12:04 6,1 C 96 % 1010,0 hPa 0,0 l/m 9,8 km/h (2 Bft) W 267 0 min 0,000 mm 0,0 UV-I 64 W/m 5,5 C 3,4 C 14,5 km/h (3 Bft) 100,00 %
08.04.2016 12:05 6,1 C 96 % 1010,1 hPa 0,0 l/m 7,6 km/h (2 Bft) SW 225 0 min 0,000 mm 0,0 UV-I 65 W/m 5,5 C 5,1 C 11,3 km/h (2 Bft) 95,83 %
08.04.2016 12:06 6,1 C 96 % 1010,0 hPa 0,0 l/m 6,9 km/h (2 Bft) SW 229 0 min 0,000 mm 0,0 UV-I 64 W/m 5,5 C 5,7 C 12,9 km/h (3 Bft) 98,56 %
08.04.2016 12:07 6,1 C 96 % 1010,0 hPa 0,0 l/m 8,5 km/h (2 Bft) W-SW 243 0 min 0,000 mm 0,0 UV-I 66 W/m 5,5 C 4,4 C 11,3 km/h (2 Bft) 95,12 %
08.04.2016 12:08 6,1 C 96 % 1010,0 hPa 0,0 l/m 6,2 km/h (2 Bft) SW 223 0 min 0,000 mm 0,0 UV-I 72 W/m 5,5 C 6,1 C 8,0 km/h (2 Bft) 96,15 %
08.04.2016 12:09 6,1 C 96 % 1010,0 hPa 0,0 l/m 7,9 km/h (2 Bft) SW 228 0 min 0,000 mm 0,0 UV-I 74 W/m 5,5 C 4,8 C 9,7 km/h (2 Bft) 100,00 %
08.04.2016 12:10 6,2 C 96 % 1010,0 hPa 0,0 l/m 6,4 km/h (2 Bft) W-SW 254 0 min 0,000 mm 0,0 UV-I 74 W/m 5,6 C 6,2 C 8,0 km/h (2 Bft) 95,65 %
08.04.2016 12:11 6,2 C 96 % 1010,0 hPa 0,0 l/m 5,1 km/h (1 Bft) W-SW 251 0 min 0,000 mm 0,0 UV-I 74 W/m 5,6 C 6,2 C 6,4 km/h (2 Bft) 100,00 %
08.04.2016 12:12 6,2 C 96 % 1010,0 hPa 0,0 l/m 7,9 km/h (2 Bft) W-SW 245 0 min 0,000 mm 0,0 UV-I 74 W/m 5,6 C 4,9 C 12,9 km/h (3 Bft) 95,65 %
08.04.2016 12:13 6,2 C 96 % 1010,0 hPa 0,0 l/m 6,4 km/h (2 Bft) W-SW 249 0 min 0,000 mm 0,0 UV-I 76 W/m 5,6 C 6,2 C 9,7 km/h (2 Bft) 96,30 %
08.04.2016 12:14 6,2 C 96 % 1010,0 hPa 0,0 l/m 6,2 km/h (2 Bft) SW 221 0 min 0,000 mm 0,0 UV-I 79 W/m 5,6 C 6,2 C 8,0 km/h (2 Bft) 94,12 %
08.04.2016 12:15 6,2 C 96 % 1010,0 hPa 0,0 l/m 6,4 km/h (2 Bft) W-SW 245 0 min 0,000 mm 0,0 UV-I 79 W/m 5,6 C 6,2 C 9,7 km/h (2 Bft) 100,00 %
08.04.2016 12:16 6,2 C 96 % 1009,9 hPa 0,0 l/m 5,1 km/h (1 Bft) W-SW 242 0 min 0,000 mm 0,0 UV-I 78 W/m 5,6 C 6,2 C 8,0 km/h (2 Bft) 96,15 %
08.04.2016 12:17 6,2 C 96 % 1010,0 hPa 0,0 l/m 3,5 km/h (1 Bft) SW 215 0 min 0,000 mm 0,0 UV-I 80 W/m 5,6 C 6,2 C 4,8 km/h (1 Bft) 100,00 %
08.04.2016 12:18 6,2 C 96 % 1010,0 hPa 0,0 l/m 3,4 km/h (1 Bft) SW 236 0 min 0,000 mm 0,0 UV-I 87 W/m 5,6 C 6,2 C 4,8 km/h (1 Bft) 100,00 %
08.04.2016 12:19 6,2 C 96 % 1010,0 hPa 0,0 l/m 5,6 km/h (1 Bft) SW 231 0 min 0,000 mm 0,0 UV-I 90 W/m 5,6 C 6,2 C 9,7 km/h (2 Bft) 100,00 %
08.04.2016 12:20 6,2 C 96 % 1010,0 hPa 0,0 l/m 6,8 km/h (2 Bft) SW 232 0 min 0,000 mm 0,0 UV-I 93 W/m 5,6 C 5,9 C 9,7 km/h (2 Bft) 100,00 %
08.04.2016 12:21 6,3 C 96 % 1010,0 hPa 0,0 l/m 4,8 km/h (1 Bft) W-SW 250 0 min 0,000 mm 0,0 UV-I 92 W/m 5,7 C 6,3 C 6,4 km/h (2 Bft) 100,00 %
08.04.2016 12:22 6,3 C 97 % 1010,0 hPa 0,0 l/m 4,4 km/h (1 Bft) SW 223 0 min 0,000 mm 0,0 UV-I 90 W/m 5,9 C 6,3 C 6,4 km/h (2 Bft) 96,30 %
08.04.2016 12:23 6,3 C 97 % 1010,0 hPa 0,0 l/m 5,9 km/h (2 Bft) W-SW 246 0 min 0,000 mm 0,0 UV-I 90 W/m 5,9 C 6,3 C 11,3 km/h (2 Bft) 100,00 %
08.04.2016 12:24 6,3 C 97 % 1010,0 hPa 0,0 l/m 5,3 km/h (1 Bft) W 267 0 min 0,000 mm 0,0 UV-I 88 W/m 5,9 C 6,3 C 8,0 km/h (2 Bft) 96,30 %
08.04.2016 12:25 6,3 C 97 % 1010,0 hPa 0,0 l/m 4,7 km/h (1 Bft) W-SW 237 0 min 0,000 mm 0,0 UV-I 88 W/m 5,9 C 6,3 C 6,4 km/h (2 Bft) 96,15 %
08.04.2016 12:26 6,3 C 97 % 1010,0 hPa 0,0 l/m 3,5 km/h (1 Bft) S-SW 204 0 min 0,000 mm 0,0 UV-I 86 W/m 5,9 C 6,3 C 6,4 km/h (2 Bft) 100,00 %
08.04.2016 12:27 6,3 C 97 % 1010,0 hPa 0,0 l/m 6,4 km/h (2 Bft) SW 216 0 min 0,000 mm 0,0 UV-I 84 W/m 5,9 C 6,3 C 9,7 km/h (2 Bft) 100,00 %
08.04.2016 12:28 6,3 C 96 % 1009,9 hPa 0,0 l/m 6,7 km/h (2 Bft) W-SW 239 0 min 0,000 mm 0,0 UV-I 84 W/m 5,7 C 6,1 C 8,0 km/h (2 Bft) 100,00 %
08.04.2016 12:29 6,3 C 97 % 1010,0 hPa 0,0 l/m 5,8 km/h (2 Bft) SW 235 0 min 0,000 mm 0,0 UV-I 84 W/m 5,9 C 6,3 C 8,0 km/h (2 Bft) 100,00 %
08.04.2016 12:30 6,3 C 96 % 1010,0 hPa 0,0 l/m 4,7 km/h (1 Bft) SW 236 0 min 0,000 mm 0,0 UV-I 78 W/m 5,7 C 6,3 C 6,4 km/h (2 Bft) 94,87 %
08.04.2016 12:31 6,3 C 96 % 1010,0 hPa 0,0 l/m 3,6 km/h (1 Bft) SW 236 0 min 0,000 mm 0,0 UV-I 77 W/m 5,7 C 6,3 C 4,8 km/h (1 Bft) 100,00 %
08.04.2016 12:32 6,3 C 96 % 1010,0 hPa 0,0 l/m 3,8 km/h (1 Bft) SW 232 0 min 0,000 mm 0,0 UV-I 77 W/m 5,7 C 6,3 C 4,8 km/h (1 Bft) 100,00 %
08.04.2016 12:33 6,3 C 96 % 1010,0 hPa 0,0 l/m 4,8 km/h (1 Bft) SW 229 0 min 0,000 mm 0,0 UV-I 75 W/m 5,7 C 6,3 C 6,4 km/h (2 Bft) 100,00 %
08.04.2016 12:34 6,3 C 96 % 1009,9 hPa 0,0 l/m 5,2 km/h (1 Bft) W-SW 238 0 min 0,000 mm 0,0 UV-I 70 W/m 5,7 C 6,3 C 6,4 km/h (2 Bft) 100,00 %
08.04.2016 12:35 6,3 C 97 % 1010,0 hPa 0,0 l/m 5,8 km/h (2 Bft) SW 236 0 min 0,000 mm 0,0 UV-I 68 W/m 5,9 C 6,3 C 9,7 km/h (2 Bft) 96,55 %
08.04.2016 12:36 6,3 C 97 % 1009,9 hPa 0,0 l/m 4,2 km/h (1 Bft) W 266 0 min 0,000 mm 0,0 UV-I 67 W/m 5,9 C 6,3 C 6,4 km/h (2 Bft) 100,00 %
08.04.2016 12:37 6,3 C 97 % 1010,0 hPa 0,0 l/m 4,7 km/h (1 Bft) SW 228 0 min 0,000 mm 0,0 UV-I 70 W/m 5,9 C 6,3 C 8,0 km/h (2 Bft) 91,67 %
08.04.2016 12:38 6,3 C 97 % 1009,9 hPa 0,0 l/m 6,2 km/h (2 Bft) SW 225 0 min 0,000 mm 0,0 UV-I 71 W/m 5,9 C 6,3 C 9,7 km/h (2 Bft) 100,00 %
08.04.2016 12:39 6,4 C 97 % 1009,9 hPa 0,0 l/m 6,8 km/h (2 Bft) SW 229 0 min 0,000 mm 0,0 UV-I 72 W/m 6,0 C 6,1 C 9,7 km/h (2 Bft) 100,00 %
08.04.2016 12:40 6,3 C 97 % 1009,9 hPa 0,0 l/m 6,4 km/h (2 Bft) W-SW 237 0 min 0,000 mm 0,0 UV-I 72 W/m 5,9 C 6,3 C 9,7 km/h (2 Bft) 100,00 %
08.04.2016 12:41 6,3 C 97 % 1009,9 hPa 0,0 l/m 7,2 km/h (2 Bft) SW 236 0 min 0,000 mm 0,0 UV-I 73 W/m 5,9 C 5,6 C 12,9 km/h (3 Bft) 100,00 %
08.04.2016 12:42 6,3 C 97 % 1009,9 hPa 0,0 l/m 5,1 km/h (1 Bft) SW 226 0 min 0,000 mm 0,0 UV-I 77 W/m 5,9 C 6,3 C 8,0 km/h (2 Bft) 100,00 %
08.04.2016 12:43 6,3 C 97 % 1009,9 hPa 0,0 l/m 5,2 km/h (1 Bft) S-SW 213 0 min 0,000 mm 0,0 UV-I 79 W/m 5,9 C 6,3 C 6,4 km/h (2 Bft) 100,00 %
08.04.2016 12:44 6,4 C 97 % 1009,9 hPa 0,0 l/m 7,1 km/h (2 Bft) SW 225 0 min 0,000 mm 0,0 UV-I 80 W/m 6,0 C 5,8 C 9,7 km/h (2 Bft) 100,00 %
08.04.2016 12:45 6,4 C 97 % 1009,9 hPa 0,0 l/m 3,9 km/h (1 Bft) S-SW 205 0 min 0,000 mm 0,0 UV-I 75 W/m 6,0 C 6,4 C 6,4 km/h (2 Bft) 100,00 %
08.04.2016 12:46 6,3 C 97 % 1009,9 hPa 0,0 l/m 4,6 km/h (1 Bft) SW 221 0 min 0,000 mm 0,0 UV-I 69 W/m 5,9 C 6,3 C 6,4 km/h (2 Bft) 100,00 %
08.04.2016 12:47 6,4 C 97 % 1009,9 hPa 0,0 l/m 6,5 km/h (2 Bft) S-SW 196 0 min 0,000 mm 0,0 UV-I 67 W/m 6,0 C 6,3 C 9,7 km/h (2 Bft) 93,33 %
08.04.2016 12:48 6,4 C 97 % 1009,9 hPa 0,0 l/m 7,2 km/h (2 Bft) S 189 0 min 0,000 mm 0,0 UV-I 67 W/m 6,0 C 5,7 C 9,7 km/h (2 Bft) 100,00 %
08.04.2016 12:49 6,4 C 97 % 1009,8 hPa 0,0 l/m 6,5 km/h (2 Bft) S 175 0 min 0,000 mm 0,0 UV-I 72 W/m 6,0 C 6,3 C 8,0 km/h (2 Bft) 100,00 %
08.04.2016 12:50 6,4 C 97 % 1009,8 hPa 0,0 l/m 6,3 km/h (2 Bft) S 188 0 min 0,000 mm 0,0 UV-I 71 W/m 6,0 C 6,4 C 9,7 km/h (2 Bft) 100,00 %
08.04.2016 12:51 6,4 C 97 % 1009,8 hPa 0,0 l/m 7,5 km/h (2 Bft) S-SW 196 0 min 0,000 mm 0,0 UV-I 68 W/m 6,0 C 5,5 C 11,3 km/h (2 Bft) 100,00 %
08.04.2016 12:52 6,4 C 97 % 1009,8 hPa 0,0 l/m 5,8 km/h (2 Bft) SW 217 0 min 0,000 mm 0,0 UV-I 67 W/m 6,0 C 6,4 C 8,0 km/h (2 Bft) 100,00 %
08.04.2016 12:53 6,4 C 97 % 1009,8 hPa 0,0 l/m 6,8 km/h (2 Bft) SW 226 0 min 0,000 mm 0,0 UV-I 69 W/m 6,0 C 6,1 C 11,3 km/h (2 Bft) 100,00 %
08.04.2016 12:54 6,4 C 97 % 1009,7 hPa 0,0 l/m 4,6 km/h (1 Bft) SW 219 0 min 0,000 mm 0,0 UV-I 70 W/m 6,0 C 6,4 C 6,4 km/h (2 Bft) 100,00 %
08.04.2016 12:55 6,3 C 97 % 1009,8 hPa 0,0 l/m 5,6 km/h (1 Bft) W-SW 247 0 min 0,000 mm 0,0 UV-I 72 W/m 5,9 C 6,3 C 8,0 km/h (2 Bft) 100,00 %
08.04.2016 12:56 6,3 C 97 % 1009,8 hPa 0,0 l/m 5,9 km/h (2 Bft) S 185 0 min 0,000 mm 0,0 UV-I 73 W/m 5,9 C 6,3 C 6,4 km/h (2 Bft) 100,00 %
08.04.2016 12:57 6,3 C 96 % 1009,8 hPa 0,0 l/m 6,0 km/h (2 Bft) SW 223 0 min 0,000 mm 0,0 UV-I 75 W/m 5,7 C 6,3 C 11,3 km/h (2 Bft) 100,00 %
08.04.2016 12:58 6,3 C 96 % 1009,8 hPa 0,0 l/m 8,9 km/h (2 Bft) S-SW 206 0 min 0,000 mm 0,0 UV-I 79 W/m 5,7 C 4,3 C 12,9 km/h (3 Bft) 100,00 %
08.04.2016 12:59 6,3 C 96 % 1009,8 hPa 0,0 l/m 6,7 km/h (2 Bft) SW 221 0 min 0,000 mm 0,0 UV-I 83 W/m 5,7 C 6,1 C 9,7 km/h (2 Bft) 100,00 %
08.04.2016 13:00 6,3 C 96 % 1009,8 hPa 0,0 l/m 7,1 km/h (2 Bft) S-SW 211 0 min 0,025 mm 0,0 UV-I 86 W/m 5,7 C 5,7 C 9,7 km/h (2 Bft) 100,00 %
08.04.2016 13:01 6,3 C 96 % 1009,8 hPa 0,0 l/m 4,7 km/h (1 Bft) S 183 0 min 0,000 mm 0,0 UV-I 86 W/m 5,7 C 6,3 C 8,0 km/h (2 Bft) 95,83 %
08.04.2016 13:02 6,3 C 96 % 1009,7 hPa 0,0 l/m 7,1 km/h (2 Bft) S-SW 193 0 min 0,000 mm 0,0 UV-I 87 W/m 5,7 C 5,7 C 9,7 km/h (2 Bft) 100,00 %
08.04.2016 13:03 6,3 C 96 % 1009,7 hPa 0,0 l/m 5,2 km/h (1 Bft) SW 236 0 min 0,000 mm 0,0 UV-I 87 W/m 5,7 C 6,3 C 6,4 km/h (2 Bft) 95,65 %
08.04.2016 13:04 6,3 C 96 % 1009,7 hPa 0,0 l/m 5,7 km/h (1 Bft) S 188 0 min 0,000 mm 0,0 UV-I 87 W/m 5,7 C 6,3 C 9,7 km/h (2 Bft) 100,00 %
08.04.2016 13:05 6,3 C 96 % 1009,7 hPa 0,0 l/m 4,4 km/h (1 Bft) SW 234 0 min 0,000 mm 0,0 UV-I 88 W/m 5,7 C 6,3 C 8,0 km/h (2 Bft) 100,00 %
08.04.2016 13:06 6,3 C 96 % 1009,7 hPa 0,0 l/m 5,7 km/h (1 Bft) SW 225 0 min 0,000 mm 0,0 UV-I 88 W/m 5,7 C 6,3 C 9,7 km/h (2 Bft) 100,00 %
08.04.2016 13:07 6,4 C 97 % 1009,7 hPa 0,0 l/m 6,2 km/h (2 Bft) W-SW 254 0 min 0,000 mm 0,0 UV-I 89 W/m 6,0 C 6,4 C 9,7 km/h (2 Bft) 98,58 %
08.04.2016 13:08 6,4 C 97 % 1009,7 hPa 0,0 l/m 6,2 km/h (2 Bft) SW 227 0 min 0,000 mm 0,0 UV-I 90 W/m 6,0 C 6,4 C 8,0 km/h (2 Bft) 95,45 %
08.04.2016 13:09 6,4 C 97 % 1009,7 hPa 0,0 l/m 3,6 km/h (1 Bft) SW 236 0 min 0,000 mm 0,0 UV-I 91 W/m 6,0 C 6,4 C 6,4 km/h (2 Bft) 100,00 %
08.04.2016 13:10 6,4 C 97 % 1009,7 hPa 0,0 l/m 4,6 km/h (1 Bft) S 175 0 min 0,000 mm 0,0 UV-I 90 W/m 6,0 C 6,4 C 8,0 km/h (2 Bft) 100,00 %
08.04.2016 13:11 6,4 C 96 % 1009,7 hPa 0,0 l/m 5,1 km/h (1 Bft) SW 214 0 min 0,000 mm 0,0 UV-I 87 W/m 5,8 C 6,4 C 8,0 km/h (2 Bft) 100,00 %
08.04.2016 13:12 6,4 C 96 % 1009,7 hPa 0,0 l/m 6,0 km/h (2 Bft) S-SW 196 0 min 0,000 mm 0,0 UV-I 88 W/m 5,8 C 6,4 C 8,0 km/h (2 Bft) 100,00 %
08.04.2016 13:13 6,4 C 96 % 1009,7 hPa 0,0 l/m 4,9 km/h (1 Bft) SW 221 0 min 0,000 mm 0,0 UV-I 88 W/m 5,8 C 6,4 C 6,4 km/h (2 Bft) 100,00 %
08.04.2016 13:14 6,4 C 96 % 1009,7 hPa 0,0 l/m 5,7 km/h (1 Bft) SW 225 0 min 0,000 mm 0,0 UV-I 88 W/m 5,8 C 6,4 C 9,7 km/h (2 Bft) 100,00 %
08.04.2016 13:15 6,4 C 96 % 1009,7 hPa 0,0 l/m 5,4 km/h (1 Bft) S-SW 211 0 min 0,000 mm 0,0 UV-I 88 W/m 5,8 C 6,4 C 6,4 km/h (2 Bft) 100,00 %
08.04.2016 13:16 6,4 C 97 % 1009,7 hPa 0,0 l/m 4,8 km/h (1 Bft) S 188 0 min 0,000 mm 0,0 UV-I 88 W/m 6,0 C 6,4 C 6,4 km/h (2 Bft) 100,00 %
08.04.2016 13:17 6,4 C 96 % 1009,7 hPa 0,0 l/m 4,8 km/h (1 Bft) W-SW 245 0 min 0,000 mm 0,0 UV-I 88 W/m 5,8 C 6,4 C 6,4 km/h (2 Bft) 100,00 %
08.04.2016 13:18 6,5 C 96 % 1009,7 hPa 0,0 l/m 4,1 km/h (1 Bft) S-SW 207 0 min 0,000 mm 0,0 UV-I 91 W/m 5,9 C 6,5 C 6,4 km/h (2 Bft) 100,00 %
08.04.2016 13:19 6,6 C 96 % 1009,7 hPa 0,0 l/m 3,5 km/h (1 Bft) SW 217 0 min 0,000 mm 0,0 UV-I 94 W/m 6,0 C 6,6 C 4,8 km/h (1 Bft) 100,00 %
08.04.2016 13:20 6,6 C 96 % 1009,7 hPa 0,0 l/m 4,4 km/h (1 Bft) SW 216 0 min 0,000 mm 0,0 UV-I 97 W/m 6,0 C 6,6 C 6,4 km/h (2 Bft) 100,00 %
08.04.2016 13:21 6,6 C 96 % 1009,7 hPa 0,0 l/m 5,9 km/h (2 Bft) S-SW 205 0 min 0,000 mm 0,0 UV-I 98 W/m 6,0 C 6,6 C 9,7 km/h (2 Bft) 100,00 %
08.04.2016 13:22 6,6 C 96 % 1009,7 hPa 0,0 l/m 4,1 km/h (1 Bft) S-SW 196 0 min 0,000 mm 0,0 UV-I 98 W/m 6,0 C 6,6 C 6,4 km/h (2 Bft) 100,00 %
08.04.2016 13:23 6,6 C 96 % 1009,7 hPa 0,0 l/m 4,2 km/h (1 Bft) S 186 0 min 0,000 mm 0,0 UV-I 98 W/m 6,0 C 6,6 C 4,8 km/h (1 Bft) 100,00 %
08.04.2016 13:24 6,6 C 96 % 1009,7 hPa 0,0 l/m 4,4 km/h (1 Bft) S 191 0 min 0,000 mm 0,4 UV-I 100 W/m 6,0 C 6,6 C 8,0 km/h (2 Bft) 100,00 %
08.04.2016 13:25 6,7 C 97 % 1009,7 hPa 0,0 l/m 7,1 km/h (2 Bft) SW 235 0 min 0,000 mm 0,0 UV-I 98 W/m 6,3 C 6,1 C 9,7 km/h (2 Bft) 96,30 %
08.04.2016 13:26 6,6 C 97 % 1009,7 hPa 0,0 l/m 4,7 km/h (1 Bft) S-SO 162 0 min 0,000 mm 0,5 UV-I 100 W/m 6,2 C 6,6 C 9,7 km/h (2 Bft) 96,15 %
08.04.2016 13:27 6,6 C 96 % 1009,7 hPa 0,0 l/m 7,2 km/h (2 Bft) S 190 0 min 0,000 mm 0,5 UV-I 100 W/m 6,0 C 5,9 C 9,7 km/h (2 Bft) 100,00 %
08.04.2016 13:28 6,6 C 97 % 1009,6 hPa 0,0 l/m 6,1 km/h (2 Bft) SW 227 0 min 0,000 mm 0,5 UV-I 100 W/m 6,2 C 6,6 C 8,0 km/h (2 Bft) 100,00 %
08.04.2016 13:29 6,6 C 96 % 1009,6 hPa 0,0 l/m 5,8 km/h (2 Bft) SW 232 0 min 0,000 mm 0,5 UV-I 100 W/m 6,0 C 6,6 C 8,0 km/h (2 Bft) 100,00 %
08.04.2016 13:30 6,6 C 96 % 1009,6 hPa 0,0 l/m 7,3 km/h (2 Bft) SW 219 0 min 0,000 mm 0,5 UV-I 102 W/m 6,0 C 5,8 C 9,7 km/h (2 Bft) 100,00 %
08.04.2016 13:31 6,6 C 96 % 1009,6 hPa 0,0 l/m 6,3 km/h (2 Bft) S 183 0 min 0,000 mm 0,5 UV-I 102 W/m 6,0 C 6,6 C 8,0 km/h (2 Bft) 100,00 %
08.04.2016 13:32 6,7 C 96 % 1009,6 hPa 0,0 l/m 5,6 km/h (1 Bft) S-SW 210 0 min 0,000 mm 0,3 UV-I 101 W/m 6,1 C 6,7 C 6,4 km/h (2 Bft) 100,00 %
08.04.2016 13:33 6,7 C 96 % 1009,6 hPa 0,0 l/m 5,8 km/h (2 Bft) SW 223 0 min 0,000 mm 0,2 UV-I 100 W/m 6,1 C 6,7 C 8,0 km/h (2 Bft) 100,00 %
08.04.2016 13:34 6,7 C 97 % 1009,6 hPa 0,0 l/m 7,7 km/h (2 Bft) S-SW 197 0 min 0,000 mm 0,2 UV-I 100 W/m 6,3 C 5,6 C 12,9 km/h (3 Bft) 92,31 %
08.04.2016 13:35 6,7 C 97 % 1009,6 hPa 0,0 l/m 5,6 km/h (1 Bft) S-SW 192 0 min 0,000 mm 0,0 UV-I 94 W/m 6,3 C 6,7 C 9,7 km/h (2 Bft) 100,00 %
08.04.2016 13:36 6,7 C 97 % 1009,6 hPa 0,0 l/m 7,4 km/h (2 Bft) S-SW 213 0 min 0,000 mm 0,0 UV-I 97 W/m 6,3 C 5,9 C 9,7 km/h (2 Bft) 96,15 %
08.04.2016 13:37 6,7 C 97 % 1009,6 hPa 0,0 l/m 7,3 km/h (2 Bft) S 185 0 min 0,000 mm 0,0 UV-I 97 W/m 6,3 C 6,0 C 11,3 km/h (2 Bft) 100,00 %
08.04.2016 13:38 6,8 C 97 % 1009,5 hPa 0,0 l/m 5,5 km/h (1 Bft) S-SW 198 0 min 0,000 mm 0,0 UV-I 97 W/m 6,4 C 6,8 C 8,0 km/h (2 Bft) 100,00 %
08.04.2016 13:39 6,7 C 96 % 1009,5 hPa 0,0 l/m 7,0 km/h (2 Bft) S 170 0 min 0,000 mm 0,0 UV-I 97 W/m 6,1 C 6,2 C 9,7 km/h (2 Bft) 100,00 %
08.04.2016 13:40 6,8 C 96 % 1009,6 hPa 0,0 l/m 5,0 km/h (1 Bft) S 186 0 min 0,000 mm 0,0 UV-I 95 W/m 6,2 C 6,8 C 8,0 km/h (2 Bft) 95,65 %
08.04.2016 13:41 6,8 C 97 % 1009,6 hPa 0,0 l/m 4,0 km/h (1 Bft) S-SW 193 0 min 0,000 mm 0,0 UV-I 93 W/m 6,4 C 6,8 C 6,4 km/h (2 Bft) 100,00 %
08.04.2016 13:42 6,8 C 97 % 1009,5 hPa 0,0 l/m 5,4 km/h (1 Bft) S 178 0 min 0,000 mm 0,0 UV-I 94 W/m 6,4 C 6,8 C 6,4 km/h (2 Bft) 100,00 %
08.04.2016 13:43 6,8 C 96 % 1009,5 hPa 0,0 l/m 7,3 km/h (2 Bft) S-SW 196 0 min 0,000 mm 0,0 UV-I 94 W/m 6,2 C 6,1 C 9,7 km/h (2 Bft) 100,00 %
08.04.2016 13:44 6,8 C 96 % 1009,6 hPa 0,0 l/m 6,4 km/h (2 Bft) S 185 0 min 0,000 mm 0,0 UV-I 97 W/m 6,2 C 6,8 C 8,0 km/h (2 Bft) 95,83 %
08.04.2016 13:45 6,8 C 97 % 1009,5 hPa 0,0 l/m 5,4 km/h (1 Bft) SW 224 0 min 0,000 mm 0,0 UV-I 98 W/m 6,4 C 6,8 C 8,0 km/h (2 Bft) 96,15 %
08.04.2016 13:46 6,8 C 97 % 1009,5 hPa 0,0 l/m 4,2 km/h (1 Bft) S-SW 200 0 min 0,000 mm 0,0 UV-I 100 W/m 6,4 C 6,8 C 8,0 km/h (2 Bft) 100,00 %
08.04.2016 13:47 6,8 C 96 % 1009,5 hPa 0,0 l/m 8,3 km/h (2 Bft) S 179 0 min 0,000 mm 0,0 UV-I 100 W/m 6,2 C 5,3 C 9,7 km/h (2 Bft) 95,65 %
08.04.2016 13:48 6,8 C 96 % 1009,5 hPa 0,0 l/m 5,5 km/h (1 Bft) S 188 0 min 0,000 mm 0,0 UV-I 102 W/m 6,2 C 6,8 C 8,0 km/h (2 Bft) 100,00 %
08.04.2016 13:49 6,8 C 96 % 1009,5 hPa 0,0 l/m 5,2 km/h (1 Bft) S-SW 209 0 min 0,000 mm 0,0 UV-I 101 W/m 6,2 C 6,8 C 8,0 km/h (2 Bft) 92,86 %
08.04.2016 13:50 6,8 C 96 % 1009,5 hPa 0,0 l/m 4,2 km/h (1 Bft) S-SW 192 0 min 0,000 mm 0,0 UV-I 98 W/m 6,2 C 6,8 C 6,4 km/h (2 Bft) 100,00 %
08.04.2016 13:51 6,8 C 96 % 1009,5 hPa 0,0 l/m 5,3 km/h (1 Bft) SW 221 0 min 0,000 mm 0,0 UV-I 94 W/m 6,2 C 6,8 C 9,7 km/h (2 Bft) 96,55 %
08.04.2016 13:52 6,8 C 96 % 1009,4 hPa 0,0 l/m 4,7 km/h (1 Bft) SW 221 0 min 0,000 mm 0,0 UV-I 91 W/m 6,2 C 6,8 C 6,4 km/h (2 Bft) 95,83 %
08.04.2016 13:53 6,8 C 96 % 1009,5 hPa 0,0 l/m 6,4 km/h (2 Bft) SW 229 0 min 0,000 mm 0,0 UV-I 88 W/m 6,2 C 6,8 C 8,0 km/h (2 Bft) 100,00 %
08.04.2016 13:54 6,8 C 96 % 1009,4 hPa 0,0 l/m 3,2 km/h (1 Bft) S-SW 192 0 min 0,000 mm 0,0 UV-I 85 W/m 6,2 C 6,8 C 6,4 km/h (2 Bft) 92,59 %
08.04.2016 13:55 6,8 C 96 % 1009,4 hPa 0,0 l/m 5,6 km/h (1 Bft) S 190 0 min 0,000 mm 0,0 UV-I 84 W/m 6,2 C 6,8 C 9,7 km/h (2 Bft) 95,65 %
08.04.2016 13:56 6,8 C 96 % 1009,4 hPa 0,0 l/m 5,1 km/h (1 Bft) S 190 0 min 0,000 mm 0,0 UV-I 82 W/m 6,2 C 6,8 C 8,0 km/h (2 Bft) 86,67 %
08.04.2016 13:57 6,8 C 96 % 1009,4 hPa 0,0 l/m 7,9 km/h (2 Bft) S-SW 205 0 min 0,000 mm 0,0 UV-I 81 W/m 6,2 C 5,6 C 9,7 km/h (2 Bft) 100,00 %
08.04.2016 13:58 6,8 C 96 % 1009,4 hPa 0,0 l/m 7,8 km/h (2 Bft) S-SW 209 0 min 0,000 mm 0,0 UV-I 79 W/m 6,2 C 5,6 C 14,5 km/h (3 Bft) 96,55 %
08.04.2016 13:59 6,8 C 96 % 1009,4 hPa 0,0 l/m 8,0 km/h (2 Bft) SW 233 0 min 0,000 mm 0,0 UV-I 77 W/m 6,2 C 5,5 C 11,3 km/h (2 Bft) 92,31 %
08.04.2016 14:00 6,8 C 96 % 1009,4 hPa 0,0 l/m 3,6 km/h (1 Bft) SW 236 0 min 0,000 mm 0,0 UV-I 75 W/m 6,2 C 6,8 C 6,4 km/h (2 Bft) 100,00 %
08.04.2016 14:01 6,8 C 96 % 1009,4 hPa 0,0 l/m 5,0 km/h (1 Bft) S 189 0 min 0,051 mm 0,0 UV-I 71 W/m 6,2 C 6,8 C 8,0 km/h (2 Bft) 95,83 %
08.04.2016 14:02 6,8 C 96 % 1009,4 hPa 0,0 l/m 6,4 km/h (2 Bft) SW 221 0 min 0,000 mm 0,0 UV-I 69 W/m 6,2 C 6,8 C 8,0 km/h (2 Bft) 100,00 %
08.04.2016 14:03 6,8 C 96 % 1009,4 hPa 0,0 l/m 5,4 km/h (1 Bft) W-SW 251 0 min 0,000 mm 0,0 UV-I 65 W/m 6,2 C 6,8 C 9,7 km/h (2 Bft) 100,00 %
08.04.2016 14:04 6,8 C 96 % 1009,3 hPa 0,0 l/m 7,6 km/h (2 Bft) S 187 0 min 0,000 mm 0,0 UV-I 62 W/m 6,2 C 5,8 C 9,7 km/h (2 Bft) 94,12 %
08.04.2016 14:05 6,7 C 96 % 1009,3 hPa 0,0 l/m 5,4 km/h (1 Bft) SW 230 0 min 0,000 mm 0,0 UV-I 60 W/m 6,1 C 6,7 C 6,4 km/h (2 Bft) 97,62 %
08.04.2016 14:06 6,8 C 96 % 1009,3 hPa 0,0 l/m 7,2 km/h (2 Bft) S 175 0 min 0,000 mm 0,0 UV-I 58 W/m 6,2 C 6,1 C 11,3 km/h (2 Bft) 100,00 %
08.04.2016 14:07 6,8 C 96 % 1009,3 hPa 0,0 l/m 7,9 km/h (2 Bft) SW 229 0 min 0,000 mm 0,0 UV-I 57 W/m 6,2 C 5,6 C 9,7 km/h (2 Bft) 96,67 %
08.04.2016 14:08 6,8 C 96 % 1009,3 hPa 0,0 l/m 4,8 km/h (1 Bft) SW 219 0 min 0,000 mm 0,0 UV-I 56 W/m 6,2 C 6,8 C 6,4 km/h (2 Bft) 100,00 %
08.04.2016 14:09 6,8 C 96 % 1009,3 hPa 0,0 l/m 5,1 km/h (1 Bft) S 190 0 min 0,000 mm 0,0 UV-I 57 W/m 6,2 C 6,8 C 8,0 km/h (2 Bft) 96,30 %
08.04.2016 14:10 6,8 C 96 % 1009,3 hPa 0,0 l/m 6,1 km/h (2 Bft) W-SW 252 0 min 0,000 mm 0,0 UV-I 58 W/m 6,2 C 6,8 C 8,0 km/h (2 Bft) 94,12 %
08.04.2016 14:11 6,8 C 96 % 1009,3 hPa 0,0 l/m 5,2 km/h (1 Bft) W-SW 242 0 min 0,000 mm 0,0 UV-I 58 W/m 6,2 C 6,8 C 8,0 km/h (2 Bft) 100,00 %
08.04.2016 14:12 6,8 C 96 % 1009,3 hPa 0,0 l/m 7,3 km/h (2 Bft) W-SW 249 0 min 0,000 mm 0,0 UV-I 58 W/m 6,2 C 6,1 C 9,7 km/h (2 Bft) 96,15 %
08.04.2016 14:13 6,8 C 96 % 1009,3 hPa 0,0 l/m 6,1 km/h (2 Bft) W-SW 245 0 min 0,000 mm 0,0 UV-I 57 W/m 6,2 C 6,8 C 9,7 km/h (2 Bft) 100,00 %
08.04.2016 14:14 6,8 C 96 % 1009,3 hPa 0,0 l/m 6,7 km/h (2 Bft) SW 228 0 min 0,000 mm 0,0 UV-I 56 W/m 6,2 C 6,6 C 9,7 km/h (2 Bft) 95,65 %
08.04.2016 14:15 6,8 C 96 % 1009,3 hPa 0,0 l/m 6,7 km/h (2 Bft) W-SW 238 0 min 0,000 mm 0,0 UV-I 56 W/m 6,2 C 6,6 C 11,3 km/h (2 Bft) 100,00 %
08.04.2016 14:16 6,9 C 96 % 1009,3 hPa 0,0 l/m 7,1 km/h (2 Bft) W-SW 248 0 min 0,000 mm 0,0 UV-I 54 W/m 6,3 C 6,3 C 9,7 km/h (2 Bft) 95,65 %
08.04.2016 14:17 6,8 C 96 % 1009,3 hPa 0,0 l/m 5,3 km/h (1 Bft) SW 220 0 min 0,000 mm 0,0 UV-I 52 W/m 6,2 C 6,8 C 8,0 km/h (2 Bft) 98,53 %
08.04.2016 14:18 6,9 C 96 % 1009,3 hPa 0,0 l/m 5,5 km/h (1 Bft) S 180 0 min 0,000 mm 0,0 UV-I 50 W/m 6,3 C 6,9 C 8,0 km/h (2 Bft) 100,00 %
08.04.2016 14:19 6,8 C 96 % 1009,3 hPa 0,0 l/m 5,6 km/h (1 Bft) SW 228 0 min 0,000 mm 0,0 UV-I 49 W/m 6,2 C 6,8 C 11,3 km/h (2 Bft) 95,83 %
08.04.2016 14:20 6,8 C 96 % 1009,3 hPa 0,0 l/m 7,6 km/h (2 Bft) W-SW 238 0 min 0,000 mm 0,0 UV-I 52 W/m 6,2 C 5,8 C 11,3 km/h (2 Bft) 100,00 %
08.04.2016 14:21 6,8 C 96 % 1009,3 hPa 0,0 l/m 9,0 km/h (2 Bft) SW 235 0 min 0,000 mm 0,0 UV-I 54 W/m 6,2 C 4,7 C 11,3 km/h (2 Bft) 96,15 %
08.04.2016 14:22 6,8 C 96 % 1009,3 hPa 0,0 l/m 6,7 km/h (2 Bft) S 190 0 min 0,000 mm 0,0 UV-I 54 W/m 6,2 C 6,6 C 9,7 km/h (2 Bft) 100,00 %
08.04.2016 14:23 6,8 C 96 % 1009,2 hPa 0,0 l/m 4,8 km/h (1 Bft) W-SW 242 0 min 0,000 mm 0,0 UV-I 53 W/m 6,2 C 6,8 C 8,0 km/h (2 Bft) 100,00 %
08.04.2016 14:24 6,8 C 96 % 1009,3 hPa 0,2 l/m 6,8 km/h (2 Bft) W-SW 240 0 min 0,000 mm 0,0 UV-I 51 W/m 6,2 C 6,5 C 12,9 km/h (3 Bft) 100,00 %
08.04.2016 14:25 6,8 C 96 % 1009,3 hPa 0,0 l/m 4,4 km/h (1 Bft) S 186 0 min 0,000 mm 0,0 UV-I 50 W/m 6,2 C 6,8 C 6,4 km/h (2 Bft) 100,00 %
08.04.2016 14:26 6,8 C 96 % 1009,3 hPa 0,0 l/m 7,8 km/h (2 Bft) S-SW 209 0 min 0,000 mm 0,0 UV-I 48 W/m 6,2 C 5,6 C 11,3 km/h (2 Bft) 96,30 %
08.04.2016 14:27 6,8 C 96 % 1009,3 hPa 0,0 l/m 5,4 km/h (1 Bft) W-SW 237 0 min 0,000 mm 0,0 UV-I 46 W/m 6,2 C 6,8 C 8,0 km/h (2 Bft) 100,00 %
08.04.2016 14:28 6,8 C 96 % 1009,3 hPa 0,0 l/m 8,0 km/h (2 Bft) W-SW 244 0 min 0,000 mm 0,0 UV-I 46 W/m 6,2 C 5,5 C 11,3 km/h (2 Bft) 100,00 %
08.04.2016 14:29 6,8 C 96 % 1009,3 hPa 0,0 l/m 6,3 km/h (2 Bft) SW 229 0 min 0,000 mm 0,0 UV-I 48 W/m 6,2 C 6,8 C 8,0 km/h (2 Bft) 100,00 %
08.04.2016 14:30 6,8 C 96 % 1009,3 hPa 0,0 l/m 6,0 km/h (2 Bft) W-SW 249 0 min 0,000 mm 0,0 UV-I 50 W/m 6,2 C 6,8 C 11,3 km/h (2 Bft) 95,83 %
08.04.2016 14:31 6,8 C 96 % 1009,2 hPa 0,0 l/m 5,1 km/h (1 Bft) W-SW 252 0 min 0,000 mm 0,0 UV-I 52 W/m 6,2 C 6,8 C 8,0 km/h (2 Bft) 100,00 %
08.04.2016 14:32 6,8 C 96 % 1009,3 hPa 0,0 l/m 6,3 km/h (2 Bft) W-SW 252 0 min 0,000 mm 0,0 UV-I 55 W/m 6,2 C 6,8 C 11,3 km/h (2 Bft) 100,00 %
08.04.2016 14:33 6,8 C 96 % 1009,3 hPa 0,2 l/m 5,7 km/h (1 Bft) W-SW 258 0 min 0,000 mm 0,0 UV-I 59 W/m 6,2 C 6,8 C 8,0 km/h (2 Bft) 100,00 %
08.04.2016 14:34 6,8 C 96 % 1009,2 hPa 0,0 l/m 8,9 km/h (2 Bft) W-SW 242 0 min 0,000 mm 0,0 UV-I 62 W/m 6,2 C 4,8 C 12,9 km/h (3 Bft) 94,74 %
08.04.2016 14:35 6,8 C 96 % 1009,2 hPa 0,0 l/m 6,5 km/h (2 Bft) SW 234 0 min 0,000 mm 0,0 UV-I 63 W/m 6,2 C 6,7 C 11,3 km/h (2 Bft) 100,00 %
08.04.2016 14:36 6,8 C 96 % 1009,2 hPa 0,0 l/m 8,5 km/h (2 Bft) W-SW 246 0 min 0,000 mm 0,0 UV-I 63 W/m 6,2 C 5,1 C 11,3 km/h (2 Bft) 100,00 %
08.04.2016 14:37 6,8 C 96 % 1009,2 hPa 0,0 l/m 4,7 km/h (1 Bft) W-SW 250 0 min 0,000 mm 0,0 UV-I 62 W/m 6,2 C 6,8 C 8,0 km/h (2 Bft) 91,67 %
08.04.2016 14:38 6,8 C 96 % 1009,3 hPa 0,0 l/m 7,6 km/h (2 Bft) W-SW 246 0 min 0,000 mm 0,0 UV-I 59 W/m 6,2 C 5,8 C 11,3 km/h (2 Bft) 100,00 %
08.04.2016 14:39 6,8 C 96 % 1009,3 hPa 0,0 l/m 5,6 km/h (1 Bft) SW 225 0 min 0,000 mm 0,0 UV-I 54 W/m 6,2 C 6,8 C 8,0 km/h (2 Bft) 100,00 %
08.04.2016 14:40 6,8 C 96 % 1009,3 hPa 0,0 l/m 6,0 km/h (2 Bft) SW 221 0 min 0,000 mm 0,0 UV-I 50 W/m 6,2 C 6,8 C 8,0 km/h (2 Bft) 98,54 %
08.04.2016 14:41 6,8 C 96 % 1009,3 hPa 0,0 l/m 5,6 km/h (1 Bft) W-SW 244 0 min 0,000 mm 0,0 UV-I 45 W/m 6,2 C 6,8 C 8,0 km/h (2 Bft) 97,44 %
08.04.2016 14:42 6,8 C 96 % 1009,3 hPa 0,0 l/m 4,7 km/h (1 Bft) W-SW 257 0 min 0,000 mm 0,0 UV-I 40 W/m 6,2 C 6,8 C 6,4 km/h (2 Bft) 100,00 %
08.04.2016 14:43 6,8 C 96 % 1009,2 hPa 0,2 l/m 7,5 km/h (2 Bft) SW 232 0 min 0,000 mm 0,0 UV-I 37 W/m 6,2 C 5,9 C 9,7 km/h (2 Bft) 100,00 %
08.04.2016 14:44 6,8 C 96 % 1009,2 hPa 0,0 l/m 5,5 km/h (1 Bft) W-SW 240 0 min 0,000 mm 0,0 UV-I 33 W/m 6,2 C 6,8 C 9,7 km/h (2 Bft) 95,65 %
08.04.2016 14:45 6,7 C 96 % 1009,2 hPa 0,0 l/m 4,7 km/h (1 Bft) W-SW 242 0 min 0,000 mm 0,0 UV-I 32 W/m 6,1 C 6,7 C 6,4 km/h (2 Bft) 100,00 %
08.04.2016 14:46 6,7 C 96 % 1009,2 hPa 0,0 l/m 3,8 km/h (1 Bft) W-SW 249 0 min 0,000 mm 0,0 UV-I 32 W/m 6,1 C 6,7 C 4,8 km/h (1 Bft) 95,65 %
08.04.2016 14:47 6,7 C 95 % 1009,2 hPa 0,0 l/m 4,0 km/h (1 Bft) W-SW 253 0 min 0,000 mm 0,0 UV-I 37 W/m 6,0 C 6,7 C 4,8 km/h (1 Bft) 100,00 %
08.04.2016 14:48 6,7 C 95 % 1009,2 hPa 0,0 l/m 4,6 km/h (1 Bft) W 269 0 min 0,000 mm 0,0 UV-I 45 W/m 6,0 C 6,7 C 9,7 km/h (2 Bft) 100,00 %
08.04.2016 14:49 6,7 C 96 % 1009,2 hPa 0,0 l/m 4,4 km/h (1 Bft) W-NW 292 0 min 0,000 mm 0,0 UV-I 52 W/m 6,1 C 6,7 C 6,4 km/h (2 Bft) 100,00 %
08.04.2016 14:50 6,7 C 96 % 1009,3 hPa 0,0 l/m 3,1 km/h (1 Bft) W-NW 292 0 min 0,000 mm 0,0 UV-I 58 W/m 6,1 C 6,7 C 4,8 km/h (1 Bft) 100,00 %
08.04.2016 14:51 6,7 C 96 % 1009,2 hPa 0,0 l/m 3,4 km/h (1 Bft) W 271 0 min 0,000 mm 0,0 UV-I 62 W/m 6,1 C 6,7 C 4,8 km/h (1 Bft) 100,00 %
08.04.2016 14:52 6,7 C 96 % 1009,2 hPa 0,2 l/m 5,9 km/h (2 Bft) W 272 0 min 0,000 mm 0,0 UV-I 63 W/m 6,1 C 6,7 C 11,3 km/h (2 Bft) 81,82 %
08.04.2016 14:53 6,7 C 96 % 1009,3 hPa 0,0 l/m 3,3 km/h (1 Bft) W-SW 252 0 min 0,000 mm 0,0 UV-I 65 W/m 6,1 C 6,7 C 6,4 km/h (2 Bft) 96,30 %
08.04.2016 14:54 6,7 C 96 % 1009,2 hPa 0,0 l/m 5,6 km/h (1 Bft) W 259 0 min 0,000 mm 0,0 UV-I 65 W/m 6,1 C 6,7 C 9,7 km/h (2 Bft) 100,00 %
08.04.2016 14:55 6,7 C 96 % 1009,2 hPa 0,2 l/m 4,6 km/h (1 Bft) W-SW 257 0 min 0,000 mm 0,0 UV-I 66 W/m 6,1 C 6,7 C 6,4 km/h (2 Bft) 100,00 %
08.04.2016 14:56 6,8 C 96 % 1009,2 hPa 0,0 l/m 2,3 km/h (1 Bft) W 261 0 min 0,000 mm 0,0 UV-I 69 W/m 6,2 C 6,8 C 3,2 km/h (1 Bft) 100,00 %
08.04.2016 14:57 6,8 C 96 % 1009,2 hPa 0,0 l/m 3,1 km/h (1 Bft) W 261 0 min 0,000 mm 0,0 UV-I 69 W/m 6,2 C 6,8 C 4,8 km/h (1 Bft) 100,00 %
08.04.2016 14:58 6,8 C 96 % 1009,2 hPa 0,0 l/m 2,7 km/h (1 Bft) W 261 0 min 0,000 mm 0,0 UV-I 70 W/m 6,2 C 6,8 C 3,2 km/h (1 Bft) 100,00 %
08.04.2016 14:59 6,8 C 96 % 1009,2 hPa 0,2 l/m 2,6 km/h (1 Bft) W 261 0 min 0,000 mm 0,0 UV-I 70 W/m 6,2 C 6,8 C 4,8 km/h (1 Bft) 92,59 %
08.04.2016 15:00 6,8 C 96 % 1009,2 hPa 0,0 l/m 3,0 km/h (1 Bft) W-SW 239 0 min 0,025 mm 0,0 UV-I 68 W/m 6,2 C 6,8 C 4,8 km/h (1 Bft) 100,00 %
08.04.2016 15:01 6,8 C 96 % 1009,2 hPa 0,0 l/m 4,1 km/h (1 Bft) W-SW 250 0 min 0,000 mm 0,0 UV-I 66 W/m 6,2 C 6,8 C 6,4 km/h (2 Bft) 100,00 %
08.04.2016 15:02 6,8 C 96 % 1009,2 hPa 0,0 l/m 3,0 km/h (1 Bft) W-SW 250 0 min 0,000 mm 0,0 UV-I 65 W/m 6,2 C 6,8 C 4,8 km/h (1 Bft) 100,00 %
08.04.2016 15:03 6,8 C 96 % 1009,1 hPa 0,0 l/m 3,1 km/h (1 Bft) W-NW 284 0 min 0,000 mm 0,0 UV-I 65 W/m 6,2 C 6,8 C 4,8 km/h (1 Bft) 100,00 %
08.04.2016 15:04 6,9 C 96 % 1009,2 hPa 0,0 l/m 2,9 km/h (1 Bft) W-SW 245 0 min 0,000 mm 0,0 UV-I 62 W/m 6,3 C 6,9 C 4,8 km/h (1 Bft) 95,83 %
08.04.2016 15:05 6,9 C 96 % 1009,1 hPa 0,0 l/m 2,7 km/h (1 Bft) W-SW 245 0 min 0,000 mm 0,0 UV-I 60 W/m 6,3 C 6,9 C 3,2 km/h (1 Bft) 92,86 %
08.04.2016 15:06 6,9 C 96 % 1009,1 hPa 0,0 l/m 4,3 km/h (1 Bft) SW 232 0 min 0,000 mm 0,0 UV-I 59 W/m 6,3 C 6,9 C 6,4 km/h (2 Bft) 100,00 %
08.04.2016 15:07 6,8 C 96 % 1009,1 hPa 0,2 l/m 4,2 km/h (1 Bft) W-SW 247 0 min 0,000 mm 0,0 UV-I 58 W/m 6,2 C 6,8 C 6,4 km/h (2 Bft) 100,00 %
08.04.2016 15:08 6,8 C 96 % 1009,1 hPa 0,0 l/m 2,7 km/h (1 Bft) W-SW 247 0 min 0,000 mm 0,0 UV-I 55 W/m 6,2 C 6,8 C 4,8 km/h (1 Bft) 96,30 %
08.04.2016 15:09 6,8 C 96 % 1009,1 hPa 0,0 l/m 3,3 km/h (1 Bft) W-SW 245 0 min 0,000 mm 0,0 UV-I 52 W/m 6,2 C 6,8 C 6,4 km/h (2 Bft) 100,00 %
08.04.2016 15:10 6,8 C 96 % 1009,1 hPa 0,0 l/m 3,8 km/h (1 Bft) W-SW 244 0 min 0,000 mm 0,0 UV-I 48 W/m 6,2 C 6,8 C 4,8 km/h (1 Bft) 100,00 %
08.04.2016 15:11 6,8 C 96 % 1009,1 hPa 0,2 l/m 2,0 km/h (1 Bft) W-SW 244 0 min 0,000 mm 0,0 UV-I 47 W/m 6,2 C 6,8 C 3,2 km/h (1 Bft) 100,00 %
08.04.2016 15:12 6,8 C 96 % 1009,1 hPa 0,0 l/m 0,4 km/h (0 Bft) W-SW 244 0 min 0,000 mm 0,0 UV-I 45 W/m 6,2 C 6,8 C 1,6 km/h (1 Bft) 100,00 %
08.04.2016 15:13 6,8 C 96 % 1009,1 hPa 0,0 l/m 1,4 km/h (1 Bft) W-SW 244 0 min 0,000 mm 0,0 UV-I 41 W/m 6,2 C 6,8 C 3,2 km/h (1 Bft) 100,00 %
08.04.2016 15:14 6,8 C 96 % 1009,1 hPa 0,2 l/m 1,9 km/h (1 Bft) W-SW 244 0 min 0,000 mm 0,0 UV-I 39 W/m 6,2 C 6,8 C 3,2 km/h (1 Bft) 100,00 %
08.04.2016 15:15 6,8 C 96 % 1009,0 hPa 0,0 l/m 2,9 km/h (1 Bft) NW 308 0 min 0,000 mm 0,0 UV-I 37 W/m 6,2 C 6,8 C 6,4 km/h (2 Bft) 100,00 %
08.04.2016 15:16 6,8 C 96 % 1009,0 hPa 0,0 l/m 1,6 km/h (1 Bft) W-NW 294 0 min 0,000 mm 0,0 UV-I 36 W/m 6,2 C 6,8 C 3,2 km/h (1 Bft) 100,00 %
08.04.2016 15:17 6,8 C 96 % 1009,0 hPa 0,0 l/m 1,4 km/h (1 Bft) W-NW 284 0 min 0,000 mm 0,0 UV-I 36 W/m 6,2 C 6,8 C 4,8 km/h (1 Bft) 100,00 %
08.04.2016 15:18 6,8 C 96 % 1009,0 hPa 0,0 l/m 3,8 km/h (1 Bft) W 269 0 min 0,000 mm 0,0 UV-I 37 W/m 6,2 C 6,8 C 4,8 km/h (1 Bft) 100,00 %
08.04.2016 15:19 6,8 C 96 % 1009,0 hPa 0,2 l/m 2,8 km/h (1 Bft) W 269 0 min 0,000 mm 0,0 UV-I 38 W/m 6,2 C 6,8 C 4,8 km/h (1 Bft) 100,00 %
08.04.2016 15:20 6,8 C 96 % 1009,0 hPa 0,0 l/m 3,1 km/h (1 Bft) W 275 0 min 0,000 mm 0,0 UV-I 42 W/m 6,2 C 6,8 C 4,8 km/h (1 Bft) 100,00 %
08.04.2016 15:21 6,7 C 96 % 1009,0 hPa 0,0 l/m 1,6 km/h (1 Bft) W 275 0 min 0,000 mm 0,0 UV-I 46 W/m 6,1 C 6,7 C 3,2 km/h (1 Bft) 100,00 %
08.04.2016 15:22 6,7 C 96 % 1009,0 hPa 0,0 l/m 0,8 km/h (0 Bft) W 275 0 min 0,000 mm 0,0 UV-I 53 W/m 6,1 C 6,7 C 1,6 km/h (1 Bft) 100,00 %
08.04.2016 15:23 6,7 C 96 % 1009,0 hPa 0,0 l/m 0,0 km/h (0 Bft) W 275 0 min 0,000 mm 0,0 UV-I 60 W/m 6,1 C 6,7 C 0,0 km/h (0 Bft) 100,00 %
08.04.2016 15:24 6,7 C 96 % 1009,0 hPa 0,0 l/m 2,0 km/h (1 Bft) W 275 0 min 0,000 mm 0,0 UV-I 68 W/m 6,1 C 6,7 C 3,2 km/h (1 Bft) 95,65 %
08.04.2016 15:25 6,7 C 96 % 1009,0 hPa 0,2 l/m 2,2 km/h (1 Bft) W 275 0 min 0,000 mm 0,0 UV-I 81 W/m 6,1 C 6,7 C 3,2 km/h (1 Bft) 100,00 %
08.04.2016 15:26 6,7 C 96 % 1009,0 hPa 0,0 l/m 1,9 km/h (1 Bft) W 275 0 min 0,000 mm 0,0 UV-I 92 W/m 6,1 C 6,7 C 4,8 km/h (1 Bft) 100,00 %
08.04.2016 15:27 6,7 C 96 % 1009,0 hPa 0,0 l/m 3,8 km/h (1 Bft) NW 311 0 min 0,000 mm 0,0 UV-I 98 W/m 6,1 C 6,7 C 6,4 km/h (2 Bft) 96,55 %
08.04.2016 15:28 6,7 C 96 % 1008,9 hPa 0,0 l/m 0,8 km/h (0 Bft) NW 311 0 min 0,000 mm 0,0 UV-I 101 W/m 6,1 C 6,7 C 1,6 km/h (1 Bft) 100,00 %
08.04.2016 15:29 6,7 C 96 % 1008,9 hPa 0,0 l/m 2,7 km/h (1 Bft) W-SW 251 0 min 0,000 mm 0,0 UV-I 100 W/m 6,1 C 6,7 C 4,8 km/h (1 Bft) 100,00 %
08.04.2016 15:30 6,8 C 96 % 1009,0 hPa 0,0 l/m 3,7 km/h (1 Bft) W-SW 238 0 min 0,000 mm 0,0 UV-I 104 W/m 6,2 C 6,8 C 4,8 km/h (1 Bft) 95,65 %
08.04.2016 15:31 6,8 C 96 % 1008,9 hPa 0,0 l/m 7,4 km/h (2 Bft) W-SW 252 0 min 0,000 mm 0,3 UV-I 108 W/m 6,2 C 6,0 C 11,3 km/h (2 Bft) 100,00 %
08.04.2016 15:32 6,8 C 96 % 1008,9 hPa 0,0 l/m 6,2 km/h (2 Bft) W-SW 252 0 min 0,000 mm 0,2 UV-I 107 W/m 6,2 C 6,8 C 9,7 km/h (2 Bft) 98,56 %
08.04.2016 15:33 6,8 C 96 % 1009,0 hPa 0,0 l/m 5,2 km/h (1 Bft) W 262 0 min 0,000 mm 0,0 UV-I 107 W/m 6,2 C 6,8 C 6,4 km/h (2 Bft) 100,00 %
08.04.2016 15:34 6,8 C 96 % 1008,9 hPa 0,0 l/m 4,4 km/h (1 Bft) W-SW 248 0 min 0,000 mm 0,1 UV-I 107 W/m 6,2 C 6,8 C 6,4 km/h (2 Bft) 100,00 %
08.04.2016 15:35 6,8 C 96 % 1009,0 hPa 0,0 l/m 3,4 km/h (1 Bft) W-SW 246 0 min 0,000 mm 0,5 UV-I 110 W/m 6,2 C 6,8 C 4,8 km/h (1 Bft) 100,00 %
08.04.2016 15:36 6,8 C 96 % 1008,9 hPa 0,0 l/m 5,5 km/h (1 Bft) SW 232 0 min 0,000 mm 0,3 UV-I 110 W/m 6,2 C 6,8 C 8,0 km/h (2 Bft) 100,00 %
08.04.2016 15:37 6,8 C 96 % 1008,9 hPa 0,0 l/m 5,4 km/h (1 Bft) SW 232 0 min 0,000 mm 0,0 UV-I 109 W/m 6,2 C 6,8 C 6,4 km/h (2 Bft) 100,00 %
08.04.2016 15:38 6,8 C 96 % 1008,9 hPa 0,0 l/m 6,4 km/h (2 Bft) W-SW 238 0 min 0,000 mm 0,0 UV-I 109 W/m 6,2 C 6,8 C 9,7 km/h (2 Bft) 100,00 %
08.04.2016 15:39 6,8 C 96 % 1008,9 hPa 0,0 l/m 5,6 km/h (1 Bft) W 267 0 min 0,000 mm 0,0 UV-I 108 W/m 6,2 C 6,8 C 8,0 km/h (2 Bft) 100,00 %
08.04.2016 15:40 6,8 C 96 % 1008,9 hPa 0,0 l/m 4,3 km/h (1 Bft) W 269 0 min 0,000 mm 0,0 UV-I 107 W/m 6,2 C 6,8 C 6,4 km/h (2 Bft) 98,58 %
08.04.2016 15:41 6,8 C 96 % 1008,9 hPa 0,2 l/m 3,9 km/h (1 Bft) W 266 0 min 0,000 mm 0,0 UV-I 106 W/m 6,2 C 6,8 C 4,8 km/h (1 Bft) 100,00 %
08.04.2016 15:42 6,8 C 96 % 1008,9 hPa 0,0 l/m 6,8 km/h (2 Bft) W 263 0 min 0,000 mm 0,0 UV-I 104 W/m 6,2 C 6,5 C 9,7 km/h (2 Bft) 100,00 %
08.04.2016 15:43 6,8 C 96 % 1008,9 hPa 0,0 l/m 4,0 km/h (1 Bft) W-SW 254 0 min 0,000 mm 0,0 UV-I 101 W/m 6,2 C 6,8 C 6,4 km/h (2 Bft) 100,00 %
08.04.2016 15:44 6,8 C 96 % 1008,8 hPa 0,0 l/m 3,4 km/h (1 Bft) W-SW 254 0 min 0,000 mm 0,0 UV-I 96 W/m 6,2 C 6,8 C 4,8 km/h (1 Bft) 95,83 %
08.04.2016 15:45 6,8 C 96 % 1008,9 hPa 0,0 l/m 3,3 km/h (1 Bft) W 262 0 min 0,000 mm 0,0 UV-I 89 W/m 6,2 C 6,8 C 4,8 km/h (1 Bft) 96,15 %
08.04.2016 15:46 6,8 C 96 % 1008,8 hPa 0,0 l/m 3,0 km/h (1 Bft) W-NW 285 0 min 0,000 mm 0,0 UV-I 88 W/m 6,2 C 6,8 C 4,8 km/h (1 Bft) 100,00 %
08.04.2016 15:47 6,8 C 96 % 1008,8 hPa 0,0 l/m 4,0 km/h (1 Bft) W 267 0 min 0,000 mm 0,0 UV-I 89 W/m 6,2 C 6,8 C 6,4 km/h (2 Bft) 92,31 %
08.04.2016 15:48 6,8 C 96 % 1008,9 hPa 0,0 l/m 3,4 km/h (1 Bft) W 267 0 min 0,000 mm 0,0 UV-I 91 W/m 6,2 C 6,8 C 4,8 km/h (1 Bft) 100,00 %
08.04.2016 15:49 6,8 C 96 % 1008,8 hPa 0,0 l/m 5,9 km/h (2 Bft) W 265 0 min 0,000 mm 0,0 UV-I 91 W/m 6,2 C 6,8 C 6,4 km/h (2 Bft) 98,57 %
08.04.2016 15:50 6,8 C 96 % 1008,8 hPa 0,0 l/m 3,2 km/h (1 Bft) W 270 0 min 0,000 mm 0,0 UV-I 91 W/m 6,2 C 6,8 C 6,4 km/h (2 Bft) 99,12 %
08.04.2016 15:55 6,9 C 96 % 1008,8 hPa 0,0 l/m 3,2 km/h (1 Bft) W 270 0 min 0,000 mm 0,0 UV-I 96 W/m 6,3 C 6,9 C 6,4 km/h (2 Bft) 99,12 %
08.04.2016 16:00 6,9 C 96 % 1008,8 hPa 0,0 l/m 3,2 km/h (1 Bft) W-SW 247 0 min 0,025 mm 0,0 UV-I 81 W/m 6,3 C 6,9 C 6,4 km/h (2 Bft) 100,00 %
08.04.2016 16:05 7,0 C 96 % 1008,8 hPa 0,0 l/m 3,2 km/h (1 Bft) SW 225 0 min 0,000 mm 0,0 UV-I 76 W/m 6,4 C 7,0 C 4,8 km/h (1 Bft) 100,00 %
08.04.2016 16:10 7,0 C 96 % 1008,8 hPa 0,0 l/m 1,6 km/h (1 Bft) SW 225 0 min 0,000 mm 0,0 UV-I 70 W/m 6,4 C 7,0 C 4,8 km/h (1 Bft) 100,00 %
08.04.2016 16:15 6,9 C 95 % 1008,8 hPa 0,2 l/m 4,8 km/h (1 Bft) SW 225 0 min 0,000 mm 0,0 UV-I 72 W/m 6,2 C 6,9 C 8,0 km/h (2 Bft) 100,00 %
08.04.2016 16:20 6,9 C 95 % 1008,7 hPa 0,0 l/m 3,2 km/h (1 Bft) W-SW 247 0 min 0,000 mm 0,0 UV-I 73 W/m 6,2 C 6,9 C 6,4 km/h (2 Bft) 99,12 %
08.04.2016 16:24 7,0 C 95 % 1008,7 hPa 0,0 l/m 0,0 km/h (0 Bft) SW 214 0 min 0,001 mm 0,0 UV-I 64 W/m 6,3 C 7,0 C 0,0 km/h (0 Bft) 75,00 %
08.04.2016 16:25 7,0 C 95 % 1008,7 hPa 0,0 l/m 2,0 km/h (1 Bft) SW 214 0 min 0,000 mm 0,0 UV-I 62 W/m 6,3 C 7,0 C 3,2 km/h (1 Bft) 100,00 %
08.04.2016 16:26 6,9 C 95 % 1008,7 hPa 0,0 l/m 0,8 km/h (0 Bft) SW 214 0 min 0,000 mm 0,0 UV-I 58 W/m 6,2 C 6,9 C 3,2 km/h (1 Bft) 100,00 %
08.04.2016 16:27 6,9 C 95 % 1008,7 hPa 0,0 l/m 1,2 km/h (1 Bft) SW 222 0 min 0,000 mm 0,0 UV-I 56 W/m 6,2 C 6,9 C 1,6 km/h (1 Bft) 96,15 %
08.04.2016 16:28 7,0 C 95 % 1008,7 hPa 0,0 l/m 0,8 km/h (0 Bft) SW 230 0 min 0,000 mm 0,0 UV-I 56 W/m 6,3 C 7,0 C 3,2 km/h (1 Bft) 100,00 %
08.04.2016 16:29 7,0 C 95 % 1008,7 hPa 0,0 l/m 1,6 km/h (1 Bft) SW 230 0 min 0,000 mm 0,0 UV-I 56 W/m 6,3 C 7,0 C 3,2 km/h (1 Bft) 100,00 %
08.04.2016 16:30 7,0 C 95 % 1008,7 hPa 0,0 l/m 1,9 km/h (1 Bft) SW 230 0 min 0,000 mm 0,0 UV-I 58 W/m 6,3 C 7,0 C 3,2 km/h (1 Bft) 100,00 %
08.04.2016 16:31 7,0 C 95 % 1008,7 hPa 0,0 l/m 3,0 km/h (1 Bft) W-SW 238 0 min 0,000 mm 0,0 UV-I 58 W/m 6,3 C 7,0 C 4,8 km/h (1 Bft) 100,00 %
08.04.2016 16:32 7,0 C 95 % 1008,7 hPa 0,0 l/m 2,2 km/h (1 Bft) W-SW 241 0 min 0,000 mm 0,0 UV-I 58 W/m 6,3 C 7,0 C 3,2 km/h (1 Bft) 100,00 %
08.04.2016 16:35 7,0 C 95 % 1008,7 hPa 0,0 l/m 0,0 km/h (0 Bft) W-SW 241 0 min 0,000 mm 0,0 UV-I 53 W/m 6,3 C 7,0 C 0,0 km/h (0 Bft) 98,57 %
08.04.2016 16:36 7,0 C 95 % 1008,6 hPa 0,0 l/m 0,4 km/h (0 Bft) W-SW 241 0 min 0,000 mm 0,0 UV-I 49 W/m 6,3 C 7,0 C 1,6 km/h (1 Bft) 100,00 %
08.04.2016 16:37 7,0 C 95 % 1008,6 hPa 0,0 l/m 0,9 km/h (0 Bft) W-SW 241 0 min 0,000 mm 0,0 UV-I 47 W/m 6,3 C 7,0 C 1,6 km/h (1 Bft) 100,00 %
08.04.2016 16:38 7,0 C 95 % 1008,6 hPa 0,0 l/m 1,1 km/h (1 Bft) W-SW 241 0 min 0,000 mm 0,0 UV-I 47 W/m 6,3 C 7,0 C 1,6 km/h (1 Bft) 100,00 %
08.04.2016 16:39 7,0 C 95 % 1008,6 hPa 0,0 l/m 1,4 km/h (1 Bft) W-SW 241 0 min 0,000 mm 0,0 UV-I 50 W/m 6,3 C 7,0 C 3,2 km/h (1 Bft) 100,00 %
08.04.2016 16:40 7,0 C 95 % 1008,6 hPa 0,2 l/m 2,7 km/h (1 Bft) W-SW 241 0 min 0,000 mm 0,0 UV-I 52 W/m 6,3 C 7,0 C 3,2 km/h (1 Bft) 100,00 %
08.04.2016 16:41 7,0 C 95 % 1008,6 hPa 0,0 l/m 1,8 km/h (1 Bft) W-SW 241 0 min 0,000 mm 0,0 UV-I 57 W/m 6,3 C 7,0 C 3,2 km/h (1 Bft) 100,00 %
08.04.2016 16:42 7,1 C 95 % 1008,6 hPa 0,0 l/m 2,4 km/h (1 Bft) W-SW 241 0 min 0,000 mm 0,0 UV-I 60 W/m 6,4 C 7,1 C 3,2 km/h (1 Bft) 95,65 %
08.04.2016 16:43 7,1 C 95 % 1008,6 hPa 0,0 l/m 1,3 km/h (1 Bft) W-SW 241 0 min 0,000 mm 0,0 UV-I 62 W/m 6,4 C 7,1 C 3,2 km/h (1 Bft) 100,00 %
08.04.2016 16:44 7,1 C 95 % 1008,6 hPa 0,0 l/m 1,5 km/h (1 Bft) W-SW 241 0 min 0,000 mm 0,0 UV-I 62 W/m 6,4 C 7,1 C 3,2 km/h (1 Bft) 100,00 %
08.04.2016 16:45 7,0 C 95 % 1008,6 hPa 0,0 l/m 0,7 km/h (0 Bft) W-SW 241 0 min 0,000 mm 0,0 UV-I 63 W/m 6,3 C 7,0 C 1,6 km/h (1 Bft) 100,00 %
08.04.2016 16:46 7,1 C 95 % 1008,6 hPa 0,0 l/m 1,7 km/h (1 Bft) W-SW 241 0 min 0,000 mm 0,0 UV-I 63 W/m 6,4 C 7,1 C 3,2 km/h (1 Bft) 100,00 %
08.04.2016 16:47 7,1 C 95 % 1008,6 hPa 0,0 l/m 2,3 km/h (1 Bft) W-SW 241 0 min 0,000 mm 0,0 UV-I 62 W/m 6,4 C 7,1 C 3,2 km/h (1 Bft) 100,00 %
08.04.2016 16:48 7,1 C 95 % 1008,6 hPa 0,0 l/m 3,0 km/h (1 Bft) W-SW 241 0 min 0,000 mm 0,0 UV-I 62 W/m 6,4 C 7,1 C 3,2 km/h (1 Bft) 95,65 %
08.04.2016 16:49 7,0 C 95 % 1008,5 hPa 0,0 l/m 2,4 km/h (1 Bft) W-SW 241 0 min 0,000 mm 0,0 UV-I 60 W/m 6,3 C 7,0 C 4,8 km/h (1 Bft) 95,83 %
08.04.2016 16:50 7,0 C 95 % 1008,6 hPa 0,0 l/m 2,2 km/h (1 Bft) W-SW 241 0 min 0,000 mm 0,0 UV-I 60 W/m 6,3 C 7,0 C 3,2 km/h (1 Bft) 100,00 %
08.04.2016 16:51 7,0 C 95 % 1008,6 hPa 0,0 l/m 1,4 km/h (1 Bft) W-SW 241 0 min 0,000 mm 0,0 UV-I 61 W/m 6,3 C 7,0 C 1,6 km/h (1 Bft) 100,00 %
08.04.2016 16:52 7,0 C 95 % 1008,6 hPa 0,0 l/m 1,7 km/h (1 Bft) W-SW 241 0 min 0,000 mm 0,0 UV-I 62 W/m 6,3 C 7,0 C 3,2 km/h (1 Bft) 100,00 %
08.04.2016 16:53 7,0 C 95 % 1008,6 hPa 0,0 l/m 1,0 km/h (0 Bft) W-SW 241 0 min 0,000 mm 0,0 UV-I 63 W/m 6,3 C 7,0 C 3,2 km/h (1 Bft) 100,00 %
08.04.2016 16:54 7,0 C 95 % 1008,7 hPa 0,0 l/m 1,5 km/h (1 Bft) W-SW 241 0 min 0,000 mm 0,0 UV-I 67 W/m 6,3 C 7,0 C 3,2 km/h (1 Bft) 100,00 %
08.04.2016 16:55 7,0 C 95 % 1008,6 hPa 0,0 l/m 1,6 km/h (1 Bft) W-SW 247 0 min 0,000 mm 0,0 UV-I 66 W/m 6,3 C 7,0 C 4,8 km/h (1 Bft) 100,00 %
08.04.2016 17:00 7,0 C 95 % 1008,6 hPa 0,0 l/m 1,6 km/h (1 Bft) W-SW 247 0 min 0,025 mm 0,0 UV-I 76 W/m 6,3 C 7,0 C 4,8 km/h (1 Bft) 99,12 %
08.04.2016 17:05 7,0 C 95 % 1008,6 hPa 0,2 l/m 1,6 km/h (1 Bft) W-SW 247 0 min 0,000 mm 0,0 UV-I 68 W/m 6,3 C 7,0 C 3,2 km/h (1 Bft) 99,12 %
08.04.2016 17:10 7,1 C 95 % 1008,5 hPa 0,0 l/m 1,6 km/h (1 Bft) W-SW 247 0 min 0,000 mm 0,0 UV-I 47 W/m 6,4 C 7,1 C 4,8 km/h (1 Bft) 100,00 %
08.04.2016 17:13 7,0 C 95 % 1008,5 hPa 0,0 l/m 2,0 km/h (1 Bft) SW 215 0 min 0,000 mm 0,0 UV-I 45 W/m 6,3 C 7,0 C 3,2 km/h (1 Bft) 99,34 %
08.04.2016 17:15 7,0 C 95 % 1008,5 hPa 0,0 l/m 1,6 km/h (1 Bft) SW 225 0 min 0,000 mm 0,0 UV-I 34 W/m 6,3 C 7,0 C 3,2 km/h (1 Bft) 100,00 %
08.04.2016 17:19 6,9 C 95 % 1008,5 hPa 0,0 l/m 0,4 km/h (0 Bft) SW 219 0 min 0,000 mm 0,0 UV-I 28 W/m 6,2 C 6,9 C 1,6 km/h (1 Bft) 99,26 %
08.04.2016 17:20 6,9 C 95 % 1008,5 hPa 0,0 l/m 0,8 km/h (0 Bft) W-SW 246 0 min 0,000 mm 0,0 UV-I 20 W/m 6,2 C 6,9 C 4,8 km/h (1 Bft) 100,00 %
08.04.2016 17:21 6,9 C 95 % 1008,5 hPa 0,2 l/m 1,9 km/h (1 Bft) W 259 0 min 0,000 mm 0,0 UV-I 19 W/m 6,2 C 6,9 C 3,2 km/h (1 Bft) 100,00 %
08.04.2016 17:22 6,9 C 95 % 1008,5 hPa 0,0 l/m 1,4 km/h (1 Bft) W 259 0 min 0,000 mm 0,0 UV-I 19 W/m 6,2 C 6,9 C 3,2 km/h (1 Bft) 100,00 %
08.04.2016 17:23 6,9 C 95 % 1008,5 hPa 0,0 l/m 2,3 km/h (1 Bft) W 260 0 min 0,000 mm 0,0 UV-I 19 W/m 6,2 C 6,9 C 3,2 km/h (1 Bft) 95,65 %
08.04.2016 17:24 6,9 C 95 % 1008,5 hPa 0,0 l/m 0,6 km/h (0 Bft) W 260 0 min 0,000 mm 0,0 UV-I 19 W/m 6,2 C 6,9 C 1,6 km/h (1 Bft) 100,00 %
08.04.2016 17:25 6,9 C 95 % 1008,5 hPa 0,0 l/m 3,3 km/h (1 Bft) W-NW 300 0 min 0,000 mm 0,0 UV-I 19 W/m 6,2 C 6,9 C 4,8 km/h (1 Bft) 100,00 %
08.04.2016 17:26 6,9 C 95 % 1008,5 hPa 0,0 l/m 2,8 km/h (1 Bft) NW 321 0 min 0,000 mm 0,0 UV-I 19 W/m 6,2 C 6,9 C 4,8 km/h (1 Bft) 100,00 %
08.04.2016 17:27 6,8 C 95 % 1008,5 hPa 0,0 l/m 1,2 km/h (1 Bft) N-NW 327 0 min 0,000 mm 0,0 UV-I 19 W/m 6,1 C 6,8 C 3,2 km/h (1 Bft) 100,00 %
08.04.2016 17:28 6,8 C 95 % 1008,5 hPa 0,0 l/m 1,5 km/h (1 Bft) NW 319 0 min 0,000 mm 0,0 UV-I 19 W/m 6,1 C 6,8 C 3,2 km/h (1 Bft) 96,30 %
08.04.2016 17:29 6,8 C 95 % 1008,5 hPa 0,0 l/m 2,1 km/h (1 Bft) NW 319 0 min 0,000 mm 0,0 UV-I 19 W/m 6,1 C 6,8 C 3,2 km/h (1 Bft) 95,65 %
08.04.2016 17:30 6,8 C 95 % 1008,5 hPa 0,2 l/m 1,3 km/h (1 Bft) NW 323 0 min 0,000 mm 0,0 UV-I 19 W/m 6,1 C 6,8 C 3,2 km/h (1 Bft) 93,33 %
08.04.2016 17:31 6,8 C 95 % 1008,5 hPa 0,0 l/m 1,5 km/h (1 Bft) NW 322 0 min 0,000 mm 0,0 UV-I 19 W/m 6,1 C 6,8 C 3,2 km/h (1 Bft) 95,65 %
08.04.2016 17:32 6,8 C 95 % 1008,5 hPa 0,0 l/m 1,8 km/h (1 Bft) NW 313 0 min 0,000 mm 0,0 UV-I 19 W/m 6,1 C 6,8 C 4,8 km/h (1 Bft) 100,00 %
08.04.2016 17:33 6,8 C 95 % 1008,5 hPa 0,0 l/m 2,2 km/h (1 Bft) NW 317 0 min 0,000 mm 0,0 UV-I 19 W/m 6,1 C 6,8 C 3,2 km/h (1 Bft) 100,00 %
08.04.2016 17:34 6,8 C 96 % 1008,4 hPa 0,0 l/m 0,9 km/h (0 Bft) NW 317 0 min 0,000 mm 0,0 UV-I 19 W/m 6,2 C 6,8 C 1,6 km/h (1 Bft) 100,00 %
08.04.2016 17:35 6,8 C 96 % 1008,4 hPa 0,0 l/m 0,2 km/h (0 Bft) NW 317 0 min 0,000 mm 0,0 UV-I 19 W/m 6,2 C 6,8 C 1,6 km/h (1 Bft) 88,46 %
08.04.2016 17:36 6,8 C 95 % 1008,5 hPa 0,0 l/m 0,6 km/h (0 Bft) NW 317 0 min 0,000 mm 0,0 UV-I 21 W/m 6,1 C 6,8 C 1,6 km/h (1 Bft) 100,00 %
08.04.2016 17:37 6,8 C 96 % 1008,5 hPa 0,0 l/m 0,7 km/h (0 Bft) NW 317 0 min 0,000 mm 0,0 UV-I 21 W/m 6,2 C 6,8 C 1,6 km/h (1 Bft) 100,00 %
08.04.2016 17:38 6,8 C 96 % 1008,5 hPa 0,0 l/m 1,4 km/h (1 Bft) NW 317 0 min 0,000 mm 0,0 UV-I 23 W/m 6,2 C 6,8 C 3,2 km/h (1 Bft) 100,00 %
08.04.2016 17:39 6,8 C 96 % 1008,5 hPa 0,0 l/m 0,6 km/h (0 Bft) NW 317 0 min 0,000 mm 0,0 UV-I 23 W/m 6,2 C 6,8 C 1,6 km/h (1 Bft) 100,00 %
08.04.2016 17:40 6,8 C 96 % 1008,5 hPa 0,0 l/m 2,6 km/h (1 Bft) W-NW 300 0 min 0,000 mm 0,0 UV-I 25 W/m 6,2 C 6,8 C 4,8 km/h (1 Bft) 100,00 %
08.04.2016 17:41 6,8 C 96 % 1008,5 hPa 0,0 l/m 1,9 km/h (1 Bft) NW 306 0 min 0,000 mm 0,0 UV-I 25 W/m 6,2 C 6,8 C 4,8 km/h (1 Bft) 96,30 %
08.04.2016 17:42 6,8 C 96 % 1008,4 hPa 0,0 l/m 1,1 km/h (1 Bft) NW 310 0 min 0,000 mm 0,0 UV-I 25 W/m 6,2 C 6,8 C 1,6 km/h (1 Bft) 92,86 %
08.04.2016 17:43 6,7 C 96 % 1008,5 hPa 0,0 l/m 2,0 km/h (1 Bft) NW 325 0 min 0,000 mm 0,0 UV-I 25 W/m 6,1 C 6,7 C 4,8 km/h (1 Bft) 100,00 %
08.04.2016 17:44 6,7 C 96 % 1008,4 hPa 0,0 l/m 1,9 km/h (1 Bft) NW 313 0 min 0,000 mm 0,0 UV-I 26 W/m 6,1 C 6,7 C 3,2 km/h (1 Bft) 96,15 %
08.04.2016 17:45 6,7 C 95 % 1008,4 hPa 0,2 l/m 1,2 km/h (1 Bft) NW 313 0 min 0,000 mm 0,0 UV-I 25 W/m 6,0 C 6,7 C 1,6 km/h (1 Bft) 96,30 %
08.04.2016 17:46 6,7 C 95 % 1008,5 hPa 0,0 l/m 0,0 km/h (0 Bft) NW 313 0 min 0,000 mm 0,0 UV-I 25 W/m 6,0 C 6,7 C 0,0 km/h (0 Bft) 100,00 %
08.04.2016 17:47 6,6 C 95 % 1008,4 hPa 0,0 l/m 1,9 km/h (1 Bft) N-NW 328 0 min 0,000 mm 0,0 UV-I 23 W/m 5,9 C 6,6 C 4,8 km/h (1 Bft) 96,30 %
08.04.2016 17:48 6,6 C 95 % 1008,5 hPa 0,0 l/m 0,1 km/h (0 Bft) N-NW 328 0 min 0,000 mm 0,0 UV-I 23 W/m 5,9 C 6,6 C 1,6 km/h (1 Bft) 96,15 %
08.04.2016 17:49 6,6 C 95 % 1008,5 hPa 0,0 l/m 0,5 km/h (0 Bft) N-NW 331 0 min 0,000 mm 0,0 UV-I 24 W/m 5,9 C 6,6 C 1,6 km/h (1 Bft) 91,67 %
08.04.2016 17:50 6,7 C 95 % 1008,5 hPa 0,0 l/m 0,0 km/h (0 Bft) N-NW 331 0 min 0,000 mm 0,0 UV-I 25 W/m 6,0 C 6,7 C 0,0 km/h (0 Bft) 100,00 %
08.04.2016 17:51 6,7 C 95 % 1008,5 hPa 0,0 l/m 0,0 km/h (0 Bft) N-NW 331 0 min 0,000 mm 0,0 UV-I 26 W/m 6,0 C 6,7 C 0,0 km/h (0 Bft) 95,83 %
08.04.2016 17:52 6,7 C 95 % 1008,4 hPa 0,0 l/m 0,1 km/h (0 Bft) N-NW 331 0 min 0,000 mm 0,0 UV-I 26 W/m 6,0 C 6,7 C 1,6 km/h (1 Bft) 100,00 %
08.04.2016 17:53 6,7 C 95 % 1008,4 hPa 0,0 l/m 0,1 km/h (0 Bft) N-NW 331 0 min 0,000 mm 0,0 UV-I 28 W/m 6,0 C 6,7 C 1,6 km/h (1 Bft) 95,83 %
08.04.2016 17:54 6,7 C 95 % 1008,4 hPa 0,0 l/m 0,5 km/h (0 Bft) N-NW 331 0 min 0,000 mm 0,0 UV-I 31 W/m 6,0 C 6,7 C 1,6 km/h (1 Bft) 91,30 %
08.04.2016 17:55 6,7 C 95 % 1008,4 hPa 0,0 l/m 0,6 km/h (0 Bft) N-NW 331 0 min 0,000 mm 0,0 UV-I 34 W/m 6,0 C 6,7 C 1,6 km/h (1 Bft) 96,30 %
08.04.2016 17:56 6,7 C 95 % 1008,4 hPa 0,0 l/m 0,7 km/h (0 Bft) N-NW 331 0 min 0,000 mm 0,0 UV-I 36 W/m 6,0 C 6,7 C 1,6 km/h (1 Bft) 100,00 %
08.04.2016 17:57 6,7 C 95 % 1008,4 hPa 0,0 l/m 1,4 km/h (1 Bft) N-NW 331 0 min 0,000 mm 0,0 UV-I 38 W/m 6,0 C 6,7 C 3,2 km/h (1 Bft) 97,37 %
08.04.2016 17:58 6,7 C 96 % 1008,4 hPa 0,0 l/m 0,1 km/h (0 Bft) N-NW 331 0 min 0,000 mm 0,0 UV-I 39 W/m 6,1 C 6,7 C 1,6 km/h (1 Bft) 98,50 %
08.04.2016 17:59 6,7 C 95 % 1008,4 hPa 0,0 l/m 0,1 km/h (0 Bft) N-NW 331 0 min 0,000 mm 0,0 UV-I 40 W/m 6,0 C 6,7 C 1,6 km/h (1 Bft) 97,56 %
08.04.2016 18:00 6,7 C 95 % 1008,4 hPa 0,2 l/m 0,3 km/h (0 Bft) N-NW 331 0 min 0,000 mm 0,0 UV-I 40 W/m 6,0 C 6,7 C 1,6 km/h (1 Bft) 96,30 %
08.04.2016 18:01 6,7 C 96 % 1008,5 hPa 0,0 l/m 0,0 km/h (0 Bft) N-NW 331 0 min 0,025 mm 0,0 UV-I 41 W/m 6,1 C 6,7 C 0,0 km/h (0 Bft) 91,30 %
08.04.2016 18:02 6,8 C 96 % 1008,4 hPa 0,0 l/m 0,0 km/h (0 Bft) N-NW 331 0 min 0,000 mm 0,0 UV-I 42 W/m 6,2 C 6,8 C 0,0 km/h (0 Bft) 100,00 %
08.04.2016 18:03 6,8 C 96 % 1008,4 hPa 0,0 l/m 0,0 km/h (0 Bft) N-NW 331 0 min 0,000 mm 0,0 UV-I 42 W/m 6,2 C 6,8 C 0,0 km/h (0 Bft) 95,65 %
08.04.2016 18:04 6,8 C 96 % 1008,4 hPa 0,0 l/m 0,0 km/h (0 Bft) N-NW 331 0 min 0,000 mm 0,0 UV-I 44 W/m 6,2 C 6,8 C 0,0 km/h (0 Bft) 91,67 %
08.04.2016 18:05 6,7 C 96 % 1008,4 hPa 0,0 l/m 0,2 km/h (0 Bft) N-NW 331 0 min 0,000 mm 0,0 UV-I 44 W/m 6,1 C 6,7 C 1,6 km/h (1 Bft) 92,86 %
08.04.2016 18:06 6,7 C 96 % 1008,4 hPa 0,0 l/m 0,8 km/h (0 Bft) N-NW 331 0 min 0,000 mm 0,0 UV-I 46 W/m 6,1 C 6,7 C 1,6 km/h (1 Bft) 100,00 %
08.04.2016 18:07 6,7 C 96 % 1008,4 hPa 0,0 l/m 0,1 km/h (0 Bft) N-NW 331 0 min 0,000 mm 0,0 UV-I 47 W/m 6,1 C 6,7 C 1,6 km/h (1 Bft) 95,65 %
08.04.2016 18:08 6,8 C 96 % 1008,4 hPa 0,0 l/m 0,1 km/h (0 Bft) N-NW 331 0 min 0,000 mm 0,0 UV-I 48 W/m 6,2 C 6,8 C 1,6 km/h (1 Bft) 100,00 %
08.04.2016 18:09 6,8 C 96 % 1008,4 hPa 0,0 l/m 0,2 km/h (0 Bft) N-NW 331 0 min 0,000 mm 0,0 UV-I 49 W/m 6,2 C 6,8 C 1,6 km/h (1 Bft) 96,55 %
08.04.2016 18:10 6,8 C 96 % 1008,4 hPa 0,0 l/m 0,8 km/h (0 Bft) N-NW 331 0 min 0,000 mm 0,0 UV-I 47 W/m 6,2 C 6,8 C 1,6 km/h (1 Bft) 100,00 %
08.04.2016 18:11 6,8 C 96 % 1008,4 hPa 0,0 l/m 0,2 km/h (0 Bft) N-NW 331 0 min 0,000 mm 0,0 UV-I 47 W/m 6,2 C 6,8 C 1,6 km/h (1 Bft) 96,15 %
08.04.2016 18:12 6,8 C 96 % 1008,4 hPa 0,0 l/m 0,9 km/h (0 Bft) NW 319 0 min 0,000 mm 0,0 UV-I 47 W/m 6,2 C 6,8 C 3,2 km/h (1 Bft) 95,83 %
08.04.2016 18:13 6,8 C 96 % 1008,4 hPa 0,0 l/m 0,6 km/h (0 Bft) NW 319 0 min 0,000 mm 0,0 UV-I 47 W/m 6,2 C 6,8 C 3,2 km/h (1 Bft) 100,00 %
08.04.2016 18:14 6,8 C 96 % 1008,4 hPa 0,0 l/m 1,1 km/h (1 Bft) NW 319 0 min 0,000 mm 0,0 UV-I 47 W/m 6,2 C 6,8 C 1,6 km/h (1 Bft) 96,15 %
08.04.2016 18:15 6,8 C 95 % 1008,4 hPa 0,2 l/m 0,7 km/h (0 Bft) NW 319 0 min 0,000 mm 0,0 UV-I 46 W/m 6,1 C 6,8 C 1,6 km/h (1 Bft) 100,00 %
08.04.2016 18:16 6,8 C 96 % 1008,5 hPa 0,0 l/m 1,9 km/h (1 Bft) NW 319 0 min 0,000 mm 0,0 UV-I 44 W/m 6,2 C 6,8 C 3,2 km/h (1 Bft) 92,59 %
08.04.2016 18:17 6,8 C 96 % 1008,4 hPa 0,0 l/m 0,4 km/h (0 Bft) NW 319 0 min 0,000 mm 0,0 UV-I 44 W/m 6,2 C 6,8 C 1,6 km/h (1 Bft) 100,00 %
08.04.2016 18:18 6,8 C 96 % 1008,4 hPa 0,0 l/m 1,0 km/h (0 Bft) NW 319 0 min 0,000 mm 0,0 UV-I 43 W/m 6,2 C 6,8 C 3,2 km/h (1 Bft) 93,33 %
08.04.2016 18:19 6,8 C 96 % 1008,4 hPa 0,0 l/m 1,7 km/h (1 Bft) NW 318 0 min 0,000 mm 0,0 UV-I 46 W/m 6,2 C 6,8 C 4,8 km/h (1 Bft) 100,00 %
08.04.2016 18:20 6,8 C 96 % 1008,4 hPa 0,0 l/m 2,2 km/h (1 Bft) NW 318 0 min 0,000 mm 0,0 UV-I 47 W/m 6,2 C 6,8 C 3,2 km/h (1 Bft) 100,00 %
08.04.2016 18:21 6,8 C 96 % 1008,4 hPa 0,0 l/m 2,1 km/h (1 Bft) NW 318 0 min 0,000 mm 0,0 UV-I 47 W/m 6,2 C 6,8 C 3,2 km/h (1 Bft) 100,00 %
08.04.2016 18:22 6,8 C 96 % 1008,4 hPa 0,0 l/m 0,8 km/h (0 Bft) NW 318 0 min 0,000 mm 0,0 UV-I 46 W/m 6,2 C 6,8 C 1,6 km/h (1 Bft) 100,00 %
08.04.2016 18:23 6,8 C 96 % 1008,4 hPa 0,0 l/m 2,3 km/h (1 Bft) NW 319 0 min 0,000 mm 0,0 UV-I 44 W/m 6,2 C 6,8 C 3,2 km/h (1 Bft) 95,83 %
08.04.2016 18:24 6,8 C 96 % 1008,4 hPa 0,0 l/m 1,3 km/h (1 Bft) NW 319 0 min 0,000 mm 0,0 UV-I 42 W/m 6,2 C 6,8 C 3,2 km/h (1 Bft) 100,00 %
08.04.2016 18:25 6,7 C 96 % 1008,4 hPa 0,0 l/m 0,4 km/h (0 Bft) NW 319 0 min 0,000 mm 0,0 UV-I 42 W/m 6,1 C 6,7 C 1,6 km/h (1 Bft) 100,00 %
08.04.2016 18:26 6,8 C 96 % 1008,4 hPa 0,0 l/m 0,7 km/h (0 Bft) NW 319 0 min 0,000 mm 0,0 UV-I 41 W/m 6,2 C 6,8 C 1,6 km/h (1 Bft) 96,55 %
08.04.2016 18:27 6,8 C 96 % 1008,4 hPa 0,0 l/m 0,7 km/h (0 Bft) NW 312 0 min 0,000 mm 0,0 UV-I 40 W/m 6,2 C 6,8 C 3,2 km/h (1 Bft) 100,00 %
08.04.2016 18:28 6,7 C 96 % 1008,4 hPa 0,0 l/m 2,7 km/h (1 Bft) NW 310 0 min 0,000 mm 0,0 UV-I 40 W/m 6,1 C 6,7 C 4,8 km/h (1 Bft) 100,00 %
08.04.2016 18:29 6,7 C 96 % 1008,4 hPa 0,0 l/m 0,2 km/h (0 Bft) NW 310 0 min 0,000 mm 0,0 UV-I 40 W/m 6,1 C 6,7 C 1,6 km/h (1 Bft) 100,00 %
08.04.2016 18:30 6,7 C 96 % 1008,4 hPa 0,0 l/m 0,7 km/h (0 Bft) NW 310 0 min 0,000 mm 0,0 UV-I 40 W/m 6,1 C 6,7 C 1,6 km/h (1 Bft) 100,00 %
08.04.2016 18:31 6,7 C 96 % 1008,4 hPa 0,0 l/m 1,0 km/h (0 Bft) NW 310 0 min 0,000 mm 0,0 UV-I 39 W/m 6,1 C 6,7 C 3,2 km/h (1 Bft) 100,00 %
08.04.2016 18:32 6,7 C 96 % 1008,4 hPa 0,0 l/m 0,6 km/h (0 Bft) NW 310 0 min 0,000 mm 0,0 UV-I 36 W/m 6,1 C 6,7 C 1,6 km/h (1 Bft) 100,00 %
08.04.2016 18:33 6,7 C 96 % 1008,4 hPa 0,0 l/m 0,5 km/h (0 Bft) NW 310 0 min 0,000 mm 0,0 UV-I 34 W/m 6,1 C 6,7 C 1,6 km/h (1 Bft) 100,00 %
08.04.2016 18:34 6,7 C 96 % 1008,4 hPa 0,0 l/m 0,0 km/h (0 Bft) NW 310 0 min 0,000 mm 0,0 UV-I 33 W/m 6,1 C 6,7 C 0,0 km/h (0 Bft) 100,00 %
08.04.2016 18:35 6,7 C 96 % 1008,4 hPa 0,2 l/m 0,2 km/h (0 Bft) NW 310 0 min 0,000 mm 0,0 UV-I 33 W/m 6,1 C 6,7 C 1,6 km/h (1 Bft) 100,00 %
08.04.2016 18:36 6,7 C 96 % 1008,4 hPa 0,0 l/m 0,7 km/h (0 Bft) NW 310 0 min 0,000 mm 0,0 UV-I 33 W/m 6,1 C 6,7 C 1,6 km/h (1 Bft) 100,00 %
08.04.2016 18:37 6,7 C 96 % 1008,5 hPa 0,0 l/m 0,5 km/h (0 Bft) NW 310 0 min 0,000 mm 0,0 UV-I 32 W/m 6,1 C 6,7 C 1,6 km/h (1 Bft) 100,00 %
08.04.2016 18:38 6,7 C 96 % 1008,4 hPa 0,0 l/m 0,9 km/h (0 Bft) NW 310 0 min 0,000 mm 0,0 UV-I 31 W/m 6,1 C 6,7 C 3,2 km/h (1 Bft) 100,00 %
08.04.2016 18:39 6,7 C 96 % 1008,5 hPa 0,0 l/m 0,6 km/h (0 Bft) NW 310 0 min 0,000 mm 0,0 UV-I 28 W/m 6,1 C 6,7 C 3,2 km/h (1 Bft) 100,00 %
08.04.2016 18:40 6,7 C 96 % 1008,4 hPa 0,0 l/m 0,9 km/h (0 Bft) NW 310 0 min 0,000 mm 0,0 UV-I 26 W/m 6,1 C 6,7 C 1,6 km/h (1 Bft) 95,83 %
08.04.2016 18:41 6,7 C 96 % 1008,4 hPa 0,0 l/m 1,3 km/h (1 Bft) NW 310 0 min 0,000 mm 0,0 UV-I 22 W/m 6,1 C 6,7 C 3,2 km/h (1 Bft) 95,65 %
08.04.2016 18:42 6,7 C 96 % 1008,5 hPa 0,0 l/m 0,6 km/h (0 Bft) NW 325 0 min 0,000 mm 0,0 UV-I 18 W/m 6,1 C 6,7 C 1,6 km/h (1 Bft) 100,00 %
08.04.2016 18:43 6,7 C 96 % 1008,4 hPa 0,0 l/m 1,1 km/h (1 Bft) NW 325 0 min 0,000 mm 0,0 UV-I 17 W/m 6,1 C 6,7 C 1,6 km/h (1 Bft) 100,00 %
08.04.2016 18:44 6,7 C 96 % 1008,4 hPa 0,0 l/m 0,4 km/h (0 Bft) NW 325 0 min 0,000 mm 0,0 UV-I 16 W/m 6,1 C 6,7 C 1,6 km/h (1 Bft) 100,00 %
08.04.2016 18:45 6,7 C 96 % 1008,4 hPa 0,0 l/m 0,5 km/h (0 Bft) NW 325 0 min 0,000 mm 0,0 UV-I 16 W/m 6,1 C 6,7 C 1,6 km/h (1 Bft) 100,00 %
08.04.2016 18:46 6,7 C 96 % 1008,4 hPa 0,2 l/m 0,0 km/h (0 Bft) NW 325 0 min 0,000 mm 0,0 UV-I 14 W/m 6,1 C 6,7 C 0,0 km/h (0 Bft) 100,00 %
08.04.2016 18:47 6,7 C 96 % 1008,5 hPa 0,0 l/m 0,8 km/h (0 Bft) NW 325 0 min 0,000 mm 0,0 UV-I 14 W/m 6,1 C 6,7 C 3,2 km/h (1 Bft) 100,00 %
08.04.2016 18:48 6,7 C 96 % 1008,4 hPa 0,0 l/m 1,2 km/h (1 Bft) NW 325 0 min 0,000 mm 0,0 UV-I 14 W/m 6,1 C 6,7 C 1,6 km/h (1 Bft) 100,00 %
08.04.2016 18:49 6,7 C 96 % 1008,4 hPa 0,0 l/m 2,0 km/h (1 Bft) NW 311 0 min 0,000 mm 0,0 UV-I 14 W/m 6,1 C 6,7 C 4,8 km/h (1 Bft) 96,55 %
08.04.2016 18:50 6,7 C 96 % 1008,4 hPa 0,0 l/m 4,0 km/h (1 Bft) W-SW 255 0 min 0,000 mm 0,0 UV-I 14 W/m 6,1 C 6,7 C 4,8 km/h (1 Bft) 100,00 %
08.04.2016 18:51 6,7 C 96 % 1008,5 hPa 0,0 l/m 1,3 km/h (1 Bft) W-SW 255 0 min 0,000 mm 0,0 UV-I 14 W/m 6,1 C 6,7 C 3,2 km/h (1 Bft) 95,65 %
08.04.2016 18:52 6,7 C 96 % 1008,5 hPa 0,0 l/m 0,7 km/h (0 Bft) W-SW 255 0 min 0,000 mm 0,0 UV-I 14 W/m 6,1 C 6,7 C 1,6 km/h (1 Bft) 100,00 %
08.04.2016 18:53 6,7 C 96 % 1008,4 hPa 0,0 l/m 0,1 km/h (0 Bft) W-SW 255 0 min 0,000 mm 0,0 UV-I 16 W/m 6,1 C 6,7 C 1,6 km/h (1 Bft) 100,00 %
08.04.2016 18:54 6,7 C 96 % 1008,4 hPa 0,0 l/m 1,3 km/h (1 Bft) W-SW 255 0 min 0,000 mm 0,0 UV-I 16 W/m 6,1 C 6,7 C 3,2 km/h (1 Bft) 100,00 %
08.04.2016 18:55 6,7 C 96 % 1008,4 hPa 0,0 l/m 0,0 km/h (0 Bft) W-SW 255 0 min 0,000 mm 0,0 UV-I 16 W/m 6,1 C 6,7 C 0,0 km/h (0 Bft) 100,00 %
08.04.2016 18:56 6,7 C 96 % 1008,5 hPa 0,0 l/m 0,0 km/h (0 Bft) W-SW 255 0 min 0,000 mm 0,0 UV-I 17 W/m 6,1 C 6,7 C 0,0 km/h (0 Bft) 95,83 %
08.04.2016 18:57 6,7 C 97 % 1008,5 hPa 0,0 l/m 0,1 km/h (0 Bft) W-SW 255 0 min 0,000 mm 0,0 UV-I 18 W/m 6,3 C 6,7 C 1,6 km/h (1 Bft) 100,00 %
08.04.2016 18:58 6,7 C 97 % 1008,5 hPa 0,0 l/m 0,0 km/h (0 Bft) W-SW 255 0 min 0,000 mm 0,0 UV-I 18 W/m 6,3 C 6,7 C 0,0 km/h (0 Bft) 100,00 %
08.04.2016 18:59 6,7 C 97 % 1008,5 hPa 0,0 l/m 0,6 km/h (0 Bft) W 265 0 min 0,000 mm 0,0 UV-I 16 W/m 6,3 C 6,7 C 1,6 km/h (1 Bft) 100,00 %
08.04.2016 19:00 6,7 C 97 % 1008,5 hPa 0,2 l/m 1,9 km/h (1 Bft) W-NW 302 0 min 0,000 mm 0,0 UV-I 16 W/m 6,3 C 6,7 C 3,2 km/h (1 Bft) 100,00 %
08.04.2016 19:01 6,7 C 96 % 1008,5 hPa 0,0 l/m 2,4 km/h (1 Bft) W-NW 302 0 min 0,026 mm 0,0 UV-I 18 W/m 6,1 C 6,7 C 4,8 km/h (1 Bft) 96,30 %
08.04.2016 19:02 6,6 C 96 % 1008,5 hPa 0,0 l/m 1,9 km/h (1 Bft) W-NW 302 0 min 0,000 mm 0,0 UV-I 18 W/m 6,0 C 6,6 C 3,2 km/h (1 Bft) 100,00 %
08.04.2016 19:03 6,6 C 96 % 1008,5 hPa 0,0 l/m 0,8 km/h (0 Bft) W-NW 302 0 min 0,000 mm 0,0 UV-I 18 W/m 6,0 C 6,6 C 3,2 km/h (1 Bft) 96,30 %
08.04.2016 19:04 6,6 C 96 % 1008,5 hPa 0,0 l/m 0,0 km/h (0 Bft) W-NW 302 0 min 0,000 mm 0,0 UV-I 18 W/m 6,0 C 6,6 C 0,0 km/h (0 Bft) 100,00 %
08.04.2016 19:05 6,6 C 96 % 1008,5 hPa 0,0 l/m 0,1 km/h (0 Bft) W-NW 302 0 min 0,000 mm 0,0 UV-I 18 W/m 6,0 C 6,6 C 1,6 km/h (1 Bft) 95,83 %
08.04.2016 19:06 6,6 C 96 % 1008,5 hPa 0,0 l/m 0,5 km/h (0 Bft) W-NW 302 0 min 0,000 mm 0,0 UV-I 18 W/m 6,0 C 6,6 C 1,6 km/h (1 Bft) 100,00 %
08.04.2016 19:07 6,6 C 96 % 1008,5 hPa 0,0 l/m 1,2 km/h (1 Bft) NW 309 0 min 0,000 mm 0,0 UV-I 18 W/m 6,0 C 6,6 C 3,2 km/h (1 Bft) 100,00 %
08.04.2016 19:08 6,6 C 96 % 1008,5 hPa 0,0 l/m 0,2 km/h (0 Bft) NW 309 0 min 0,000 mm 0,0 UV-I 16 W/m 6,0 C 6,6 C 1,6 km/h (1 Bft) 100,00 %
08.04.2016 19:09 6,6 C 96 % 1008,5 hPa 0,0 l/m 0,1 km/h (0 Bft) NW 309 0 min 0,000 mm 0,0 UV-I 16 W/m 6,0 C 6,6 C 1,6 km/h (1 Bft) 100,00 %
08.04.2016 19:10 6,6 C 96 % 1008,5 hPa 0,0 l/m 0,5 km/h (0 Bft) W-NW 298 0 min 0,000 mm 0,0 UV-I 16 W/m 6,0 C 6,6 C 1,6 km/h (1 Bft) 100,00 %
08.04.2016 19:11 6,5 C 96 % 1008,5 hPa 0,0 l/m 2,1 km/h (1 Bft) W-NW 298 0 min 0,000 mm 0,0 UV-I 15 W/m 5,9 C 6,5 C 3,2 km/h (1 Bft) 100,00 %
08.04.2016 19:12 6,5 C 96 % 1008,5 hPa 0,0 l/m 2,3 km/h (1 Bft) W 263 0 min 0,000 mm 0,0 UV-I 14 W/m 5,9 C 6,5 C 4,8 km/h (1 Bft) 100,00 %
08.04.2016 19:13 6,4 C 96 % 1008,5 hPa 0,0 l/m 1,7 km/h (1 Bft) W 263 0 min 0,000 mm 0,0 UV-I 14 W/m 5,8 C 6,4 C 3,2 km/h (1 Bft) 100,00 %
08.04.2016 19:14 6,4 C 96 % 1008,6 hPa 0,0 l/m 0,3 km/h (0 Bft) W 263 0 min 0,000 mm 0,0 UV-I 12 W/m 5,8 C 6,4 C 1,6 km/h (1 Bft) 100,00 %
08.04.2016 19:15 6,4 C 96 % 1008,6 hPa 0,2 l/m 0,5 km/h (0 Bft) W 263 0 min 0,000 mm 0,0 UV-I 12 W/m 5,8 C 6,4 C 1,6 km/h (1 Bft) 100,00 %
08.04.2016 19:16 6,4 C 96 % 1008,6 hPa 0,0 l/m 0,6 km/h (0 Bft) W 263 0 min 0,000 mm 0,0 UV-I 12 W/m 5,8 C 6,4 C 1,6 km/h (1 Bft) 100,00 %
08.04.2016 19:17 6,4 C 96 % 1008,6 hPa 0,0 l/m 0,2 km/h (0 Bft) W 263 0 min 0,000 mm 0,0 UV-I 12 W/m 5,8 C 6,4 C 1,6 km/h (1 Bft) 100,00 %
08.04.2016 19:18 6,4 C 97 % 1008,6 hPa 0,0 l/m 0,4 km/h (0 Bft) W 263 0 min 0,000 mm 0,0 UV-I 12 W/m 6,0 C 6,4 C 1,6 km/h (1 Bft) 100,00 %
08.04.2016 19:19 6,4 C 97 % 1008,6 hPa 0,0 l/m 1,2 km/h (1 Bft) W 263 0 min 0,000 mm 0,0 UV-I 11 W/m 6,0 C 6,4 C 1,6 km/h (1 Bft) 100,00 %
08.04.2016 19:20 6,4 C 97 % 1008,6 hPa 0,0 l/m 2,1 km/h (1 Bft) W-NW 293 0 min 0,000 mm 0,0 UV-I 11 W/m 6,0 C 6,4 C 4,8 km/h (1 Bft) 100,00 %
08.04.2016 19:21 6,4 C 97 % 1008,7 hPa 0,0 l/m 2,3 km/h (1 Bft) W-NW 293 0 min 0,000 mm 0,0 UV-I 11 W/m 6,0 C 6,4 C 3,2 km/h (1 Bft) 100,00 %
08.04.2016 19:22 6,4 C 97 % 1008,6 hPa 0,0 l/m 0,6 km/h (0 Bft) W-NW 293 0 min 0,000 mm 0,0 UV-I 11 W/m 6,0 C 6,4 C 3,2 km/h (1 Bft) 100,00 %
08.04.2016 19:23 6,4 C 97 % 1008,6 hPa 0,0 l/m 1,6 km/h (1 Bft) W-NW 293 0 min 0,000 mm 0,0 UV-I 11 W/m 6,0 C 6,4 C 3,2 km/h (1 Bft) 100,00 %
08.04.2016 19:24 6,4 C 97 % 1008,6 hPa 0,0 l/m 0,9 km/h (0 Bft) W-NW 293 0 min 0,000 mm 0,0 UV-I 11 W/m 6,0 C 6,4 C 3,2 km/h (1 Bft) 100,00 %
08.04.2016 19:25 6,4 C 97 % 1008,6 hPa 0,0 l/m 1,9 km/h (1 Bft) W-NW 290 0 min 0,000 mm 0,0 UV-I 9 W/m 6,0 C 6,4 C 3,2 km/h (1 Bft) 100,00 %
08.04.2016 19:26 6,4 C 97 % 1008,6 hPa 0,0 l/m 0,1 km/h (0 Bft) W-NW 290 0 min 0,000 mm 0,0 UV-I 9 W/m 6,0 C 6,4 C 1,6 km/h (1 Bft) 100,00 %
08.04.2016 19:27 6,4 C 97 % 1008,7 hPa 0,0 l/m 1,1 km/h (1 Bft) W-NW 300 0 min 0,000 mm 0,0 UV-I 9 W/m 6,0 C 6,4 C 3,2 km/h (1 Bft) 100,00 %
08.04.2016 19:28 6,4 C 97 % 1008,7 hPa 0,0 l/m 0,4 km/h (0 Bft) W-NW 300 0 min 0,000 mm 0,0 UV-I 8 W/m 6,0 C 6,4 C 1,6 km/h (1 Bft) 100,00 %
08.04.2016 19:29 6,4 C 97 % 1008,7 hPa 0,0 l/m 0,1 km/h (0 Bft) W-NW 300 0 min 0,000 mm 0,0 UV-I 7 W/m 6,0 C 6,4 C 1,6 km/h (1 Bft) 100,00 %
08.04.2016 19:30 6,4 C 97 % 1008,7 hPa 0,0 l/m 0,8 km/h (0 Bft) W-NW 300 0 min 0,000 mm 0,0 UV-I 7 W/m 6,0 C 6,4 C 1,6 km/h (1 Bft) 100,00 %
08.04.2016 19:31 6,4 C 97 % 1008,7 hPa 0,0 l/m 0,5 km/h (0 Bft) W-NW 300 0 min 0,000 mm 0,0 UV-I 6 W/m 6,0 C 6,4 C 1,6 km/h (1 Bft) 100,00 %
08.04.2016 19:32 6,4 C 97 % 1008,7 hPa 0,0 l/m 1,4 km/h (1 Bft) W-NW 300 0 min 0,000 mm 0,0 UV-I 5 W/m 6,0 C 6,4 C 3,2 km/h (1 Bft) 100,00 %
08.04.2016 19:33 6,4 C 97 % 1008,7 hPa 0,0 l/m 0,5 km/h (0 Bft) W-NW 300 0 min 0,000 mm 0,0 UV-I 5 W/m 6,0 C 6,4 C 1,6 km/h (1 Bft) 100,00 %
08.04.2016 19:34 6,4 C 97 % 1008,7 hPa 0,0 l/m 1,0 km/h (0 Bft) W-NW 300 0 min 0,000 mm 0,0 UV-I 5 W/m 6,0 C 6,4 C 3,2 km/h (1 Bft) 100,00 %
08.04.2016 19:35 6,4 C 97 % 1008,7 hPa 0,2 l/m 2,6 km/h (1 Bft) W-NW 286 0 min 0,000 mm 0,0 UV-I 5 W/m 6,0 C 6,4 C 3,2 km/h (1 Bft) 100,00 %
08.04.2016 19:36 6,3 C 97 % 1008,8 hPa 0,0 l/m 0,8 km/h (0 Bft) W-NW 286 0 min 0,000 mm 0,0 UV-I 2 W/m 5,9 C 6,3 C 1,6 km/h (1 Bft) 100,00 %
08.04.2016 19:37 6,3 C 97 % 1008,8 hPa 0,0 l/m 0,1 km/h (0 Bft) W-NW 286 0 min 0,000 mm 0,0 UV-I 0 W/m 5,9 C 6,3 C 1,6 km/h (1 Bft) 100,00 %
08.04.2016 19:38 6,4 C 97 % 1008,8 hPa 0,0 l/m 1,4 km/h (1 Bft) W-NW 286 0 min 0,000 mm 0,0 UV-I 0 W/m 6,0 C 6,4 C 3,2 km/h (1 Bft) 100,00 %
08.04.2016 19:39 6,3 C 97 % 1008,8 hPa 0,0 l/m 1,4 km/h (1 Bft) W-NW 300 0 min 0,000 mm 0,0 UV-I 0 W/m 5,9 C 6,3 C 3,2 km/h (1 Bft) 100,00 %
08.04.2016 19:40 6,3 C 97 % 1008,8 hPa 0,0 l/m 0,7 km/h (0 Bft) W-NW 300 0 min 0,000 mm 0,0 UV-I 0 W/m 5,9 C 6,3 C 1,6 km/h (1 Bft) 100,00 %
08.04.2016 19:41 6,4 C 97 % 1008,9 hPa 0,0 l/m 0,2 km/h (0 Bft) W-NW 300 0 min 0,000 mm 0,0 UV-I 0 W/m 6,0 C 6,4 C 1,6 km/h (1 Bft) 100,00 %
08.04.2016 19:42 6,3 C 97 % 1008,9 hPa 0,0 l/m 1,4 km/h (1 Bft) W-NW 300 0 min 0,000 mm 0,0 UV-I 0 W/m 5,9 C 6,3 C 3,2 km/h (1 Bft) 100,00 %
08.04.2016 19:43 6,3 C 97 % 1008,9 hPa 0,0 l/m 0,8 km/h (0 Bft) W-NW 300 0 min 0,000 mm 0,0 UV-I 0 W/m 5,9 C 6,3 C 1,6 km/h (1 Bft) 100,00 %
08.04.2016 19:44 6,3 C 97 % 1008,9 hPa 0,0 l/m 0,1 km/h (0 Bft) W-NW 300 0 min 0,000 mm 0,0 UV-I 0 W/m 5,9 C 6,3 C 1,6 km/h (1 Bft) 100,00 %
08.04.2016 19:45 6,3 C 97 % 1008,9 hPa 0,0 l/m 0,0 km/h (0 Bft) W-NW 300 0 min 0,000 mm 0,0 UV-I 0 W/m 5,9 C 6,3 C 0,0 km/h (0 Bft) 100,00 %
08.04.2016 19:46 6,3 C 97 % 1008,9 hPa 0,0 l/m 0,4 km/h (0 Bft) W-NW 300 0 min 0,000 mm 0,0 UV-I 0 W/m 5,9 C 6,3 C 1,6 km/h (1 Bft) 96,55 %
08.04.2016 19:47 6,3 C 97 % 1008,9 hPa 0,0 l/m 1,3 km/h (1 Bft) W-NW 300 0 min 0,000 mm 0,0 UV-I 0 W/m 5,9 C 6,3 C 3,2 km/h (1 Bft) 100,00 %
08.04.2016 19:48 6,3 C 97 % 1008,9 hPa 0,0 l/m 1,3 km/h (1 Bft) W-NW 300 0 min 0,000 mm 0,0 UV-I 0 W/m 5,9 C 6,3 C 3,2 km/h (1 Bft) 96,55 %
08.04.2016 19:49 6,3 C 97 % 1008,9 hPa 0,0 l/m 0,1 km/h (0 Bft) W-NW 300 0 min 0,000 mm 0,0 UV-I 0 W/m 5,9 C 6,3 C 1,6 km/h (1 Bft) 93,33 %
08.04.2016 19:50 6,3 C 97 % 1009,0 hPa 0,0 l/m 0,6 km/h (0 Bft) W-NW 300 0 min 0,000 mm 0,0 UV-I 0 W/m 5,9 C 6,3 C 1,6 km/h (1 Bft) 95,65 %
08.04.2016 19:51 6,3 C 97 % 1009,0 hPa 0,0 l/m 0,0 km/h (0 Bft) W-NW 300 0 min 0,000 mm 0,0 UV-I 0 W/m 5,9 C 6,3 C 0,0 km/h (0 Bft) 96,30 %
08.04.2016 19:52 6,3 C 97 % 1009,0 hPa 0,0 l/m 1,3 km/h (1 Bft) W-NW 300 0 min 0,000 mm 0,0 UV-I 0 W/m 5,9 C 6,3 C 3,2 km/h (1 Bft) 100,00 %
08.04.2016 19:53 6,3 C 97 % 1009,0 hPa 0,0 l/m 0,2 km/h (0 Bft) W-NW 300 0 min 0,000 mm 0,0 UV-I 0 W/m 5,9 C 6,3 C 3,2 km/h (1 Bft) 93,33 %
08.04.2016 19:54 6,3 C 97 % 1009,0 hPa 0,0 l/m 1,0 km/h (0 Bft) W-NW 300 0 min 0,000 mm 0,0 UV-I 0 W/m 5,9 C 6,3 C 3,2 km/h (1 Bft) 100,00 %
08.04.2016 19:55 6,3 C 97 % 1009,0 hPa 0,0 l/m 0,2 km/h (0 Bft) W-NW 300 0 min 0,000 mm 0,0 UV-I 0 W/m 5,9 C 6,3 C 1,6 km/h (1 Bft) 92,31 %
08.04.2016 19:56 6,3 C 97 % 1009,0 hPa 0,0 l/m 2,0 km/h (1 Bft) W-NW 298 0 min 0,000 mm 0,0 UV-I 0 W/m 5,9 C 6,3 C 3,2 km/h (1 Bft) 91,67 %
08.04.2016 19:57 6,3 C 97 % 1009,0 hPa 0,0 l/m 0,2 km/h (0 Bft) W-NW 298 0 min 0,000 mm 0,0 UV-I 0 W/m 5,9 C 6,3 C 1,6 km/h (1 Bft) 90,91 %
08.04.2016 19:58 6,2 C 97 % 1009,0 hPa 0,0 l/m 0,9 km/h (0 Bft) W-NW 298 0 min 0,000 mm 0,0 UV-I 0 W/m 5,8 C 6,2 C 3,2 km/h (1 Bft) 100,00 %
08.04.2016 19:59 6,2 C 97 % 1009,0 hPa 0,0 l/m 1,0 km/h (0 Bft) W-NW 298 0 min 0,000 mm 0,0 UV-I 0 W/m 5,8 C 6,2 C 1,6 km/h (1 Bft) 96,55 %
08.04.2016 20:00 6,2 C 97 % 1009,0 hPa 0,2 l/m 1,8 km/h (1 Bft) W-NW 298 0 min 0,000 mm 0,0 UV-I 0 W/m 5,8 C 6,2 C 3,2 km/h (1 Bft) 96,30 %
08.04.2016 20:01 6,2 C 97 % 1009,0 hPa 0,0 l/m 0,1 km/h (0 Bft) W-NW 298 0 min 0,000 mm 0,0 UV-I 0 W/m 5,8 C 6,2 C 1,6 km/h (1 Bft) 100,00 %
08.04.2016 20:02 6,2 C 97 % 1009,0 hPa 0,0 l/m 1,0 km/h (0 Bft) W-NW 298 0 min 0,000 mm 0,0 UV-I 0 W/m 5,8 C 6,2 C 1,6 km/h (1 Bft) 92,59 %
08.04.2016 20:03 6,2 C 97 % 1009,0 hPa 0,0 l/m 0,9 km/h (0 Bft) W-NW 298 0 min 0,000 mm 0,0 UV-I 0 W/m 5,8 C 6,2 C 3,2 km/h (1 Bft) 100,00 %
08.04.2016 20:04 6,2 C 97 % 1009,0 hPa 0,0 l/m 0,1 km/h (0 Bft) W-NW 298 0 min 0,000 mm 0,0 UV-I 0 W/m 5,8 C 6,2 C 1,6 km/h (1 Bft) 95,83 %
08.04.2016 20:05 6,2 C 97 % 1009,0 hPa 0,0 l/m 0,0 km/h (0 Bft) W-NW 298 0 min 0,000 mm 0,0 UV-I 0 W/m 5,8 C 6,2 C 0,0 km/h (0 Bft) 96,15 %
08.04.2016 20:06 6,2 C 97 % 1009,0 hPa 0,0 l/m 0,0 km/h (0 Bft) W-NW 298 0 min 0,000 mm 0,0 UV-I 0 W/m 5,8 C 6,2 C 0,0 km/h (0 Bft) 100,00 %
08.04.2016 20:07 6,2 C 97 % 1009,0 hPa 0,0 l/m 0,5 km/h (0 Bft) W-NW 298 0 min 0,000 mm 0,0 UV-I 0 W/m 5,8 C 6,2 C 1,6 km/h (1 Bft) 95,65 %
08.04.2016 20:08 6,2 C 97 % 1009,0 hPa 0,0 l/m 0,4 km/h (0 Bft) W-NW 298 0 min 0,000 mm 0,0 UV-I 0 W/m 5,8 C 6,2 C 1,6 km/h (1 Bft) 100,00 %
08.04.2016 20:09 6,2 C 97 % 1009,0 hPa 0,0 l/m 1,8 km/h (1 Bft) W-NW 298 0 min 0,000 mm 0,0 UV-I 0 W/m 5,8 C 6,2 C 3,2 km/h (1 Bft) 91,30 %
08.04.2016 20:10 6,2 C 97 % 1009,1 hPa 0,0 l/m 1,6 km/h (1 Bft) W-NW 298 0 min 0,000 mm 0,0 UV-I 0 W/m 5,8 C 6,2 C 3,2 km/h (1 Bft) 100,00 %
08.04.2016 20:11 6,2 C 97 % 1009,1 hPa 0,0 l/m 2,7 km/h (1 Bft) W-NW 302 0 min 0,000 mm 0,0 UV-I 0 W/m 5,8 C 6,2 C 3,2 km/h (1 Bft) 96,15 %
08.04.2016 20:12 6,2 C 97 % 1009,0 hPa 0,0 l/m 2,3 km/h (1 Bft) W-NW 298 0 min 0,000 mm 0,0 UV-I 0 W/m 5,8 C 6,2 C 3,2 km/h (1 Bft) 100,00 %
08.04.2016 20:13 6,2 C 97 % 1009,1 hPa 0,0 l/m 0,7 km/h (0 Bft) W-NW 298 0 min 0,000 mm 0,0 UV-I 0 W/m 5,8 C 6,2 C 1,6 km/h (1 Bft) 96,30 %
08.04.2016 20:14 6,1 C 97 % 1009,1 hPa 0,0 l/m 0,7 km/h (0 Bft) W-NW 298 0 min 0,000 mm 0,0 UV-I 0 W/m 5,7 C 6,1 C 3,2 km/h (1 Bft) 95,65 %
08.04.2016 20:15 6,1 C 97 % 1009,1 hPa 0,0 l/m 1,1 km/h (1 Bft) W-NW 298 0 min 0,000 mm 0,0 UV-I 0 W/m 5,7 C 6,1 C 3,2 km/h (1 Bft) 100,00 %
08.04.2016 20:16 6,1 C 97 % 1009,1 hPa 0,0 l/m 1,0 km/h (0 Bft) W-NW 298 0 min 0,000 mm 0,0 UV-I 0 W/m 5,7 C 6,1 C 1,6 km/h (1 Bft) 96,15 %
08.04.2016 20:17 6,1 C 97 % 1009,1 hPa 0,0 l/m 0,9 km/h (0 Bft) W-NW 301 0 min 0,000 mm 0,0 UV-I 0 W/m 5,7 C 6,1 C 1,6 km/h (1 Bft) 100,00 %
08.04.2016 20:18 6,1 C 97 % 1009,1 hPa 0,2 l/m 0,7 km/h (0 Bft) NW 315 0 min 0,000 mm 0,0 UV-I 0 W/m 5,7 C 6,1 C 3,2 km/h (1 Bft) 96,15 %
08.04.2016 20:19 6,1 C 97 % 1009,1 hPa 0,0 l/m 1,1 km/h (1 Bft) NW 315 0 min 0,000 mm 0,0 UV-I 0 W/m 5,7 C 6,1 C 4,8 km/h (1 Bft) 95,83 %
08.04.2016 20:20 6,1 C 97 % 1009,1 hPa 0,0 l/m 2,0 km/h (1 Bft) NW 304 0 min 0,000 mm 0,0 UV-I 0 W/m 5,7 C 6,1 C 4,8 km/h (1 Bft) 100,00 %
08.04.2016 20:21 6,1 C 97 % 1009,1 hPa 0,0 l/m 0,7 km/h (0 Bft) NW 304 0 min 0,000 mm 0,0 UV-I 0 W/m 5,7 C 6,1 C 1,6 km/h (1 Bft) 100,00 %
08.04.2016 20:22 6,1 C 97 % 1009,1 hPa 0,0 l/m 2,7 km/h (1 Bft) W-NW 300 0 min 0,000 mm 0,0 UV-I 0 W/m 5,7 C 6,1 C 4,8 km/h (1 Bft) 95,65 %
08.04.2016 20:23 6,1 C 97 % 1009,1 hPa 0,0 l/m 0,8 km/h (0 Bft) W-NW 300 0 min 0,000 mm 0,0 UV-I 0 W/m 5,7 C 6,1 C 3,2 km/h (1 Bft) 100,00 %
08.04.2016 20:24 6,0 C 97 % 1009,2 hPa 0,0 l/m 2,7 km/h (1 Bft) NW 321 0 min 0,000 mm 0,0 UV-I 0 W/m 5,6 C 6,0 C 4,8 km/h (1 Bft) 100,00 %
08.04.2016 20:25 6,0 C 97 % 1009,2 hPa 0,0 l/m 1,1 km/h (1 Bft) NW 321 0 min 0,000 mm 0,0 UV-I 0 W/m 5,6 C 6,0 C 1,6 km/h (1 Bft) 100,00 %
08.04.2016 20:26 6,0 C 97 % 1009,2 hPa 0,0 l/m 0,5 km/h (0 Bft) NW 321 0 min 0,000 mm 0,0 UV-I 0 W/m 5,6 C 6,0 C 1,6 km/h (1 Bft) 95,65 %
08.04.2016 20:27 6,0 C 97 % 1009,1 hPa 0,0 l/m 1,5 km/h (1 Bft) NW 321 0 min 0,000 mm 0,0 UV-I 0 W/m 5,6 C 6,0 C 3,2 km/h (1 Bft) 100,00 %
08.04.2016 20:28 6,0 C 97 % 1009,2 hPa 0,0 l/m 2,1 km/h (1 Bft) NW 315 0 min 0,000 mm 0,0 UV-I 0 W/m 5,6 C 6,0 C 3,2 km/h (1 Bft) 100,00 %
08.04.2016 20:29 6,0 C 97 % 1009,2 hPa 0,0 l/m 2,9 km/h (1 Bft) NW 315 0 min 0,000 mm 0,0 UV-I 0 W/m 5,6 C 6,0 C 4,8 km/h (1 Bft) 95,83 %
08.04.2016 20:30 5,9 C 97 % 1009,2 hPa 0,0 l/m 2,1 km/h (1 Bft) NW 315 0 min 0,000 mm 0,0 UV-I 0 W/m 5,5 C 5,9 C 3,2 km/h (1 Bft) 100,00 %
08.04.2016 20:31 5,9 C 97 % 1009,2 hPa 0,0 l/m 1,2 km/h (1 Bft) NW 315 0 min 0,000 mm 0,0 UV-I 0 W/m 5,5 C 5,9 C 3,2 km/h (1 Bft) 96,15 %
08.04.2016 20:32 5,9 C 97 % 1009,2 hPa 0,0 l/m 0,6 km/h (0 Bft) NW 315 0 min 0,000 mm 0,0 UV-I 0 W/m 5,5 C 5,9 C 1,6 km/h (1 Bft) 100,00 %
08.04.2016 20:33 5,9 C 97 % 1009,2 hPa 0,0 l/m 2,7 km/h (1 Bft) NW 306 0 min 0,000 mm 0,0 UV-I 0 W/m 5,5 C 5,9 C 4,8 km/h (1 Bft) 100,00 %
08.04.2016 20:34 5,9 C 97 % 1009,2 hPa 0,0 l/m 2,5 km/h (1 Bft) W-NW 302 0 min 0,000 mm 0,0 UV-I 0 W/m 5,5 C 5,9 C 4,8 km/h (1 Bft) 100,00 %
08.04.2016 20:35 6,0 C 97 % 1009,2 hPa 0,0 l/m 0,9 km/h (0 Bft) W-NW 302 0 min 0,000 mm 0,0 UV-I 0 W/m 5,6 C 6,0 C 1,6 km/h (1 Bft) 100,00 %
08.04.2016 20:36 6,0 C 97 % 1009,2 hPa 0,0 l/m 0,0 km/h (0 Bft) W-NW 302 0 min 0,000 mm 0,0 UV-I 0 W/m 5,6 C 6,0 C 0,0 km/h (0 Bft) 100,00 %
08.04.2016 20:37 6,0 C 97 % 1009,2 hPa 0,0 l/m 0,0 km/h (0 Bft) W-NW 302 0 min 0,000 mm 0,0 UV-I 0 W/m 5,6 C 6,0 C 0,0 km/h (0 Bft) 100,00 %
08.04.2016 20:38 6,0 C 97 % 1009,2 hPa 0,0 l/m 0,5 km/h (0 Bft) W-NW 302 0 min 0,000 mm 0,0 UV-I 0 W/m 5,6 C 6,0 C 1,6 km/h (1 Bft) 100,00 %
08.04.2016 20:39 6,0 C 97 % 1009,2 hPa 0,0 l/m 1,3 km/h (1 Bft) W-NW 302 0 min 0,000 mm 0,0 UV-I 0 W/m 5,6 C 6,0 C 1,6 km/h (1 Bft) 96,43 %
08.04.2016 20:40 6,0 C 97 % 1009,2 hPa 0,2 l/m 0,2 km/h (0 Bft) W-NW 302 0 min 0,000 mm 0,0 UV-I 0 W/m 5,6 C 6,0 C 1,6 km/h (1 Bft) 95,83 %
08.04.2016 20:41 6,1 C 97 % 1009,3 hPa 0,0 l/m 1,1 km/h (1 Bft) W-NW 302 0 min 0,000 mm 0,0 UV-I 0 W/m 5,7 C 6,1 C 3,2 km/h (1 Bft) 100,00 %
08.04.2016 20:42 6,1 C 97 % 1009,2 hPa 0,0 l/m 1,8 km/h (1 Bft) W-NW 302 0 min 0,000 mm 0,0 UV-I 0 W/m 5,7 C 6,1 C 3,2 km/h (1 Bft) 100,00 %
08.04.2016 20:43 6,1 C 97 % 1009,3 hPa 0,0 l/m 0,9 km/h (0 Bft) W-NW 302 0 min 0,000 mm 0,0 UV-I 0 W/m 5,7 C 6,1 C 1,6 km/h (1 Bft) 100,00 %
08.04.2016 20:44 6,1 C 97 % 1009,3 hPa 0,0 l/m 1,5 km/h (1 Bft) W-NW 302 0 min 0,000 mm 0,0 UV-I 0 W/m 5,7 C 6,1 C 3,2 km/h (1 Bft) 100,00 %
08.04.2016 20:45 6,0 C 97 % 1009,3 hPa 0,0 l/m 0,6 km/h (0 Bft) W-NW 302 0 min 0,000 mm 0,0 UV-I 0 W/m 5,6 C 6,0 C 1,6 km/h (1 Bft) 100,00 %
08.04.2016 20:46 6,1 C 97 % 1009,2 hPa 0,0 l/m 0,3 km/h (0 Bft) W-NW 302 0 min 0,000 mm 0,0 UV-I 0 W/m 5,7 C 6,1 C 1,6 km/h (1 Bft) 100,00 %
08.04.2016 20:47 6,1 C 97 % 1009,2 hPa 0,0 l/m 0,1 km/h (0 Bft) W-NW 302 0 min 0,000 mm 0,0 UV-I 0 W/m 5,7 C 6,1 C 1,6 km/h (1 Bft) 100,00 %
08.04.2016 20:48 6,1 C 97 % 1009,2 hPa 0,0 l/m 0,0 km/h (0 Bft) W-NW 302 0 min 0,000 mm 0,0 UV-I 0 W/m 5,7 C 6,1 C 0,0 km/h (0 Bft) 100,00 %
08.04.2016 20:49 6,1 C 97 % 1009,2 hPa 0,0 l/m 0,0 km/h (0 Bft) W-NW 302 0 min 0,000 mm 0,0 UV-I 0 W/m 5,7 C 6,1 C 0,0 km/h (0 Bft) 100,00 %
08.04.2016 20:50 6,1 C 97 % 1009,2 hPa 0,0 l/m 0,7 km/h (0 Bft) W-NW 302 0 min 0,000 mm 0,0 UV-I 0 W/m 5,7 C 6,1 C 1,6 km/h (1 Bft) 100,00 %
08.04.2016 20:51 6,0 C 97 % 1009,2 hPa 0,0 l/m 0,2 km/h (0 Bft) W-NW 302 0 min 0,000 mm 0,0 UV-I 0 W/m 5,6 C 6,0 C 1,6 km/h (1 Bft) 100,00 %
08.04.2016 20:52 6,0 C 97 % 1009,2 hPa 0,0 l/m 1,3 km/h (1 Bft) W-NW 302 0 min 0,000 mm 0,0 UV-I 0 W/m 5,6 C 6,0 C 1,6 km/h (1 Bft) 100,00 %
08.04.2016 20:53 6,0 C 97 % 1009,2 hPa 0,0 l/m 0,7 km/h (0 Bft) W-NW 302 0 min 0,000 mm 0,0 UV-I 0 W/m 5,6 C 6,0 C 1,6 km/h (1 Bft) 100,00 %
08.04.2016 20:54 6,0 C 97 % 1009,2 hPa 0,0 l/m 1,6 km/h (1 Bft) W-NW 302 0 min 0,000 mm 0,0 UV-I 0 W/m 5,6 C 6,0 C 3,2 km/h (1 Bft) 96,15 %
08.04.2016 20:55 6,0 C 97 % 1009,2 hPa 0,0 l/m 0,9 km/h (0 Bft) W-NW 302 0 min 0,000 mm 0,0 UV-I 0 W/m 5,6 C 6,0 C 1,6 km/h (1 Bft) 100,00 %
08.04.2016 20:56 5,9 C 97 % 1009,2 hPa 0,0 l/m 1,9 km/h (1 Bft) W-NW 302 0 min 0,000 mm 0,0 UV-I 0 W/m 5,5 C 5,9 C 3,2 km/h (1 Bft) 100,00 %
08.04.2016 20:57 5,9 C 97 % 1009,3 hPa 0,0 l/m 3,5 km/h (1 Bft) W-NW 298 0 min 0,000 mm 0,0 UV-I 0 W/m 5,5 C 5,9 C 4,8 km/h (1 Bft) 100,00 %
08.04.2016 20:58 5,9 C 97 % 1009,2 hPa 0,0 l/m 3,4 km/h (1 Bft) W 276 0 min 0,000 mm 0,0 UV-I 0 W/m 5,5 C 5,9 C 4,8 km/h (1 Bft) 100,00 %
08.04.2016 20:59 5,9 C 97 % 1009,3 hPa 0,0 l/m 5,1 km/h (1 Bft) W 259 0 min 0,000 mm 0,0 UV-I 0 W/m 5,5 C 5,9 C 6,4 km/h (2 Bft) 100,00 %
08.04.2016 21:00 5,9 C 97 % 1009,3 hPa 0,0 l/m 3,5 km/h (1 Bft) W 269 0 min 0,000 mm 0,0 UV-I 0 W/m 5,5 C 5,9 C 4,8 km/h (1 Bft) 100,00 %
08.04.2016 21:01 5,9 C 97 % 1009,2 hPa 0,0 l/m 3,1 km/h (1 Bft) W 269 0 min 0,000 mm 0,0 UV-I 0 W/m 5,5 C 5,9 C 4,8 km/h (1 Bft) 100,00 %
08.04.2016 21:02 6,0 C 97 % 1009,2 hPa 0,0 l/m 3,9 km/h (1 Bft) W 269 0 min 0,000 mm 0,0 UV-I 0 W/m 5,6 C 6,0 C 6,4 km/h (2 Bft) 100,00 %
08.04.2016 21:03 5,9 C 97 % 1009,3 hPa 0,0 l/m 5,2 km/h (1 Bft) W 264 0 min 0,000 mm 0,0 UV-I 0 W/m 5,5 C 5,9 C 6,4 km/h (2 Bft) 100,00 %
08.04.2016 21:04 6,0 C 97 % 1009,2 hPa 0,0 l/m 4,8 km/h (1 Bft) W 259 0 min 0,000 mm 0,0 UV-I 0 W/m 5,6 C 6,0 C 6,4 km/h (2 Bft) 100,00 %
08.04.2016 21:05 6,0 C 97 % 1009,2 hPa 0,0 l/m 4,1 km/h (1 Bft) W-SW 257 0 min 0,000 mm 0,0 UV-I 0 W/m 5,6 C 6,0 C 4,8 km/h (1 Bft) 96,30 %
08.04.2016 21:06 5,9 C 97 % 1009,2 hPa 0,0 l/m 3,7 km/h (1 Bft) W 261 0 min 0,000 mm 0,0 UV-I 0 W/m 5,5 C 5,9 C 4,8 km/h (1 Bft) 95,83 %
08.04.2016 21:07 6,0 C 97 % 1009,3 hPa 0,0 l/m 4,4 km/h (1 Bft) W-SW 251 0 min 0,000 mm 0,0 UV-I 0 W/m 5,6 C 6,0 C 4,8 km/h (1 Bft) 100,00 %
08.04.2016 21:08 6,0 C 97 % 1009,3 hPa 0,0 l/m 5,1 km/h (1 Bft) W-SW 252 0 min 0,000 mm 0,0 UV-I 0 W/m 5,6 C 6,0 C 6,4 km/h (2 Bft) 100,00 %
08.04.2016 21:09 6,0 C 97 % 1009,3 hPa 0,0 l/m 4,2 km/h (1 Bft) W-SW 253 0 min 0,000 mm 0,0 UV-I 0 W/m 5,6 C 6,0 C 4,8 km/h (1 Bft) 100,00 %
08.04.2016 21:10 6,0 C 97 % 1009,3 hPa 0,0 l/m 3,4 km/h (1 Bft) W-SW 255 0 min 0,000 mm 0,0 UV-I 0 W/m 5,6 C 6,0 C 4,8 km/h (1 Bft) 100,00 %
08.04.2016 21:11 6,0 C 97 % 1009,3 hPa 0,0 l/m 4,3 km/h (1 Bft) W-SW 248 0 min 0,000 mm 0,0 UV-I 0 W/m 5,6 C 6,0 C 6,4 km/h (2 Bft) 100,00 %
08.04.2016 21:12 6,0 C 97 % 1009,3 hPa 0,0 l/m 4,7 km/h (1 Bft) W 275 0 min 0,000 mm 0,0 UV-I 0 W/m 5,6 C 6,0 C 9,7 km/h (2 Bft) 100,00 %
08.04.2016 21:13 6,1 C 97 % 1009,3 hPa 0,0 l/m 4,7 km/h (1 Bft) W-NW 286 0 min 0,000 mm 0,0 UV-I 0 W/m 5,7 C 6,1 C 9,7 km/h (2 Bft) 96,15 %
08.04.2016 21:14 6,1 C 97 % 1009,3 hPa 0,0 l/m 5,8 km/h (2 Bft) W 276 0 min 0,000 mm 0,0 UV-I 0 W/m 5,7 C 6,1 C 9,7 km/h (2 Bft) 100,00 %
08.04.2016 21:15 6,1 C 97 % 1009,4 hPa 0,2 l/m 4,2 km/h (1 Bft) W 275 0 min 0,000 mm 0,0 UV-I 0 W/m 5,7 C 6,1 C 4,8 km/h (1 Bft) 100,00 %
08.04.2016 21:16 6,1 C 97 % 1009,3 hPa 0,0 l/m 3,9 km/h (1 Bft) W 273 0 min 0,000 mm 0,0 UV-I 0 W/m 5,7 C 6,1 C 6,4 km/h (2 Bft) 100,00 %
08.04.2016 21:17 6,1 C 97 % 1009,4 hPa 0,0 l/m 4,1 km/h (1 Bft) W 259 0 min 0,000 mm 0,0 UV-I 0 W/m 5,7 C 6,1 C 6,4 km/h (2 Bft) 100,00 %
08.04.2016 21:18 6,1 C 97 % 1009,4 hPa 0,0 l/m 4,5 km/h (1 Bft) W 273 0 min 0,000 mm 0,0 UV-I 0 W/m 5,7 C 6,1 C 6,4 km/h (2 Bft) 100,00 %
08.04.2016 21:19 6,1 C 97 % 1009,4 hPa 0,0 l/m 4,1 km/h (1 Bft) W-SW 243 0 min 0,000 mm 0,0 UV-I 0 W/m 5,7 C 6,1 C 4,8 km/h (1 Bft) 100,00 %
08.04.2016 21:20 6,1 C 97 % 1009,4 hPa 0,0 l/m 3,0 km/h (1 Bft) W-SW 243 0 min 0,000 mm 0,0 UV-I 0 W/m 5,7 C 6,1 C 4,8 km/h (1 Bft) 100,00 %
08.04.2016 21:21 6,1 C 97 % 1009,3 hPa 0,0 l/m 3,2 km/h (1 Bft) W 271 0 min 0,000 mm 0,0 UV-I 0 W/m 5,7 C 6,1 C 4,8 km/h (1 Bft) 100,00 %
08.04.2016 21:22 6,1 C 97 % 1009,3 hPa 0,0 l/m 3,7 km/h (1 Bft) W 271 0 min 0,000 mm 0,0 UV-I 0 W/m 5,7 C 6,1 C 4,8 km/h (1 Bft) 100,00 %
08.04.2016 21:23 6,1 C 97 % 1009,3 hPa 0,0 l/m 4,3 km/h (1 Bft) W 269 0 min 0,000 mm 0,0 UV-I 0 W/m 5,7 C 6,1 C 6,4 km/h (2 Bft) 100,00 %
08.04.2016 21:24 6,1 C 97 % 1009,3 hPa 0,0 l/m 2,2 km/h (1 Bft) W 269 0 min 0,000 mm 0,0 UV-I 0 W/m 5,7 C 6,1 C 3,2 km/h (1 Bft) 100,00 %
08.04.2016 21:25 6,1 C 97 % 1009,3 hPa 0,0 l/m 3,6 km/h (1 Bft) W 261 0 min 0,000 mm 0,0 UV-I 0 W/m 5,7 C 6,1 C 4,8 km/h (1 Bft) 100,00 %
08.04.2016 21:26 6,1 C 97 % 1009,3 hPa 0,0 l/m 2,5 km/h (1 Bft) W 278 0 min 0,000 mm 0,0 UV-I 0 W/m 5,7 C 6,1 C 4,8 km/h (1 Bft) 100,00 %
08.04.2016 21:27 6,1 C 97 % 1009,3 hPa 0,0 l/m 7,2 km/h (2 Bft) W 267 0 min 0,000 mm 0,0 UV-I 0 W/m 5,7 C 5,4 C 9,7 km/h (2 Bft) 100,00 %
08.04.2016 21:28 6,1 C 97 % 1009,3 hPa 0,0 l/m 3,7 km/h (1 Bft) W 267 0 min 0,000 mm 0,0 UV-I 0 W/m 5,7 C 6,1 C 4,8 km/h (1 Bft) 91,67 %
08.04.2016 21:29 6,1 C 97 % 1009,3 hPa 0,0 l/m 3,0 km/h (1 Bft) W 265 0 min 0,000 mm 0,0 UV-I 0 W/m 5,7 C 6,1 C 6,4 km/h (2 Bft) 100,00 %
08.04.2016 21:30 6,1 C 97 % 1009,3 hPa 0,0 l/m 4,6 km/h (1 Bft) W 273 0 min 0,000 mm 0,0 UV-I 0 W/m 5,7 C 6,1 C 6,4 km/h (2 Bft) 100,00 %
08.04.2016 21:31 6,1 C 97 % 1009,3 hPa 0,0 l/m 3,2 km/h (1 Bft) W 273 0 min 0,000 mm 0,0 UV-I 0 W/m 5,7 C 6,1 C 4,8 km/h (1 Bft) 96,15 %
08.04.2016 21:32 6,1 C 97 % 1009,3 hPa 0,0 l/m 4,5 km/h (1 Bft) W 264 0 min 0,000 mm 0,0 UV-I 0 W/m 5,7 C 6,1 C 9,7 km/h (2 Bft) 95,83 %
08.04.2016 21:33 6,1 C 97 % 1009,3 hPa 0,0 l/m 3,5 km/h (1 Bft) W 263 0 min 0,000 mm 0,0 UV-I 0 W/m 5,7 C 6,1 C 6,4 km/h (2 Bft) 100,00 %
08.04.2016 21:34 6,1 C 97 % 1009,3 hPa 0,0 l/m 0,2 km/h (0 Bft) W 263 0 min 0,000 mm 0,0 UV-I 0 W/m 5,7 C 6,1 C 1,6 km/h (1 Bft) 100,00 %
08.04.2016 21:35 6,1 C 97 % 1009,3 hPa 0,0 l/m 0,8 km/h (0 Bft) W 263 0 min 0,000 mm 0,0 UV-I 0 W/m 5,7 C 6,1 C 1,6 km/h (1 Bft) 96,67 %
08.04.2016 21:36 6,1 C 97 % 1009,2 hPa 0,0 l/m 3,1 km/h (1 Bft) W 275 0 min 0,000 mm 0,0 UV-I 0 W/m 5,7 C 6,1 C 4,8 km/h (1 Bft) 96,55 %
08.04.2016 21:37 6,1 C 97 % 1009,3 hPa 0,0 l/m 2,6 km/h (1 Bft) W 275 0 min 0,000 mm 0,0 UV-I 0 W/m 5,7 C 6,1 C 4,8 km/h (1 Bft) 98,54 %
08.04.2016 21:38 6,1 C 97 % 1009,2 hPa 0,0 l/m 3,2 km/h (1 Bft) W 274 0 min 0,000 mm 0,0 UV-I 0 W/m 5,7 C 6,1 C 3,2 km/h (1 Bft) 100,00 %
08.04.2016 21:39 6,1 C 97 % 1009,2 hPa 0,0 l/m 2,1 km/h (1 Bft) W 274 0 min 0,000 mm 0,0 UV-I 0 W/m 5,7 C 6,1 C 4,8 km/h (1 Bft) 100,00 %
08.04.2016 21:40 6,1 C 97 % 1009,2 hPa 0,0 l/m 3,0 km/h (1 Bft) W-NW 284 0 min 0,000 mm 0,0 UV-I 0 W/m 5,7 C 6,1 C 4,8 km/h (1 Bft) 100,00 %
08.04.2016 21:41 6,1 C 97 % 1009,2 hPa 0,0 l/m 8,1 km/h (2 Bft) W 263 0 min 0,000 mm 0,0 UV-I 0 W/m 5,7 C 4,7 C 12,9 km/h (3 Bft) 100,00 %
08.04.2016 21:42 6,1 C 97 % 1009,2 hPa 0,0 l/m 7,0 km/h (2 Bft) W-SW 249 0 min 0,000 mm 0,0 UV-I 0 W/m 5,7 C 5,6 C 12,9 km/h (3 Bft) 100,00 %
08.04.2016 21:43 6,1 C 97 % 1009,2 hPa 0,0 l/m 6,9 km/h (2 Bft) W 263 0 min 0,000 mm 0,0 UV-I 0 W/m 5,7 C 5,7 C 11,3 km/h (2 Bft) 96,30 %
08.04.2016 21:44 6,1 C 97 % 1009,2 hPa 0,0 l/m 5,7 km/h (1 Bft) W-SW 254 0 min 0,000 mm 0,0 UV-I 0 W/m 5,7 C 6,1 C 8,0 km/h (2 Bft) 91,30 %
08.04.2016 21:45 6,1 C 97 % 1009,2 hPa 0,0 l/m 4,1 km/h (1 Bft) W 271 0 min 0,000 mm 0,0 UV-I 0 W/m 5,7 C 6,1 C 6,4 km/h (2 Bft) 100,00 %
08.04.2016 21:46 6,1 C 97 % 1009,2 hPa 0,0 l/m 6,5 km/h (2 Bft) W 265 0 min 0,000 mm 0,0 UV-I 0 W/m 5,7 C 6,0 C 9,7 km/h (2 Bft) 96,15 %
08.04.2016 21:47 6,1 C 97 % 1009,2 hPa 0,0 l/m 4,6 km/h (1 Bft) W 281 0 min 0,000 mm 0,0 UV-I 0 W/m 5,7 C 6,1 C 6,4 km/h (2 Bft) 91,67 %
08.04.2016 21:48 6,1 C 97 % 1009,2 hPa 0,0 l/m 3,8 km/h (1 Bft) W 281 0 min 0,000 mm 0,0 UV-I 0 W/m 5,7 C 6,1 C 6,4 km/h (2 Bft) 100,00 %
08.04.2016 21:49 6,1 C 97 % 1009,2 hPa 0,0 l/m 5,4 km/h (1 Bft) W 269 0 min 0,000 mm 0,0 UV-I 0 W/m 5,7 C 6,1 C 8,0 km/h (2 Bft) 93,33 %
08.04.2016 21:50 6,1 C 97 % 1009,2 hPa 0,0 l/m 4,0 km/h (1 Bft) W 281 0 min 0,000 mm 0,0 UV-I 0 W/m 5,7 C 6,1 C 6,4 km/h (2 Bft) 100,00 %
08.04.2016 21:51 6,1 C 97 % 1009,2 hPa 0,0 l/m 5,9 km/h (2 Bft) W 263 0 min 0,000 mm 0,0 UV-I 0 W/m 5,7 C 6,1 C 9,7 km/h (2 Bft) 95,83 %
08.04.2016 21:52 6,1 C 97 % 1009,2 hPa 0,0 l/m 6,6 km/h (2 Bft) W 264 0 min 0,000 mm 0,0 UV-I 0 W/m 5,7 C 6,0 C 9,7 km/h (2 Bft) 96,15 %
08.04.2016 21:53 6,1 C 97 % 1009,2 hPa 0,0 l/m 5,4 km/h (1 Bft) W-SW 249 0 min 0,000 mm 0,0 UV-I 0 W/m 5,7 C 6,1 C 8,0 km/h (2 Bft) 94,44 %
08.04.2016 21:54 6,1 C 97 % 1009,2 hPa 0,0 l/m 8,3 km/h (2 Bft) W 264 0 min 0,000 mm 0,0 UV-I 0 W/m 5,7 C 4,5 C 11,3 km/h (2 Bft) 100,00 %
08.04.2016 21:55 6,1 C 97 % 1009,3 hPa 0,0 l/m 5,6 km/h (1 Bft) W-SW 248 0 min 0,000 mm 0,0 UV-I 0 W/m 5,7 C 6,1 C 8,0 km/h (2 Bft) 96,15 %
08.04.2016 21:56 6,1 C 97 % 1009,3 hPa 0,0 l/m 7,7 km/h (2 Bft) W 265 0 min 0,000 mm 0,0 UV-I 0 W/m 5,7 C 5,0 C 11,3 km/h (2 Bft) 100,00 %
08.04.2016 21:57 6,1 C 97 % 1009,2 hPa 0,0 l/m 6,9 km/h (2 Bft) W-SW 255 0 min 0,000 mm 0,0 UV-I 0 W/m 5,7 C 5,7 C 11,3 km/h (2 Bft) 96,15 %
08.04.2016 21:58 6,1 C 97 % 1009,3 hPa 0,0 l/m 8,0 km/h (2 Bft) W 269 0 min 0,000 mm 0,0 UV-I 0 W/m 5,7 C 4,8 C 9,7 km/h (2 Bft) 96,30 %
08.04.2016 21:59 6,1 C 97 % 1009,3 hPa 0,0 l/m 4,6 km/h (1 Bft) W 261 0 min 0,000 mm 0,0 UV-I 0 W/m 5,7 C 6,1 C 6,4 km/h (2 Bft) 96,55 %
08.04.2016 22:00 6,1 C 97 % 1009,3 hPa 0,0 l/m 5,2 km/h (1 Bft) W-SW 249 0 min 0,000 mm 0,0 UV-I 0 W/m 5,7 C 6,1 C 11,3 km/h (2 Bft) 91,67 %
08.04.2016 22:01 6,1 C 97 % 1009,2 hPa 0,0 l/m 9,0 km/h (2 Bft) W-SW 257 0 min 0,000 mm 0,0 UV-I 0 W/m 5,7 C 4,0 C 12,9 km/h (3 Bft) 100,00 %
08.04.2016 22:02 6,1 C 97 % 1009,2 hPa 0,0 l/m 5,7 km/h (1 Bft) W-SW 252 0 min 0,000 mm 0,0 UV-I 0 W/m 5,7 C 6,1 C 9,7 km/h (2 Bft) 96,30 %
08.04.2016 22:03 6,1 C 97 % 1009,2 hPa 0,0 l/m 8,7 km/h (2 Bft) W-SW 240 0 min 0,000 mm 0,0 UV-I 0 W/m 5,7 C 4,2 C 12,9 km/h (3 Bft) 100,00 %
08.04.2016 22:04 6,1 C 97 % 1009,2 hPa 0,0 l/m 7,4 km/h (2 Bft) W-SW 252 0 min 0,000 mm 0,0 UV-I 0 W/m 5,7 C 5,3 C 11,3 km/h (2 Bft) 95,83 %
08.04.2016 22:05 6,1 C 97 % 1009,2 hPa 0,0 l/m 7,4 km/h (2 Bft) W 271 0 min 0,000 mm 0,0 UV-I 0 W/m 5,7 C 5,3 C 9,7 km/h (2 Bft) 95,65 %
08.04.2016 22:06 6,1 C 97 % 1009,2 hPa 0,0 l/m 4,3 km/h (1 Bft) W-SW 252 0 min 0,000 mm 0,0 UV-I 0 W/m 5,7 C 6,1 C 6,4 km/h (2 Bft) 100,00 %
08.04.2016 22:07 6,1 C 97 % 1009,2 hPa 0,0 l/m 5,3 km/h (1 Bft) W-SW 252 0 min 0,000 mm 0,0 UV-I 0 W/m 5,7 C 6,1 C 6,4 km/h (2 Bft) 95,65 %
08.04.2016 22:08 6,1 C 97 % 1009,2 hPa 0,0 l/m 7,8 km/h (2 Bft) W-SW 242 0 min 0,000 mm 0,0 UV-I 0 W/m 5,7 C 4,9 C 11,3 km/h (2 Bft) 100,00 %
08.04.2016 22:09 6,1 C 97 % 1009,2 hPa 0,0 l/m 6,8 km/h (2 Bft) W-SW 244 0 min 0,000 mm 0,0 UV-I 0 W/m 5,7 C 5,8 C 8,0 km/h (2 Bft) 92,86 %
08.04.2016 22:10 6,1 C 97 % 1009,2 hPa 0,0 l/m 5,8 km/h (2 Bft) W-SW 248 0 min 0,000 mm 0,0 UV-I 0 W/m 5,7 C 6,1 C 6,4 km/h (2 Bft) 100,00 %
08.04.2016 22:11 6,1 C 97 % 1009,2 hPa 0,0 l/m 6,9 km/h (2 Bft) W 261 0 min 0,000 mm 0,0 UV-I 0 W/m 5,7 C 5,7 C 9,7 km/h (2 Bft) 96,15 %
08.04.2016 22:12 6,1 C 97 % 1009,2 hPa 0,0 l/m 5,5 km/h (1 Bft) SW 221 0 min 0,000 mm 0,0 UV-I 0 W/m 5,7 C 6,1 C 9,7 km/h (2 Bft) 96,30 %
08.04.2016 22:13 6,1 C 97 % 1009,2 hPa 0,0 l/m 5,1 km/h (1 Bft) SW 235 0 min 0,000 mm 0,0 UV-I 0 W/m 5,7 C 6,1 C 8,0 km/h (2 Bft) 100,00 %
08.04.2016 22:14 6,1 C 97 % 1009,1 hPa 0,0 l/m 7,2 km/h (2 Bft) W-SW 242 0 min 0,000 mm 0,0 UV-I 0 W/m 5,7 C 5,4 C 9,7 km/h (2 Bft) 96,15 %
08.04.2016 22:15 6,1 C 97 % 1009,1 hPa 0,0 l/m 6,1 km/h (2 Bft) SW 229 0 min 0,000 mm 0,0 UV-I 0 W/m 5,7 C 6,1 C 11,3 km/h (2 Bft) 100,00 %
08.04.2016 22:16 6,1 C 97 % 1009,2 hPa 0,0 l/m 5,8 km/h (2 Bft) W 264 0 min 0,000 mm 0,0 UV-I 0 W/m 5,7 C 6,1 C 8,0 km/h (2 Bft) 96,55 %
08.04.2016 22:17 6,1 C 97 % 1009,2 hPa 0,0 l/m 6,2 km/h (2 Bft) SW 227 0 min 0,000 mm 0,0 UV-I 0 W/m 5,7 C 6,1 C 8,0 km/h (2 Bft) 100,00 %
08.04.2016 22:18 6,1 C 97 % 1009,2 hPa 0,0 l/m 6,2 km/h (2 Bft) W 263 0 min 0,000 mm 0,0 UV-I 0 W/m 5,7 C 6,1 C 8,0 km/h (2 Bft) 95,65 %
08.04.2016 22:19 6,0 C 97 % 1009,2 hPa 0,0 l/m 3,8 km/h (1 Bft) W 265 0 min 0,000 mm 0,0 UV-I 0 W/m 5,6 C 6,0 C 6,4 km/h (2 Bft) 91,67 %
08.04.2016 22:20 6,0 C 97 % 1009,2 hPa 0,0 l/m 4,6 km/h (1 Bft) W 269 0 min 0,000 mm 0,0 UV-I 0 W/m 5,6 C 6,0 C 4,8 km/h (1 Bft) 100,00 %
08.04.2016 22:21 6,0 C 97 % 1009,2 hPa 0,0 l/m 3,0 km/h (1 Bft) W 269 0 min 0,000 mm 0,0 UV-I 0 W/m 5,6 C 6,0 C 4,8 km/h (1 Bft) 100,00 %
08.04.2016 22:22 6,0 C 97 % 1009,2 hPa 0,0 l/m 3,6 km/h (1 Bft) NW 324 0 min 0,000 mm 0,0 UV-I 0 W/m 5,6 C 6,0 C 4,8 km/h (1 Bft) 100,00 %
08.04.2016 22:23 6,0 C 97 % 1009,2 hPa 0,0 l/m 1,2 km/h (1 Bft) NW 324 0 min 0,000 mm 0,0 UV-I 0 W/m 5,6 C 6,0 C 3,2 km/h (1 Bft) 100,00 %
08.04.2016 22:24 6,0 C 97 % 1009,2 hPa 0,0 l/m 3,0 km/h (1 Bft) W 277 0 min 0,000 mm 0,0 UV-I 0 W/m 5,6 C 6,0 C 4,8 km/h (1 Bft) 100,00 %
08.04.2016 22:25 6,0 C 97 % 1009,1 hPa 0,0 l/m 2,7 km/h (1 Bft) W-NW 296 0 min 0,000 mm 0,0 UV-I 0 W/m 5,6 C 6,0 C 3,2 km/h (1 Bft) 96,30 %
08.04.2016 22:26 6,0 C 97 % 1009,2 hPa 0,0 l/m 2,3 km/h (1 Bft) W-NW 294 0 min 0,000 mm 0,0 UV-I 0 W/m 5,6 C 6,0 C 3,2 km/h (1 Bft) 100,00 %
08.04.2016 22:27 6,0 C 97 % 1009,1 hPa 0,0 l/m 5,2 km/h (1 Bft) W 264 0 min 0,000 mm 0,0 UV-I 0 W/m 5,6 C 6,0 C 9,7 km/h (2 Bft) 100,00 %
08.04.2016 22:28 6,0 C 97 % 1009,1 hPa 0,0 l/m 9,7 km/h (2 Bft) W-SW 244 0 min 0,000 mm 0,0 UV-I 0 W/m 5,6 C 3,4 C 12,9 km/h (3 Bft) 100,00 %
08.04.2016 22:29 5,9 C 97 % 1009,1 hPa 0,0 l/m 6,4 km/h (2 Bft) W-SW 251 0 min 0,000 mm 0,0 UV-I 0 W/m 5,5 C 5,9 C 8,0 km/h (2 Bft) 100,00 %
08.04.2016 22:30 5,9 C 97 % 1009,1 hPa 0,0 l/m 5,9 km/h (2 Bft) W-SW 257 0 min 0,000 mm 0,0 UV-I 0 W/m 5,5 C 5,9 C 9,7 km/h (2 Bft) 93,10 %
08.04.2016 22:31 5,9 C 97 % 1009,1 hPa 0,2 l/m 6,8 km/h (2 Bft) W-SW 252 0 min 0,000 mm 0,0 UV-I 0 W/m 5,5 C 5,6 C 9,7 km/h (2 Bft) 100,00 %
08.04.2016 22:32 5,9 C 97 % 1009,1 hPa 0,0 l/m 5,4 km/h (1 Bft) W 259 0 min 0,000 mm 0,0 UV-I 0 W/m 5,5 C 5,9 C 8,0 km/h (2 Bft) 100,00 %
08.04.2016 22:33 5,9 C 97 % 1009,1 hPa 0,0 l/m 4,8 km/h (1 Bft) W-SW 250 0 min 0,000 mm 0,0 UV-I 0 W/m 5,5 C 5,9 C 6,4 km/h (2 Bft) 100,00 %
08.04.2016 22:34 5,9 C 97 % 1009,1 hPa 0,0 l/m 5,5 km/h (1 Bft) S-SW 208 0 min 0,000 mm 0,0 UV-I 0 W/m 5,5 C 5,9 C 9,7 km/h (2 Bft) 100,00 %
08.04.2016 22:35 5,9 C 97 % 1009,1 hPa 0,0 l/m 6,9 km/h (2 Bft) W-SW 252 0 min 0,000 mm 0,0 UV-I 0 W/m 5,5 C 5,5 C 11,3 km/h (2 Bft) 100,00 %
08.04.2016 22:36 5,8 C 97 % 1009,0 hPa 0,0 l/m 6,6 km/h (2 Bft) SW 233 0 min 0,000 mm 0,0 UV-I 0 W/m 5,4 C 5,7 C 11,3 km/h (2 Bft) 100,00 %
08.04.2016 22:37 5,8 C 97 % 1009,1 hPa 0,0 l/m 6,8 km/h (2 Bft) SW 222 0 min 0,000 mm 0,0 UV-I 0 W/m 5,4 C 5,5 C 11,3 km/h (2 Bft) 100,00 %
08.04.2016 22:38 5,8 C 97 % 1009,1 hPa 0,0 l/m 8,0 km/h (2 Bft) W-SW 249 0 min 0,000 mm 0,0 UV-I 0 W/m 5,4 C 4,4 C 12,9 km/h (3 Bft) 100,00 %
08.04.2016 22:39 5,8 C 97 % 1009,1 hPa 0,0 l/m 13,4 km/h (3 Bft) W-SW 245 0 min 0,000 mm 0,0 UV-I 0 W/m 5,4 C 0,9 C 16,1 km/h (3 Bft) 96,15 %
08.04.2016 22:40 5,8 C 97 % 1009,0 hPa 0,0 l/m 7,8 km/h (2 Bft) W 264 0 min 0,000 mm 0,0 UV-I 0 W/m 5,4 C 4,6 C 14,5 km/h (3 Bft) 100,00 %
08.04.2016 22:41 5,8 C 97 % 1009,0 hPa 0,0 l/m 5,6 km/h (1 Bft) W 268 0 min 0,000 mm 0,0 UV-I 0 W/m 5,4 C 5,8 C 8,0 km/h (2 Bft) 96,15 %
08.04.2016 22:42 5,8 C 97 % 1009,1 hPa 0,0 l/m 6,7 km/h (2 Bft) W 265 0 min 0,000 mm 0,0 UV-I 0 W/m 5,4 C 5,6 C 9,7 km/h (2 Bft) 100,00 %
08.04.2016 22:43 5,7 C 97 % 1009,0 hPa 0,0 l/m 6,0 km/h (2 Bft) W-SW 244 0 min 0,000 mm 0,0 UV-I 0 W/m 5,3 C 5,7 C 11,3 km/h (2 Bft) 100,00 %
08.04.2016 22:44 5,7 C 97 % 1009,0 hPa 0,0 l/m 8,7 km/h (2 Bft) W-SW 251 0 min 0,000 mm 0,0 UV-I 0 W/m 5,3 C 3,8 C 12,9 km/h (3 Bft) 100,00 %
08.04.2016 22:45 5,7 C 97 % 1009,0 hPa 0,0 l/m 9,4 km/h (2 Bft) W-SW 240 0 min 0,000 mm 0,0 UV-I 0 W/m 5,3 C 3,3 C 12,9 km/h (3 Bft) 100,00 %
08.04.2016 22:46 5,7 C 97 % 1009,1 hPa 0,0 l/m 6,2 km/h (2 Bft) SW 233 0 min 0,000 mm 0,0 UV-I 0 W/m 5,3 C 5,7 C 9,7 km/h (2 Bft) 100,00 %
08.04.2016 22:47 5,7 C 97 % 1009,0 hPa 0,0 l/m 7,7 km/h (2 Bft) SW 234 0 min 0,000 mm 0,0 UV-I 0 W/m 5,3 C 4,6 C 17,7 km/h (3 Bft) 100,00 %
08.04.2016 22:48 5,7 C 97 % 1009,1 hPa 0,0 l/m 11,7 km/h (2 Bft) SW 214 0 min 0,000 mm 0,0 UV-I 0 W/m 5,3 C 1,7 C 16,1 km/h (3 Bft) 100,00 %
08.04.2016 22:49 5,7 C 96 % 1009,1 hPa 0,0 l/m 10,7 km/h (2 Bft) S-SW 207 0 min 0,000 mm 0,0 UV-I 0 W/m 5,1 C 2,4 C 16,1 km/h (3 Bft) 100,00 %
08.04.2016 22:50 5,6 C 96 % 1009,1 hPa 0,0 l/m 11,3 km/h (2 Bft) S-SW 197 0 min 0,000 mm 0,0 UV-I 0 W/m 5,0 C 1,9 C 16,1 km/h (3 Bft) 100,00 %
08.04.2016 22:51 5,6 C 96 % 1009,1 hPa 0,0 l/m 10,7 km/h (2 Bft) S 183 0 min 0,000 mm 0,0 UV-I 0 W/m 5,0 C 2,3 C 16,1 km/h (3 Bft) 100,00 %
08.04.2016 22:52 5,5 C 96 % 1009,1 hPa 0,0 l/m 7,3 km/h (2 Bft) SW 228 0 min 0,000 mm 0,0 UV-I 0 W/m 4,9 C 4,7 C 11,3 km/h (2 Bft) 100,00 %
08.04.2016 22:53 5,4 C 96 % 1009,1 hPa 0,0 l/m 5,4 km/h (1 Bft) S-SW 199 0 min 0,000 mm 0,0 UV-I 0 W/m 4,8 C 5,4 C 9,7 km/h (2 Bft) 93,33 %
08.04.2016 22:54 5,4 C 96 % 1009,1 hPa 0,0 l/m 9,5 km/h (2 Bft) W-SW 252 0 min 0,000 mm 0,0 UV-I 0 W/m 4,8 C 2,9 C 14,5 km/h (3 Bft) 96,15 %
08.04.2016 22:55 5,4 C 96 % 1009,1 hPa 0,0 l/m 9,2 km/h (2 Bft) W-SW 242 0 min 0,000 mm 0,0 UV-I 0 W/m 4,8 C 3,1 C 12,9 km/h (3 Bft) 100,00 %
08.04.2016 22:56 5,4 C 96 % 1009,0 hPa 0,0 l/m 7,6 km/h (2 Bft) SW 228 0 min 0,000 mm 0,0 UV-I 0 W/m 4,8 C 4,4 C 11,3 km/h (2 Bft) 100,00 %
08.04.2016 22:57 5,4 C 96 % 1009,0 hPa 0,0 l/m 9,6 km/h (2 Bft) SW 225 0 min 0,000 mm 0,0 UV-I 0 W/m 4,8 C 2,8 C 12,9 km/h (3 Bft) 100,00 %
08.04.2016 22:58 5,4 C 96 % 1009,0 hPa 0,0 l/m 9,3 km/h (2 Bft) S-SW 212 0 min 0,000 mm 0,0 UV-I 0 W/m 4,8 C 3,0 C 12,9 km/h (3 Bft) 100,00 %
08.04.2016 22:59 5,4 C 96 % 1008,9 hPa 0,0 l/m 12,8 km/h (3 Bft) W-SW 251 0 min 0,000 mm 0,0 UV-I 0 W/m 4,8 C 0,7 C 17,7 km/h (3 Bft) 100,00 %
08.04.2016 23:00 5,3 C 96 % 1009,0 hPa 0,0 l/m 9,8 km/h (2 Bft) SW 226 0 min 0,000 mm 0,0 UV-I 0 W/m 4,7 C 2,5 C 12,9 km/h (3 Bft) 96,55 %
08.04.2016 23:01 5,3 C 96 % 1009,0 hPa 0,0 l/m 11,5 km/h (2 Bft) S 191 0 min 0,000 mm 0,0 UV-I 0 W/m 4,7 C 1,4 C 19,3 km/h (3 Bft) 96,30 %
08.04.2016 23:02 5,3 C 96 % 1008,9 hPa 0,0 l/m 10,4 km/h (2 Bft) W-SW 251 0 min 0,000 mm 0,0 UV-I 0 W/m 4,7 C 2,1 C 16,1 km/h (3 Bft) 100,00 %
08.04.2016 23:03 5,3 C 96 % 1008,9 hPa 0,0 l/m 7,6 km/h (2 Bft) S-SW 213 0 min 0,000 mm 0,0 UV-I 0 W/m 4,7 C 4,3 C 14,5 km/h (3 Bft) 100,00 %
08.04.2016 23:04 5,2 C 96 % 1009,0 hPa 0,0 l/m 8,7 km/h (2 Bft) S-SW 200 0 min 0,000 mm 0,0 UV-I 0 W/m 4,6 C 3,3 C 14,5 km/h (3 Bft) 96,15 %
08.04.2016 23:05 5,2 C 96 % 1009,0 hPa 0,0 l/m 8,8 km/h (2 Bft) S 186 0 min 0,000 mm 0,0 UV-I 0 W/m 4,6 C 3,2 C 11,3 km/h (2 Bft) 100,00 %
08.04.2016 23:06 5,2 C 96 % 1009,0 hPa 0,0 l/m 10,3 km/h (2 Bft) S 182 0 min 0,000 mm 0,0 UV-I 0 W/m 4,6 C 2,1 C 14,5 km/h (3 Bft) 100,00 %
08.04.2016 23:07 5,2 C 96 % 1008,9 hPa 0,0 l/m 7,6 km/h (2 Bft) SW 234 0 min 0,000 mm 0,0 UV-I 0 W/m 4,6 C 4,1 C 12,9 km/h (3 Bft) 100,00 %
08.04.2016 23:08 5,2 C 96 % 1009,0 hPa 0,0 l/m 11,0 km/h (2 Bft) SW 234 0 min 0,000 mm 0,0 UV-I 0 W/m 4,6 C 1,6 C 14,5 km/h (3 Bft) 100,00 %
08.04.2016 23:09 5,2 C 96 % 1009,0 hPa 0,0 l/m 9,7 km/h (2 Bft) S 189 0 min 0,000 mm 0,0 UV-I 0 W/m 4,6 C 2,5 C 14,5 km/h (3 Bft) 100,00 %
08.04.2016 23:10 5,2 C 96 % 1009,0 hPa 0,0 l/m 6,6 km/h (2 Bft) S 184 0 min 0,000 mm 0,0 UV-I 0 W/m 4,6 C 5,0 C 9,7 km/h (2 Bft) 100,00 %
08.04.2016 23:11 5,2 C 96 % 1009,0 hPa 0,0 l/m 7,0 km/h (2 Bft) S-SW 207 0 min 0,000 mm 0,0 UV-I 0 W/m 4,6 C 4,7 C 9,7 km/h (2 Bft) 100,00 %
08.04.2016 23:12 5,2 C 96 % 1009,0 hPa 0,0 l/m 7,5 km/h (2 Bft) S 189 0 min 0,000 mm 0,0 UV-I 0 W/m 4,6 C 4,2 C 9,7 km/h (2 Bft) 100,00 %
08.04.2016 23:13 5,2 C 96 % 1009,0 hPa 0,0 l/m 6,6 km/h (2 Bft) S-SW 207 0 min 0,000 mm 0,0 UV-I 0 W/m 4,6 C 5,0 C 8,0 km/h (2 Bft) 86,67 %
08.04.2016 23:14 5,1 C 96 % 1009,0 hPa 0,0 l/m 8,6 km/h (2 Bft) SW 231 0 min 0,000 mm 0,0 UV-I 0 W/m 4,5 C 3,2 C 11,3 km/h (2 Bft) 96,30 %
08.04.2016 23:15 5,1 C 96 % 1009,0 hPa 0,0 l/m 8,2 km/h (2 Bft) SW 227 0 min 0,000 mm 0,0 UV-I 0 W/m 4,5 C 3,5 C 12,9 km/h (3 Bft) 100,00 %
08.04.2016 23:16 5,1 C 96 % 1009,0 hPa 0,0 l/m 6,4 km/h (2 Bft) W-SW 240 0 min 0,000 mm 0,0 UV-I 0 W/m 4,5 C 5,1 C 9,7 km/h (2 Bft) 100,00 %
08.04.2016 23:17 5,1 C 96 % 1009,0 hPa 0,0 l/m 8,4 km/h (2 Bft) S 186 0 min 0,000 mm 0,0 UV-I 0 W/m 4,5 C 3,4 C 14,5 km/h (3 Bft) 100,00 %
08.04.2016 23:18 5,1 C 96 % 1009,0 hPa 0,0 l/m 6,6 km/h (2 Bft) W-SW 251 0 min 0,000 mm 0,0 UV-I 0 W/m 4,5 C 4,9 C 8,0 km/h (2 Bft) 100,00 %
08.04.2016 23:19 5,1 C 96 % 1009,0 hPa 0,0 l/m 5,7 km/h (1 Bft) W-SW 244 0 min 0,000 mm 0,0 UV-I 0 W/m 4,5 C 5,1 C 8,0 km/h (2 Bft) 100,00 %
08.04.2016 23:20 5,1 C 96 % 1009,1 hPa 0,0 l/m 6,6 km/h (2 Bft) W-SW 251 0 min 0,000 mm 0,0 UV-I 0 W/m 4,5 C 4,9 C 11,3 km/h (2 Bft) 100,00 %
08.04.2016 23:21 5,1 C 96 % 1009,0 hPa 0,0 l/m 10,1 km/h (2 Bft) W 268 0 min 0,000 mm 0,0 UV-I 0 W/m 4,5 C 2,1 C 12,9 km/h (3 Bft) 100,00 %
08.04.2016 23:22 5,1 C 96 % 1009,0 hPa 0,0 l/m 8,0 km/h (2 Bft) SW 229 0 min 0,000 mm 0,0 UV-I 0 W/m 4,5 C 3,7 C 11,3 km/h (2 Bft) 100,00 %
08.04.2016 23:23 5,1 C 96 % 1009,0 hPa 0,2 l/m 10,3 km/h (2 Bft) W-SW 242 0 min 0,000 mm 0,0 UV-I 0 W/m 4,5 C 2,0 C 16,1 km/h (3 Bft) 100,00 %
08.04.2016 23:24 5,1 C 96 % 1009,0 hPa 0,0 l/m 7,8 km/h (2 Bft) SW 228 0 min 0,000 mm 0,0 UV-I 0 W/m 4,5 C 3,9 C 9,7 km/h (2 Bft) 100,00 %
08.04.2016 23:25 5,1 C 96 % 1009,0 hPa 0,0 l/m 6,9 km/h (2 Bft) SW 235 0 min 0,000 mm 0,0 UV-I 0 W/m 4,5 C 4,7 C 9,7 km/h (2 Bft) 100,00 %
08.04.2016 23:26 5,1 C 96 % 1009,1 hPa 0,0 l/m 9,2 km/h (2 Bft) SW 222 0 min 0,000 mm 0,0 UV-I 0 W/m 4,5 C 2,8 C 12,9 km/h (3 Bft) 100,00 %
08.04.2016 23:27 5,1 C 96 % 1009,0 hPa 0,0 l/m 7,6 km/h (2 Bft) W-SW 237 0 min 0,000 mm 0,0 UV-I 0 W/m 4,5 C 4,0 C 11,3 km/h (2 Bft) 100,00 %
08.04.2016 23:28 5,0 C 96 % 1009,0 hPa 0,0 l/m 5,9 km/h (2 Bft) W-SW 244 0 min 0,000 mm 0,0 UV-I 0 W/m 4,4 C 5,0 C 11,3 km/h (2 Bft) 100,00 %
08.04.2016 23:29 5,1 C 96 % 1009,0 hPa 0,0 l/m 7,5 km/h (2 Bft) S-SW 208 0 min 0,000 mm 0,0 UV-I 0 W/m 4,5 C 4,1 C 14,5 km/h (3 Bft) 95,65 %
08.04.2016 23:30 5,0 C 96 % 1009,0 hPa 0,0 l/m 6,5 km/h (2 Bft) S-SW 192 0 min 0,000 mm 0,0 UV-I 0 W/m 4,4 C 4,9 C 14,5 km/h (3 Bft) 100,00 %
08.04.2016 23:31 5,0 C 96 % 1009,0 hPa 0,0 l/m 7,6 km/h (2 Bft) SW 236 0 min 0,000 mm 0,0 UV-I 0 W/m 4,4 C 3,9 C 11,3 km/h (2 Bft) 100,00 %
08.04.2016 23:32 5,0 C 96 % 1009,1 hPa 0,0 l/m 5,3 km/h (1 Bft) SW 236 0 min 0,000 mm 0,0 UV-I 0 W/m 4,4 C 5,0 C 12,9 km/h (3 Bft) 100,00 %
08.04.2016 23:33 5,0 C 96 % 1009,0 hPa 0,0 l/m 5,5 km/h (1 Bft) S-SW 205 0 min 0,000 mm 0,0 UV-I 0 W/m 4,4 C 5,0 C 12,9 km/h (3 Bft) 100,00 %
08.04.2016 23:34 5,0 C 96 % 1008,9 hPa 0,0 l/m 8,4 km/h (2 Bft) W-SW 240 0 min 0,000 mm 0,0 UV-I 0 W/m 4,4 C 3,3 C 11,3 km/h (2 Bft) 100,00 %
08.04.2016 23:35 5,0 C 96 % 1008,9 hPa 0,0 l/m 6,9 km/h (2 Bft) S 180 0 min 0,000 mm 0,0 UV-I 0 W/m 4,4 C 4,6 C 9,7 km/h (2 Bft) 96,15 %
08.04.2016 23:36 5,0 C 96 % 1008,9 hPa 0,0 l/m 7,5 km/h (2 Bft) SW 219 0 min 0,000 mm 0,0 UV-I 0 W/m 4,4 C 4,0 C 11,3 km/h (2 Bft) 100,00 %
08.04.2016 23:37 4,9 C 96 % 1008,9 hPa 0,0 l/m 8,5 km/h (2 Bft) S 189 0 min 0,000 mm 0,0 UV-I 0 W/m 4,3 C 3,1 C 11,3 km/h (2 Bft) 100,00 %
08.04.2016 23:38 4,9 C 96 % 1008,9 hPa 0,0 l/m 7,5 km/h (2 Bft) S 191 0 min 0,000 mm 0,0 UV-I 0 W/m 4,3 C 3,9 C 12,9 km/h (3 Bft) 100,00 %
08.04.2016 23:39 4,9 C 96 % 1008,9 hPa 0,0 l/m 7,2 km/h (2 Bft) S 190 0 min 0,000 mm 0,0 UV-I 0 W/m 4,3 C 4,2 C 11,3 km/h (2 Bft) 100,00 %
08.04.2016 23:40 4,9 C 96 % 1008,9 hPa 0,0 l/m 8,7 km/h (2 Bft) S-SW 206 0 min 0,000 mm 0,0 UV-I 0 W/m 4,3 C 2,9 C 12,9 km/h (3 Bft) 96,55 %
08.04.2016 23:41 4,9 C 96 % 1008,9 hPa 0,0 l/m 8,4 km/h (2 Bft) W-SW 248 0 min 0,000 mm 0,0 UV-I 0 W/m 4,3 C 3,2 C 11,3 km/h (2 Bft) 100,00 %
08.04.2016 23:42 4,9 C 96 % 1008,9 hPa 0,0 l/m 8,9 km/h (2 Bft) S-SW 196 0 min 0,000 mm 0,0 UV-I 0 W/m 4,3 C 2,8 C 12,9 km/h (3 Bft) 100,00 %
08.04.2016 23:43 4,9 C 96 % 1008,9 hPa 0,0 l/m 6,4 km/h (2 Bft) S-SW 202 0 min 0,000 mm 0,0 UV-I 0 W/m 4,3 C 4,9 C 9,7 km/h (2 Bft) 100,00 %
08.04.2016 23:44 4,9 C 96 % 1008,9 hPa 0,0 l/m 6,7 km/h (2 Bft) S 190 0 min 0,000 mm 0,0 UV-I 0 W/m 4,3 C 4,7 C 8,0 km/h (2 Bft) 100,00 %
08.04.2016 23:45 4,9 C 96 % 1008,9 hPa 0,0 l/m 6,3 km/h (2 Bft) W-SW 241 0 min 0,000 mm 0,0 UV-I 0 W/m 4,3 C 4,9 C 8,0 km/h (2 Bft) 95,83 %
08.04.2016 23:46 4,9 C 96 % 1008,9 hPa 0,0 l/m 7,5 km/h (2 Bft) SW 232 0 min 0,000 mm 0,0 UV-I 0 W/m 4,3 C 3,9 C 9,7 km/h (2 Bft) 100,00 %
08.04.2016 23:47 4,9 C 96 % 1009,0 hPa 0,0 l/m 7,6 km/h (2 Bft) S-SW 205 0 min 0,000 mm 0,0 UV-I 0 W/m 4,3 C 3,8 C 11,3 km/h (2 Bft) 92,59 %
08.04.2016 23:48 4,9 C 96 % 1009,0 hPa 0,0 l/m 5,7 km/h (1 Bft) SW 220 0 min 0,000 mm 0,0 UV-I 0 W/m 4,3 C 4,9 C 9,7 km/h (2 Bft) 100,00 %
08.04.2016 23:49 4,9 C 96 % 1009,0 hPa 0,0 l/m 8,6 km/h (2 Bft) W-SW 247 0 min 0,000 mm 0,0 UV-I 0 W/m 4,3 C 3,0 C 16,1 km/h (3 Bft) 96,30 %
08.04.2016 23:50 4,9 C 96 % 1008,9 hPa 0,0 l/m 6,3 km/h (2 Bft) SW 229 0 min 0,000 mm 0,0 UV-I 0 W/m 4,3 C 4,9 C 12,9 km/h (3 Bft) 100,00 %
08.04.2016 23:51 4,9 C 96 % 1008,9 hPa 0,0 l/m 5,1 km/h (1 Bft) W-SW 244 0 min 0,000 mm 0,0 UV-I 0 W/m 4,3 C 4,9 C 9,7 km/h (2 Bft) 96,55 %
08.04.2016 23:52 4,9 C 96 % 1008,9 hPa 0,0 l/m 8,6 km/h (2 Bft) W-SW 240 0 min 0,000 mm 0,0 UV-I 0 W/m 4,3 C 3,0 C 12,9 km/h (3 Bft) 100,00 %
08.04.2016 23:53 4,9 C 96 % 1008,9 hPa 0,0 l/m 9,3 km/h (2 Bft) W-SW 245 0 min 0,000 mm 0,0 UV-I 0 W/m 4,3 C 2,5 C 12,9 km/h (3 Bft) 96,30 %
08.04.2016 23:54 4,9 C 96 % 1008,9 hPa 0,0 l/m 8,2 km/h (2 Bft) SW 232 0 min 0,000 mm 0,0 UV-I 0 W/m 4,3 C 3,3 C 11,3 km/h (2 Bft) 100,00 %
08.04.2016 23:55 4,8 C 96 % 1008,9 hPa 0,0 l/m 6,1 km/h (2 Bft) S-SW 197 0 min 0,000 mm 0,0 UV-I 0 W/m 4,2 C 4,8 C 8,0 km/h (2 Bft) 95,83 %
08.04.2016 23:56 4,9 C 96 % 1008,9 hPa 0,0 l/m 6,0 km/h (2 Bft) S-SW 207 0 min 0,000 mm 0,0 UV-I 0 W/m 4,3 C 4,9 C 8,0 km/h (2 Bft) 100,00 %
08.04.2016 23:57 4,8 C 96 % 1009,0 hPa 0,0 l/m 6,4 km/h (2 Bft) S-SW 207 0 min 0,000 mm 0,0 UV-I 0 W/m 4,2 C 4,8 C 8,0 km/h (2 Bft) 95,65 %
08.04.2016 23:58 4,8 C 96 % 1008,9 hPa 0,0 l/m 6,9 km/h (2 Bft) W-SW 240 0 min 0,000 mm 0,0 UV-I 0 W/m 4,2 C 4,4 C 8,0 km/h (2 Bft) 100,00 %
08.04.2016 23:59 4,8 C 96 % 1008,9 hPa 0,0 l/m 6,3 km/h (2 Bft) S-SW 202 0 min 0,000 mm 0,0 UV-I 0 W/m 4,2 C 4,8 C 9,7 km/h (2 Bft) 92,86 %
_ Min-Zeit 23:55 00:00 17:34 - 15:23 - - - - - - 23:55 09:16 15:23 16:24
Minimum _ 4,8 C 85 % 1008,4 hPa - 0,0 km/h (0 Bft) - - - - - - 4,2 C 0,1 C 0,0 km/h (0 Bft) 75,00 %
_ Max-Zeit 00:00 12:22 01:35 02:34 09:16 - - 00:00 14:01 13:26 15:35 02:40 00:02 06:38 00:03
Maximum _ 9,9 C 97 % 1010,9 hPa 0,2 l/m 16,0 km/h
W-SW (3 Bft)
- - 0 min 0,051 mm 0,5 UV-I 110 W/m 7,6 C 9,8 C 19,3 km/h
W-SW (3 Bft)
100,00 %
Durchschnitt _ 6,9 C 95 % 1009,8 hPa #8,6 l/m 5,5 km/h (1 Bft) W-SW - #0 min. #0,305 mm 0,4 UV-I 47 W/m 6,2 C 6,2 C 8,3 km/h (2 Bft) 98,53 %